<?xml version="1.0" encoding="UTF-8" standalone="no" ?>
<gpx xmlns="http://www.topografix.com/GPX/1/1" xmlns:xsi="http://www.w3.org/2001/XMLSchema-instance" xsi:schemaLocation="http://www.topografix.com/GPX/1/1 http://www.topografix.com/GPX/1/1/gpx.xsd" version="1.1" creator="VisuGPX - https://www.visugpx.com">
  <metadata>
    <name>Lac d\'argenteuil</name>
    <desc><![CDATA[Randonnée de 6h30]]></desc>
  </metadata>
  <trk>
    <name><![CDATA[ACTIVE LOG 001]]></name>
    <trkseg>
      <trkpt lat="42.6753" lon="1.70643">
        <ele>1557.4731445</ele>
        <time>2011-07-03T08:08:49Z</time>
      </trkpt>
      <trkpt lat="42.67527" lon="1.70648">
        <ele>1557.4731445</ele>
        <time>2011-07-03T08:08:54Z</time>
      </trkpt>
      <trkpt lat="42.67523" lon="1.70661">
        <ele>1556.9924316</ele>
        <time>2011-07-03T08:09:02Z</time>
      </trkpt>
      <trkpt lat="42.67513" lon="1.70669">
        <ele>1556.9924316</ele>
        <time>2011-07-03T08:09:11Z</time>
      </trkpt>
      <trkpt lat="42.67507" lon="1.70673">
        <ele>1556.5117188</ele>
        <time>2011-07-03T08:09:17Z</time>
      </trkpt>
      <trkpt lat="42.67496" lon="1.70689">
        <ele>1555.5505371</ele>
        <time>2011-07-03T08:09:31Z</time>
      </trkpt>
      <trkpt lat="42.67494" lon="1.7069">
        <ele>1555.5505371</ele>
        <time>2011-07-03T08:09:33Z</time>
      </trkpt>
      <trkpt lat="42.67491" lon="1.70693">
        <ele>1554.5891113</ele>
        <time>2011-07-03T08:09:36Z</time>
      </trkpt>
      <trkpt lat="42.67488" lon="1.70697">
        <ele>1555.5505371</ele>
        <time>2011-07-03T08:09:40Z</time>
      </trkpt>
      <trkpt lat="42.67483" lon="1.70704">
        <ele>1554.5891113</ele>
        <time>2011-07-03T08:09:47Z</time>
      </trkpt>
      <trkpt lat="42.67474" lon="1.70711">
        <ele>1554.5891113</ele>
        <time>2011-07-03T08:10:06Z</time>
      </trkpt>
      <trkpt lat="42.67471" lon="1.7071">
        <ele>1555.0698242</ele>
        <time>2011-07-03T08:10:57Z</time>
      </trkpt>
      <trkpt lat="42.67461" lon="1.70727">
        <ele>1554.5891113</ele>
        <time>2011-07-03T08:11:26Z</time>
      </trkpt>
      <trkpt lat="42.67447" lon="1.70741">
        <ele>1554.5891113</ele>
        <time>2011-07-03T08:11:41Z</time>
      </trkpt>
      <trkpt lat="42.67439" lon="1.70752">
        <ele>1555.0698242</ele>
        <time>2011-07-03T08:11:52Z</time>
      </trkpt>
      <trkpt lat="42.67434" lon="1.70754">
        <ele>1555.5505371</ele>
        <time>2011-07-03T08:11:57Z</time>
      </trkpt>
      <trkpt lat="42.67415" lon="1.70773">
        <ele>1555.0698242</ele>
        <time>2011-07-03T08:12:15Z</time>
      </trkpt>
      <trkpt lat="42.67414" lon="1.70775">
        <ele>1554.1086426</ele>
        <time>2011-07-03T08:12:18Z</time>
      </trkpt>
      <trkpt lat="42.67413" lon="1.70778">
        <ele>1554.5891113</ele>
        <time>2011-07-03T08:12:20Z</time>
      </trkpt>
      <trkpt lat="42.67401" lon="1.70789">
        <ele>1554.5891113</ele>
        <time>2011-07-03T08:12:30Z</time>
      </trkpt>
      <trkpt lat="42.67399" lon="1.70792">
        <ele>1553.6279297</ele>
        <time>2011-07-03T08:12:33Z</time>
      </trkpt>
      <trkpt lat="42.67398" lon="1.70797">
        <ele>1553.6279297</ele>
        <time>2011-07-03T08:12:36Z</time>
      </trkpt>
      <trkpt lat="42.67386" lon="1.70808">
        <ele>1554.1086426</ele>
        <time>2011-07-03T08:12:47Z</time>
      </trkpt>
      <trkpt lat="42.67377" lon="1.70817">
        <ele>1554.5891113</ele>
        <time>2011-07-03T08:12:56Z</time>
      </trkpt>
      <trkpt lat="42.67376" lon="1.7082">
        <ele>1554.5891113</ele>
        <time>2011-07-03T08:12:58Z</time>
      </trkpt>
      <trkpt lat="42.67374" lon="1.70825">
        <ele>1554.1086426</ele>
        <time>2011-07-03T08:13:02Z</time>
      </trkpt>
      <trkpt lat="42.6737" lon="1.70826">
        <ele>1554.1086426</ele>
        <time>2011-07-03T08:13:05Z</time>
      </trkpt>
      <trkpt lat="42.67366" lon="1.70828">
        <ele>1554.1086426</ele>
        <time>2011-07-03T08:13:07Z</time>
      </trkpt>
      <trkpt lat="42.6736" lon="1.70837">
        <ele>1553.6279297</ele>
        <time>2011-07-03T08:13:15Z</time>
      </trkpt>
      <trkpt lat="42.6735" lon="1.70846">
        <ele>1554.1086426</ele>
        <time>2011-07-03T08:13:26Z</time>
      </trkpt>
      <trkpt lat="42.67339" lon="1.70848">
        <ele>1554.1086426</ele>
        <time>2011-07-03T08:13:36Z</time>
      </trkpt>
      <trkpt lat="42.67321" lon="1.70869">
        <ele>1554.1086426</ele>
        <time>2011-07-03T08:13:53Z</time>
      </trkpt>
      <trkpt lat="42.67316" lon="1.70872">
        <ele>1554.1086426</ele>
        <time>2011-07-03T08:13:57Z</time>
      </trkpt>
      <trkpt lat="42.67313" lon="1.70873">
        <ele>1553.6279297</ele>
        <time>2011-07-03T08:13:59Z</time>
      </trkpt>
      <trkpt lat="42.67303" lon="1.70882">
        <ele>1554.1086426</ele>
        <time>2011-07-03T08:14:08Z</time>
      </trkpt>
      <trkpt lat="42.67303" lon="1.70875">
        <ele>1554.1086426</ele>
        <time>2011-07-03T08:14:21Z</time>
      </trkpt>
      <trkpt lat="42.67306" lon="1.70865">
        <ele>1554.1086426</ele>
        <time>2011-07-03T08:15:15Z</time>
      </trkpt>
      <trkpt lat="42.67296" lon="1.70867">
        <ele>1553.6279297</ele>
        <time>2011-07-03T08:15:26Z</time>
      </trkpt>
      <trkpt lat="42.67281" lon="1.70873">
        <ele>1554.1086426</ele>
        <time>2011-07-03T08:15:41Z</time>
      </trkpt>
      <trkpt lat="42.67248" lon="1.70855">
        <ele>1554.1086426</ele>
        <time>2011-07-03T08:16:01Z</time>
      </trkpt>
      <trkpt lat="42.67235" lon="1.70852">
        <ele>1553.6279297</ele>
        <time>2011-07-03T08:16:14Z</time>
      </trkpt>
      <trkpt lat="42.67224" lon="1.7085">
        <ele>1552.6665039</ele>
        <time>2011-07-03T08:16:24Z</time>
      </trkpt>
      <trkpt lat="42.67212" lon="1.70858">
        <ele>1552.185791</ele>
        <time>2011-07-03T08:16:36Z</time>
      </trkpt>
      <trkpt lat="42.67197" lon="1.70865">
        <ele>1552.185791</ele>
        <time>2011-07-03T08:16:52Z</time>
      </trkpt>
      <trkpt lat="42.67183" lon="1.70867">
        <ele>1552.185791</ele>
        <time>2011-07-03T08:17:05Z</time>
      </trkpt>
      <trkpt lat="42.67167" lon="1.70875">
        <ele>1552.6665039</ele>
        <time>2011-07-03T08:17:20Z</time>
      </trkpt>
      <trkpt lat="42.67165" lon="1.70875">
        <ele>1552.6665039</ele>
        <time>2011-07-03T08:17:21Z</time>
      </trkpt>
      <trkpt lat="42.67161" lon="1.70874">
        <ele>1552.6665039</ele>
        <time>2011-07-03T08:17:24Z</time>
      </trkpt>
      <trkpt lat="42.67155" lon="1.70878">
        <ele>1552.6665039</ele>
        <time>2011-07-03T08:17:30Z</time>
      </trkpt>
      <trkpt lat="42.67142" lon="1.70888">
        <ele>1553.6279297</ele>
        <time>2011-07-03T08:17:41Z</time>
      </trkpt>
      <trkpt lat="42.67127" lon="1.70899">
        <ele>1553.6279297</ele>
        <time>2011-07-03T08:17:57Z</time>
      </trkpt>
      <trkpt lat="42.67102" lon="1.70906">
        <ele>1554.5891113</ele>
        <time>2011-07-03T08:18:17Z</time>
      </trkpt>
      <trkpt lat="42.67095" lon="1.70905">
        <ele>1554.1086426</ele>
        <time>2011-07-03T08:18:21Z</time>
      </trkpt>
      <trkpt lat="42.67092" lon="1.70913">
        <ele>1554.5891113</ele>
        <time>2011-07-03T08:18:26Z</time>
      </trkpt>
      <trkpt lat="42.67079" lon="1.70921">
        <ele>1554.1086426</ele>
        <time>2011-07-03T08:18:38Z</time>
      </trkpt>
      <trkpt lat="42.67062" lon="1.7093">
        <ele>1554.5891113</ele>
        <time>2011-07-03T08:18:56Z</time>
      </trkpt>
      <trkpt lat="42.67058" lon="1.70933">
        <ele>1554.5891113</ele>
        <time>2011-07-03T08:19:00Z</time>
      </trkpt>
      <trkpt lat="42.67038" lon="1.70935">
        <ele>1555.0698242</ele>
        <time>2011-07-03T08:19:16Z</time>
      </trkpt>
      <trkpt lat="42.67025" lon="1.70935">
        <ele>1554.5891113</ele>
        <time>2011-07-03T08:19:31Z</time>
      </trkpt>
      <trkpt lat="42.67013" lon="1.70939">
        <ele>1555.0698242</ele>
        <time>2011-07-03T08:19:42Z</time>
      </trkpt>
      <trkpt lat="42.66996" lon="1.7093">
        <ele>1555.0698242</ele>
        <time>2011-07-03T08:20:01Z</time>
      </trkpt>
      <trkpt lat="42.66983" lon="1.70926">
        <ele>1555.5505371</ele>
        <time>2011-07-03T08:20:15Z</time>
      </trkpt>
      <trkpt lat="42.66948" lon="1.70927">
        <ele>1554.5891113</ele>
        <time>2011-07-03T08:20:30Z</time>
      </trkpt>
      <trkpt lat="42.66932" lon="1.7093">
        <ele>1555.0698242</ele>
        <time>2011-07-03T08:20:43Z</time>
      </trkpt>
      <trkpt lat="42.6691" lon="1.70934">
        <ele>1555.5505371</ele>
        <time>2011-07-03T08:20:58Z</time>
      </trkpt>
      <trkpt lat="42.66894" lon="1.70933">
        <ele>1555.5505371</ele>
        <time>2011-07-03T08:21:11Z</time>
      </trkpt>
      <trkpt lat="42.66884" lon="1.70938">
        <ele>1555.5505371</ele>
        <time>2011-07-03T08:21:25Z</time>
      </trkpt>
      <trkpt lat="42.6688" lon="1.70934">
        <ele>1555.5505371</ele>
        <time>2011-07-03T08:21:35Z</time>
      </trkpt>
      <trkpt lat="42.6685" lon="1.70933">
        <ele>1555.0698242</ele>
        <time>2011-07-03T08:21:50Z</time>
      </trkpt>
      <trkpt lat="42.66838" lon="1.70922">
        <ele>1554.5891113</ele>
        <time>2011-07-03T08:22:04Z</time>
      </trkpt>
      <trkpt lat="42.66837" lon="1.7092">
        <ele>1555.0698242</ele>
        <time>2011-07-03T08:22:06Z</time>
      </trkpt>
      <trkpt lat="42.66817" lon="1.70917">
        <ele>1554.1086426</ele>
        <time>2011-07-03T08:22:21Z</time>
      </trkpt>
      <trkpt lat="42.6681" lon="1.70919">
        <ele>1554.5891113</ele>
        <time>2011-07-03T08:22:26Z</time>
      </trkpt>
      <trkpt lat="42.66796" lon="1.70927">
        <ele>1553.6279297</ele>
        <time>2011-07-03T08:22:40Z</time>
      </trkpt>
      <trkpt lat="42.66791" lon="1.70924">
        <ele>1553.6279297</ele>
        <time>2011-07-03T08:22:44Z</time>
      </trkpt>
      <trkpt lat="42.66786" lon="1.70924">
        <ele>1554.5891113</ele>
        <time>2011-07-03T08:22:48Z</time>
      </trkpt>
      <trkpt lat="42.66783" lon="1.70922">
        <ele>1555.0698242</ele>
        <time>2011-07-03T08:22:53Z</time>
      </trkpt>
      <trkpt lat="42.6677" lon="1.70921">
        <ele>1556.9924316</ele>
        <time>2011-07-03T08:23:05Z</time>
      </trkpt>
      <trkpt lat="42.66753" lon="1.70912">
        <ele>1558.9150391</ele>
        <time>2011-07-03T08:23:18Z</time>
      </trkpt>
      <trkpt lat="42.66738" lon="1.70917">
        <ele>1560.3569336</ele>
        <time>2011-07-03T08:23:31Z</time>
      </trkpt>
      <trkpt lat="42.66734" lon="1.7092">
        <ele>1560.8376465</ele>
        <time>2011-07-03T08:23:35Z</time>
      </trkpt>
      <trkpt lat="42.66721" lon="1.70932">
        <ele>1559.395752</ele>
        <time>2011-07-03T08:23:48Z</time>
      </trkpt>
      <trkpt lat="42.66717" lon="1.70937">
        <ele>1563.2409668</ele>
        <time>2011-07-03T08:23:51Z</time>
      </trkpt>
      <trkpt lat="42.6671" lon="1.70941">
        <ele>1564.2023926</ele>
        <time>2011-07-03T08:23:59Z</time>
      </trkpt>
      <trkpt lat="42.66704" lon="1.70944">
        <ele>1564.6831055</ele>
        <time>2011-07-03T08:24:12Z</time>
      </trkpt>
      <trkpt lat="42.66703" lon="1.70947">
        <ele>1565.1638184</ele>
        <time>2011-07-03T08:24:15Z</time>
      </trkpt>
      <trkpt lat="42.66699" lon="1.70952">
        <ele>1565.6445313</ele>
        <time>2011-07-03T08:24:19Z</time>
      </trkpt>
      <trkpt lat="42.66695" lon="1.70948">
        <ele>1566.125</ele>
        <time>2011-07-03T08:24:22Z</time>
      </trkpt>
      <trkpt lat="42.66684" lon="1.7094">
        <ele>1566.6057129</ele>
        <time>2011-07-03T08:24:32Z</time>
      </trkpt>
      <trkpt lat="42.6668" lon="1.70941">
        <ele>1568.0476074</ele>
        <time>2011-07-03T08:24:41Z</time>
      </trkpt>
      <trkpt lat="42.66668" lon="1.70935">
        <ele>1569.0090332</ele>
        <time>2011-07-03T08:24:53Z</time>
      </trkpt>
      <trkpt lat="42.66658" lon="1.70925">
        <ele>1570.4509277</ele>
        <time>2011-07-03T08:25:06Z</time>
      </trkpt>
      <trkpt lat="42.66643" lon="1.70924">
        <ele>1572.3735352</ele>
        <time>2011-07-03T08:25:22Z</time>
      </trkpt>
      <trkpt lat="42.66638" lon="1.7092">
        <ele>1572.854248</ele>
        <time>2011-07-03T08:25:28Z</time>
      </trkpt>
      <trkpt lat="42.66616" lon="1.70905">
        <ele>1575.7380371</ele>
        <time>2011-07-03T08:25:53Z</time>
      </trkpt>
      <trkpt lat="42.66598" lon="1.70876">
        <ele>1578.6220703</ele>
        <time>2011-07-03T08:26:19Z</time>
      </trkpt>
      <trkpt lat="42.66577" lon="1.70857">
        <ele>1581.9868164</ele>
        <time>2011-07-03T08:26:44Z</time>
      </trkpt>
      <trkpt lat="42.66563" lon="1.70848">
        <ele>1582.4675293</ele>
        <time>2011-07-03T08:27:00Z</time>
      </trkpt>
      <trkpt lat="42.66548" lon="1.7084">
        <ele>1584.8708496</ele>
        <time>2011-07-03T08:27:17Z</time>
      </trkpt>
      <trkpt lat="42.66539" lon="1.70839">
        <ele>1586.7932129</ele>
        <time>2011-07-03T08:27:28Z</time>
      </trkpt>
      <trkpt lat="42.66527" lon="1.70834">
        <ele>1588.7160645</ele>
        <time>2011-07-03T08:27:40Z</time>
      </trkpt>
      <trkpt lat="42.66516" lon="1.70826">
        <ele>1590.6384277</ele>
        <time>2011-07-03T08:27:52Z</time>
      </trkpt>
      <trkpt lat="42.665" lon="1.70815">
        <ele>1593.5224609</ele>
        <time>2011-07-03T08:28:10Z</time>
      </trkpt>
      <trkpt lat="42.6648" lon="1.70813">
        <ele>1594.9643555</ele>
        <time>2011-07-03T08:28:30Z</time>
      </trkpt>
      <trkpt lat="42.66469" lon="1.70812">
        <ele>1596.4067383</ele>
        <time>2011-07-03T08:28:47Z</time>
      </trkpt>
      <trkpt lat="42.66465" lon="1.70812">
        <ele>1596.4067383</ele>
        <time>2011-07-03T08:29:02Z</time>
      </trkpt>
      <trkpt lat="42.66461" lon="1.70814">
        <ele>1596.4067383</ele>
        <time>2011-07-03T08:29:18Z</time>
      </trkpt>
      <trkpt lat="42.66462" lon="1.70824">
        <ele>1596.887207</ele>
        <time>2011-07-03T08:30:14Z</time>
      </trkpt>
      <trkpt lat="42.66458" lon="1.70821">
        <ele>1596.887207</ele>
        <time>2011-07-03T08:30:21Z</time>
      </trkpt>
      <trkpt lat="42.66441" lon="1.70822">
        <ele>1597.3679199</ele>
        <time>2011-07-03T08:30:39Z</time>
      </trkpt>
      <trkpt lat="42.66424" lon="1.7083">
        <ele>1596.887207</ele>
        <time>2011-07-03T08:30:59Z</time>
      </trkpt>
      <trkpt lat="42.66402" lon="1.70829">
        <ele>1597.3679199</ele>
        <time>2011-07-03T08:31:19Z</time>
      </trkpt>
      <trkpt lat="42.66381" lon="1.70823">
        <ele>1597.3679199</ele>
        <time>2011-07-03T08:31:36Z</time>
      </trkpt>
      <trkpt lat="42.66366" lon="1.70816">
        <ele>1597.8486328</ele>
        <time>2011-07-03T08:31:49Z</time>
      </trkpt>
      <trkpt lat="42.66358" lon="1.70812">
        <ele>1598.3291016</ele>
        <time>2011-07-03T08:31:57Z</time>
      </trkpt>
      <trkpt lat="42.66352" lon="1.70812">
        <ele>1598.8098145</ele>
        <time>2011-07-03T08:32:12Z</time>
      </trkpt>
      <trkpt lat="42.66335" lon="1.70801">
        <ele>1598.8098145</ele>
        <time>2011-07-03T08:32:32Z</time>
      </trkpt>
      <trkpt lat="42.66313" lon="1.70792">
        <ele>1599.2905273</ele>
        <time>2011-07-03T08:32:51Z</time>
      </trkpt>
      <trkpt lat="42.66284" lon="1.70795">
        <ele>1599.7712402</ele>
        <time>2011-07-03T08:33:15Z</time>
      </trkpt>
      <trkpt lat="42.66252" lon="1.70792">
        <ele>1599.7712402</ele>
        <time>2011-07-03T08:33:39Z</time>
      </trkpt>
      <trkpt lat="42.66232" lon="1.70776">
        <ele>1599.2905273</ele>
        <time>2011-07-03T08:34:02Z</time>
      </trkpt>
      <trkpt lat="42.6621" lon="1.7076">
        <ele>1598.3291016</ele>
        <time>2011-07-03T08:34:25Z</time>
      </trkpt>
      <trkpt lat="42.66186" lon="1.7074">
        <ele>1596.887207</ele>
        <time>2011-07-03T08:34:47Z</time>
      </trkpt>
      <trkpt lat="42.66159" lon="1.70729">
        <ele>1597.3679199</ele>
        <time>2011-07-03T08:35:13Z</time>
      </trkpt>
      <trkpt lat="42.66128" lon="1.70716">
        <ele>1598.8098145</ele>
        <time>2011-07-03T08:35:42Z</time>
      </trkpt>
      <trkpt lat="42.66104" lon="1.70711">
        <ele>1601.6938477</ele>
        <time>2011-07-03T08:36:02Z</time>
      </trkpt>
      <trkpt lat="42.6608" lon="1.70696">
        <ele>1603.6164551</ele>
        <time>2011-07-03T08:36:20Z</time>
      </trkpt>
      <trkpt lat="42.66079" lon="1.70695">
        <ele>1603.6164551</ele>
        <time>2011-07-03T08:36:21Z</time>
      </trkpt>
      <trkpt lat="42.66067" lon="1.70697">
        <ele>1605.5390625</ele>
        <time>2011-07-03T08:36:34Z</time>
      </trkpt>
      <trkpt lat="42.66049" lon="1.70694">
        <ele>1607.9423828</ele>
        <time>2011-07-03T08:36:51Z</time>
      </trkpt>
      <trkpt lat="42.66033" lon="1.70692">
        <ele>1608.4228516</ele>
        <time>2011-07-03T08:37:05Z</time>
      </trkpt>
      <trkpt lat="42.66009" lon="1.70691">
        <ele>1608.9035645</ele>
        <time>2011-07-03T08:37:23Z</time>
      </trkpt>
      <trkpt lat="42.65991" lon="1.70697">
        <ele>1610.8261719</ele>
        <time>2011-07-03T08:37:41Z</time>
      </trkpt>
      <trkpt lat="42.65982" lon="1.70699">
        <ele>1611.7875977</ele>
        <time>2011-07-03T08:37:49Z</time>
      </trkpt>
      <trkpt lat="42.65971" lon="1.70694">
        <ele>1612.7490234</ele>
        <time>2011-07-03T08:37:57Z</time>
      </trkpt>
      <trkpt lat="42.65957" lon="1.7069">
        <ele>1614.190918</ele>
        <time>2011-07-03T08:38:10Z</time>
      </trkpt>
      <trkpt lat="42.65947" lon="1.70692">
        <ele>1615.1523438</ele>
        <time>2011-07-03T08:38:23Z</time>
      </trkpt>
      <trkpt lat="42.65928" lon="1.7069">
        <ele>1617.0749512</ele>
        <time>2011-07-03T08:38:40Z</time>
      </trkpt>
      <trkpt lat="42.65907" lon="1.7069">
        <ele>1619.9587402</ele>
        <time>2011-07-03T08:38:59Z</time>
      </trkpt>
      <trkpt lat="42.65895" lon="1.70686">
        <ele>1620.920166</ele>
        <time>2011-07-03T08:39:07Z</time>
      </trkpt>
      <trkpt lat="42.65886" lon="1.70685">
        <ele>1621.4006348</ele>
        <time>2011-07-03T08:39:18Z</time>
      </trkpt>
      <trkpt lat="42.65878" lon="1.70689">
        <ele>1622.8427734</ele>
        <time>2011-07-03T08:39:31Z</time>
      </trkpt>
      <trkpt lat="42.65859" lon="1.70686">
        <ele>1625.2458496</ele>
        <time>2011-07-03T08:39:49Z</time>
      </trkpt>
      <trkpt lat="42.65853" lon="1.70687">
        <ele>1625.7265625</ele>
        <time>2011-07-03T08:39:55Z</time>
      </trkpt>
      <trkpt lat="42.65829" lon="1.70689">
        <ele>1628.6108398</ele>
        <time>2011-07-03T08:40:17Z</time>
      </trkpt>
      <trkpt lat="42.65824" lon="1.7069">
        <ele>1628.6108398</ele>
        <time>2011-07-03T08:40:21Z</time>
      </trkpt>
      <trkpt lat="42.65804" lon="1.70686">
        <ele>1630.0527344</ele>
        <time>2011-07-03T08:40:37Z</time>
      </trkpt>
      <trkpt lat="42.6578" lon="1.70682">
        <ele>1631.4946289</ele>
        <time>2011-07-03T08:40:57Z</time>
      </trkpt>
      <trkpt lat="42.65757" lon="1.70683">
        <ele>1632.9365234</ele>
        <time>2011-07-03T08:41:21Z</time>
      </trkpt>
      <trkpt lat="42.65726" lon="1.70683">
        <ele>1635.8205566</ele>
        <time>2011-07-03T08:41:46Z</time>
      </trkpt>
      <trkpt lat="42.65708" lon="1.70678">
        <ele>1639.1850586</ele>
        <time>2011-07-03T08:42:08Z</time>
      </trkpt>
      <trkpt lat="42.65682" lon="1.70674">
        <ele>1641.5883789</ele>
        <time>2011-07-03T08:42:30Z</time>
      </trkpt>
      <trkpt lat="42.65664" lon="1.70667">
        <ele>1643.9916992</ele>
        <time>2011-07-03T08:42:53Z</time>
      </trkpt>
      <trkpt lat="42.65641" lon="1.7067">
        <ele>1645.4338379</ele>
        <time>2011-07-03T08:43:13Z</time>
      </trkpt>
      <trkpt lat="42.65617" lon="1.7067">
        <ele>1647.3564453</ele>
        <time>2011-07-03T08:43:33Z</time>
      </trkpt>
      <trkpt lat="42.65611" lon="1.7067">
        <ele>1648.317627</ele>
        <time>2011-07-03T08:43:45Z</time>
      </trkpt>
      <trkpt lat="42.65602" lon="1.70666">
        <ele>1649.7597656</ele>
        <time>2011-07-03T08:43:58Z</time>
      </trkpt>
      <trkpt lat="42.6559" lon="1.70656">
        <ele>1651.2016602</ele>
        <time>2011-07-03T08:44:11Z</time>
      </trkpt>
      <trkpt lat="42.65587" lon="1.70658">
        <ele>1651.2016602</ele>
        <time>2011-07-03T08:44:13Z</time>
      </trkpt>
      <trkpt lat="42.65581" lon="1.70655">
        <ele>1651.2016602</ele>
        <time>2011-07-03T08:44:17Z</time>
      </trkpt>
      <trkpt lat="42.65568" lon="1.70658">
        <ele>1653.1242676</ele>
        <time>2011-07-03T08:44:31Z</time>
      </trkpt>
      <trkpt lat="42.65558" lon="1.70653">
        <ele>1655.046875</ele>
        <time>2011-07-03T08:44:42Z</time>
      </trkpt>
      <trkpt lat="42.65553" lon="1.70651">
        <ele>1656.0080566</ele>
        <time>2011-07-03T08:44:49Z</time>
      </trkpt>
      <trkpt lat="42.65533" lon="1.70642">
        <ele>1657.9309082</ele>
        <time>2011-07-03T08:45:05Z</time>
      </trkpt>
      <trkpt lat="42.6553" lon="1.70637">
        <ele>1658.411377</ele>
        <time>2011-07-03T08:45:09Z</time>
      </trkpt>
      <trkpt lat="42.65522" lon="1.70637">
        <ele>1659.8532715</ele>
        <time>2011-07-03T08:45:18Z</time>
      </trkpt>
      <trkpt lat="42.6551" lon="1.70634">
        <ele>1660.8149414</ele>
        <time>2011-07-03T08:45:29Z</time>
      </trkpt>
      <trkpt lat="42.65504" lon="1.70638">
        <ele>1660.8149414</ele>
        <time>2011-07-03T08:45:34Z</time>
      </trkpt>
      <trkpt lat="42.65498" lon="1.70641">
        <ele>1661.7763672</ele>
        <time>2011-07-03T08:45:39Z</time>
      </trkpt>
      <trkpt lat="42.65484" lon="1.70647">
        <ele>1662.2568359</ele>
        <time>2011-07-03T08:45:52Z</time>
      </trkpt>
      <trkpt lat="42.65471" lon="1.70649">
        <ele>1662.2568359</ele>
        <time>2011-07-03T08:46:05Z</time>
      </trkpt>
      <trkpt lat="42.65458" lon="1.70643">
        <ele>1661.7763672</ele>
        <time>2011-07-03T08:46:22Z</time>
      </trkpt>
      <trkpt lat="42.65451" lon="1.70641">
        <ele>1662.2568359</ele>
        <time>2011-07-03T08:46:33Z</time>
      </trkpt>
      <trkpt lat="42.6544" lon="1.70628">
        <ele>1663.6987305</ele>
        <time>2011-07-03T08:46:45Z</time>
      </trkpt>
      <trkpt lat="42.65428" lon="1.70613">
        <ele>1664.6601563</ele>
        <time>2011-07-03T08:47:00Z</time>
      </trkpt>
      <trkpt lat="42.65422" lon="1.70604">
        <ele>1666.1020508</ele>
        <time>2011-07-03T08:47:11Z</time>
      </trkpt>
      <trkpt lat="42.65416" lon="1.70597">
        <ele>1666.5827637</ele>
        <time>2011-07-03T08:47:19Z</time>
      </trkpt>
      <trkpt lat="42.6541" lon="1.7059">
        <ele>1668.0246582</ele>
        <time>2011-07-03T08:47:29Z</time>
      </trkpt>
      <trkpt lat="42.65402" lon="1.70575">
        <ele>1669.4667969</ele>
        <time>2011-07-03T08:47:44Z</time>
      </trkpt>
      <trkpt lat="42.65391" lon="1.70566">
        <ele>1670.9086914</ele>
        <time>2011-07-03T08:47:56Z</time>
      </trkpt>
      <trkpt lat="42.65374" lon="1.7055">
        <ele>1673.3120117</ele>
        <time>2011-07-03T08:48:17Z</time>
      </trkpt>
      <trkpt lat="42.65368" lon="1.70547">
        <ele>1674.2731934</ele>
        <time>2011-07-03T08:48:23Z</time>
      </trkpt>
      <trkpt lat="42.65347" lon="1.70537">
        <ele>1677.6379395</ele>
        <time>2011-07-03T08:48:44Z</time>
      </trkpt>
      <trkpt lat="42.65328" lon="1.7053">
        <ele>1680.5219727</ele>
        <time>2011-07-03T08:49:04Z</time>
      </trkpt>
      <trkpt lat="42.65322" lon="1.70516">
        <ele>1681.9638672</ele>
        <time>2011-07-03T08:49:27Z</time>
      </trkpt>
      <trkpt lat="42.6533" lon="1.70474">
        <ele>1684.3671875</ele>
        <time>2011-07-03T08:50:06Z</time>
      </trkpt>
      <trkpt lat="42.65292" lon="1.70486">
        <ele>1686.7702637</ele>
        <time>2011-07-03T08:50:32Z</time>
      </trkpt>
      <trkpt lat="42.65271" lon="1.7047">
        <ele>1689.6542969</ele>
        <time>2011-07-03T08:50:55Z</time>
      </trkpt>
      <trkpt lat="42.65258" lon="1.70447">
        <ele>1692.0578613</ele>
        <time>2011-07-03T08:51:18Z</time>
      </trkpt>
      <trkpt lat="42.65242" lon="1.70431">
        <ele>1694.4609375</ele>
        <time>2011-07-03T08:51:37Z</time>
      </trkpt>
      <trkpt lat="42.65228" lon="1.70411">
        <ele>1695.9030762</ele>
        <time>2011-07-03T08:52:02Z</time>
      </trkpt>
      <trkpt lat="42.6521" lon="1.70395">
        <ele>1698.7868652</ele>
        <time>2011-07-03T08:52:22Z</time>
      </trkpt>
      <trkpt lat="42.65189" lon="1.70386">
        <ele>1700.2290039</ele>
        <time>2011-07-03T08:52:46Z</time>
      </trkpt>
      <trkpt lat="42.65168" lon="1.70365">
        <ele>1700.7094727</ele>
        <time>2011-07-03T08:53:09Z</time>
      </trkpt>
      <trkpt lat="42.65153" lon="1.70354">
        <ele>1702.6320801</ele>
        <time>2011-07-03T08:53:29Z</time>
      </trkpt>
      <trkpt lat="42.65134" lon="1.70346">
        <ele>1703.5935059</ele>
        <time>2011-07-03T08:53:49Z</time>
      </trkpt>
      <trkpt lat="42.65131" lon="1.70346">
        <ele>1703.112793</ele>
        <time>2011-07-03T08:53:52Z</time>
      </trkpt>
      <trkpt lat="42.65103" lon="1.70346">
        <ele>1704.5546875</ele>
        <time>2011-07-03T08:54:16Z</time>
      </trkpt>
      <trkpt lat="42.6508" lon="1.70347">
        <ele>1705.5161133</ele>
        <time>2011-07-03T08:54:37Z</time>
      </trkpt>
      <trkpt lat="42.65053" lon="1.7035">
        <ele>1704.5546875</ele>
        <time>2011-07-03T08:54:59Z</time>
      </trkpt>
      <trkpt lat="42.65048" lon="1.70351">
        <ele>1705.5161133</ele>
        <time>2011-07-03T08:55:04Z</time>
      </trkpt>
      <trkpt lat="42.65024" lon="1.70351">
        <ele>1706.4772949</ele>
        <time>2011-07-03T08:55:24Z</time>
      </trkpt>
      <trkpt lat="42.65019" lon="1.70351">
        <ele>1705.0354004</ele>
        <time>2011-07-03T08:55:47Z</time>
      </trkpt>
      <trkpt lat="42.64998" lon="1.70351">
        <ele>1705.996582</ele>
        <time>2011-07-03T08:56:10Z</time>
      </trkpt>
      <trkpt lat="42.64977" lon="1.7035">
        <ele>1706.4772949</ele>
        <time>2011-07-03T08:56:32Z</time>
      </trkpt>
      <trkpt lat="42.64957" lon="1.70344">
        <ele>1707.9194336</ele>
        <time>2011-07-03T08:56:50Z</time>
      </trkpt>
      <trkpt lat="42.64935" lon="1.70346">
        <ele>1707.9194336</ele>
        <time>2011-07-03T08:57:09Z</time>
      </trkpt>
      <trkpt lat="42.64929" lon="1.70353">
        <ele>1708.8808594</ele>
        <time>2011-07-03T08:57:24Z</time>
      </trkpt>
      <trkpt lat="42.64917" lon="1.70361">
        <ele>1709.842041</ele>
        <time>2011-07-03T08:57:43Z</time>
      </trkpt>
      <trkpt lat="42.64902" lon="1.70356">
        <ele>1710.8034668</ele>
        <time>2011-07-03T08:57:56Z</time>
      </trkpt>
      <trkpt lat="42.64882" lon="1.7036">
        <ele>1710.3227539</ele>
        <time>2011-07-03T08:58:18Z</time>
      </trkpt>
      <trkpt lat="42.64856" lon="1.70361">
        <ele>1709.3615723</ele>
        <time>2011-07-03T08:58:41Z</time>
      </trkpt>
      <trkpt lat="42.64844" lon="1.70358">
        <ele>1709.842041</ele>
        <time>2011-07-03T08:58:51Z</time>
      </trkpt>
      <trkpt lat="42.64826" lon="1.70363">
        <ele>1709.842041</ele>
        <time>2011-07-03T08:59:15Z</time>
      </trkpt>
      <trkpt lat="42.64812" lon="1.70367">
        <ele>1710.8034668</ele>
        <time>2011-07-03T08:59:35Z</time>
      </trkpt>
      <trkpt lat="42.64797" lon="1.7036">
        <ele>1711.2841797</ele>
        <time>2011-07-03T09:00:05Z</time>
      </trkpt>
      <trkpt lat="42.64782" lon="1.70345">
        <ele>1711.7648926</ele>
        <time>2011-07-03T09:00:26Z</time>
      </trkpt>
      <trkpt lat="42.64772" lon="1.70345">
        <ele>1711.7648926</ele>
        <time>2011-07-03T09:00:42Z</time>
      </trkpt>
      <trkpt lat="42.64762" lon="1.70342">
        <ele>1712.2453613</ele>
        <time>2011-07-03T09:00:56Z</time>
      </trkpt>
      <trkpt lat="42.64743" lon="1.70334">
        <ele>1714.6486816</ele>
        <time>2011-07-03T09:01:19Z</time>
      </trkpt>
      <trkpt lat="42.64727" lon="1.70332">
        <ele>1714.6486816</ele>
        <time>2011-07-03T09:01:40Z</time>
      </trkpt>
      <trkpt lat="42.64723" lon="1.7033">
        <ele>1714.6486816</ele>
        <time>2011-07-03T09:01:48Z</time>
      </trkpt>
      <trkpt lat="42.64707" lon="1.70328">
        <ele>1716.0905762</ele>
        <time>2011-07-03T09:02:06Z</time>
      </trkpt>
      <trkpt lat="42.64695" lon="1.70319">
        <ele>1718.9746094</ele>
        <time>2011-07-03T09:02:21Z</time>
      </trkpt>
      <trkpt lat="42.64685" lon="1.70314">
        <ele>1720.4165039</ele>
        <time>2011-07-03T09:02:37Z</time>
      </trkpt>
      <trkpt lat="42.64674" lon="1.70301">
        <ele>1721.8583984</ele>
        <time>2011-07-03T09:02:58Z</time>
      </trkpt>
      <trkpt lat="42.64673" lon="1.70299">
        <ele>1721.8583984</ele>
        <time>2011-07-03T09:02:59Z</time>
      </trkpt>
      <trkpt lat="42.64664" lon="1.7029">
        <ele>1725.2231445</ele>
        <time>2011-07-03T09:03:18Z</time>
      </trkpt>
      <trkpt lat="42.64652" lon="1.70285">
        <ele>1726.6652832</ele>
        <time>2011-07-03T09:03:34Z</time>
      </trkpt>
      <trkpt lat="42.64635" lon="1.70278">
        <ele>1726.6652832</ele>
        <time>2011-07-03T09:03:51Z</time>
      </trkpt>
      <trkpt lat="42.6462" lon="1.7027">
        <ele>1726.6652832</ele>
        <time>2011-07-03T09:04:08Z</time>
      </trkpt>
      <trkpt lat="42.6461" lon="1.7027">
        <ele>1727.1459961</ele>
        <time>2011-07-03T09:04:23Z</time>
      </trkpt>
      <trkpt lat="42.64592" lon="1.70269">
        <ele>1727.1459961</ele>
        <time>2011-07-03T09:04:39Z</time>
      </trkpt>
      <trkpt lat="42.64589" lon="1.7027">
        <ele>1727.1459961</ele>
        <time>2011-07-03T09:04:42Z</time>
      </trkpt>
      <trkpt lat="42.64583" lon="1.70273">
        <ele>1727.1459961</ele>
        <time>2011-07-03T09:04:48Z</time>
      </trkpt>
      <trkpt lat="42.64569" lon="1.70269">
        <ele>1727.1459961</ele>
        <time>2011-07-03T09:05:03Z</time>
      </trkpt>
      <trkpt lat="42.64557" lon="1.70268">
        <ele>1724.7426758</ele>
        <time>2011-07-03T09:05:21Z</time>
      </trkpt>
      <trkpt lat="42.64544" lon="1.70264">
        <ele>1724.2619629</ele>
        <time>2011-07-03T09:05:35Z</time>
      </trkpt>
      <trkpt lat="42.64536" lon="1.70264">
        <ele>1723.3005371</ele>
        <time>2011-07-03T09:05:52Z</time>
      </trkpt>
      <trkpt lat="42.64526" lon="1.70263">
        <ele>1724.2619629</ele>
        <time>2011-07-03T09:06:07Z</time>
      </trkpt>
      <trkpt lat="42.64511" lon="1.70261">
        <ele>1723.3005371</ele>
        <time>2011-07-03T09:06:24Z</time>
      </trkpt>
      <trkpt lat="42.645" lon="1.70255">
        <ele>1722.8198242</ele>
        <time>2011-07-03T09:06:40Z</time>
      </trkpt>
      <trkpt lat="42.6449" lon="1.7026">
        <ele>1724.2619629</ele>
        <time>2011-07-03T09:06:52Z</time>
      </trkpt>
      <trkpt lat="42.64474" lon="1.70254">
        <ele>1725.7038574</ele>
        <time>2011-07-03T09:07:11Z</time>
      </trkpt>
      <trkpt lat="42.64461" lon="1.70258">
        <ele>1726.1845703</ele>
        <time>2011-07-03T09:07:24Z</time>
      </trkpt>
      <trkpt lat="42.64445" lon="1.70263">
        <ele>1726.6652832</ele>
        <time>2011-07-03T09:07:38Z</time>
      </trkpt>
      <trkpt lat="42.64441" lon="1.70266">
        <ele>1727.1459961</ele>
        <time>2011-07-03T09:07:42Z</time>
      </trkpt>
      <trkpt lat="42.64428" lon="1.7027">
        <ele>1727.6264648</ele>
        <time>2011-07-03T09:07:56Z</time>
      </trkpt>
      <trkpt lat="42.64414" lon="1.70275">
        <ele>1727.6264648</ele>
        <time>2011-07-03T09:08:10Z</time>
      </trkpt>
      <trkpt lat="42.644" lon="1.70267">
        <ele>1728.1071777</ele>
        <time>2011-07-03T09:08:25Z</time>
      </trkpt>
      <trkpt lat="42.64385" lon="1.70273">
        <ele>1729.5490723</ele>
        <time>2011-07-03T09:08:45Z</time>
      </trkpt>
      <trkpt lat="42.64367" lon="1.70279">
        <ele>1732.4331055</ele>
        <time>2011-07-03T09:09:03Z</time>
      </trkpt>
      <trkpt lat="42.64352" lon="1.70284">
        <ele>1735.7976074</ele>
        <time>2011-07-03T09:09:18Z</time>
      </trkpt>
      <trkpt lat="42.6434" lon="1.70291">
        <ele>1737.7202148</ele>
        <time>2011-07-03T09:09:35Z</time>
      </trkpt>
      <trkpt lat="42.64323" lon="1.703">
        <ele>1741.0849609</ele>
        <time>2011-07-03T09:09:54Z</time>
      </trkpt>
      <trkpt lat="42.64317" lon="1.70304">
        <ele>1741.5656738</ele>
        <time>2011-07-03T09:10:01Z</time>
      </trkpt>
      <trkpt lat="42.64305" lon="1.70316">
        <ele>1743.9689941</ele>
        <time>2011-07-03T09:10:18Z</time>
      </trkpt>
      <trkpt lat="42.64304" lon="1.70316">
        <ele>1744.4494629</ele>
        <time>2011-07-03T09:10:20Z</time>
      </trkpt>
      <trkpt lat="42.643" lon="1.70314">
        <ele>1744.9301758</ele>
        <time>2011-07-03T09:10:27Z</time>
      </trkpt>
      <trkpt lat="42.64291" lon="1.70314">
        <ele>1745.4108887</ele>
        <time>2011-07-03T09:10:40Z</time>
      </trkpt>
      <trkpt lat="42.64278" lon="1.70317">
        <ele>1748.7753906</ele>
        <time>2011-07-03T09:10:57Z</time>
      </trkpt>
      <trkpt lat="42.64263" lon="1.70317">
        <ele>1749.7368164</ele>
        <time>2011-07-03T09:11:14Z</time>
      </trkpt>
      <trkpt lat="42.64258" lon="1.70318">
        <ele>1750.697998</ele>
        <time>2011-07-03T09:11:19Z</time>
      </trkpt>
      <trkpt lat="42.64245" lon="1.70331">
        <ele>1754.0627441</ele>
        <time>2011-07-03T09:11:37Z</time>
      </trkpt>
      <trkpt lat="42.64228" lon="1.70341">
        <ele>1757.4274902</ele>
        <time>2011-07-03T09:11:56Z</time>
      </trkpt>
      <trkpt lat="42.64218" lon="1.70356">
        <ele>1758.8693848</ele>
        <time>2011-07-03T09:12:13Z</time>
      </trkpt>
      <trkpt lat="42.64213" lon="1.70365">
        <ele>1762.2338867</ele>
        <time>2011-07-03T09:12:26Z</time>
      </trkpt>
      <trkpt lat="42.64201" lon="1.70379">
        <ele>1765.5986328</ele>
        <time>2011-07-03T09:12:43Z</time>
      </trkpt>
      <trkpt lat="42.64187" lon="1.70393">
        <ele>1768.9631348</ele>
        <time>2011-07-03T09:13:00Z</time>
      </trkpt>
      <trkpt lat="42.6418" lon="1.70407">
        <ele>1772.3278809</ele>
        <time>2011-07-03T09:13:16Z</time>
      </trkpt>
      <trkpt lat="42.64171" lon="1.70418">
        <ele>1775.2116699</ele>
        <time>2011-07-03T09:13:32Z</time>
      </trkpt>
      <trkpt lat="42.64169" lon="1.70435">
        <ele>1778.576416</ele>
        <time>2011-07-03T09:13:47Z</time>
      </trkpt>
      <trkpt lat="42.64165" lon="1.70442">
        <ele>1781.4602051</ele>
        <time>2011-07-03T09:14:02Z</time>
      </trkpt>
      <trkpt lat="42.64162" lon="1.70451">
        <ele>1783.8635254</ele>
        <time>2011-07-03T09:14:21Z</time>
      </trkpt>
      <trkpt lat="42.6415" lon="1.7047">
        <ele>1785.3054199</ele>
        <time>2011-07-03T09:14:41Z</time>
      </trkpt>
      <trkpt lat="42.64145" lon="1.7048">
        <ele>1788.1896973</ele>
        <time>2011-07-03T09:14:53Z</time>
      </trkpt>
      <trkpt lat="42.64138" lon="1.70484">
        <ele>1790.1123047</ele>
        <time>2011-07-03T09:15:10Z</time>
      </trkpt>
      <trkpt lat="42.64127" lon="1.70499">
        <ele>1792.515625</ele>
        <time>2011-07-03T09:15:27Z</time>
      </trkpt>
      <trkpt lat="42.6412" lon="1.70506">
        <ele>1795.880127</ele>
        <time>2011-07-03T09:15:42Z</time>
      </trkpt>
      <trkpt lat="42.6412" lon="1.70507">
        <ele>1797.3220215</ele>
        <time>2011-07-03T09:15:45Z</time>
      </trkpt>
      <trkpt lat="42.64122" lon="1.70513">
        <ele>1800.2060547</ele>
        <time>2011-07-03T09:16:02Z</time>
      </trkpt>
      <trkpt lat="42.64113" lon="1.70521">
        <ele>1802.6091309</ele>
        <time>2011-07-03T09:16:19Z</time>
      </trkpt>
      <trkpt lat="42.64103" lon="1.70533">
        <ele>1804.0515137</ele>
        <time>2011-07-03T09:16:38Z</time>
      </trkpt>
      <trkpt lat="42.64101" lon="1.70534">
        <ele>1805.4934082</ele>
        <time>2011-07-03T09:16:40Z</time>
      </trkpt>
      <trkpt lat="42.64097" lon="1.70546">
        <ele>1806.9353027</ele>
        <time>2011-07-03T09:16:54Z</time>
      </trkpt>
      <trkpt lat="42.64101" lon="1.7056">
        <ele>1809.8190918</ele>
        <time>2011-07-03T09:17:09Z</time>
      </trkpt>
      <trkpt lat="42.64097" lon="1.70572">
        <ele>1812.703125</ele>
        <time>2011-07-03T09:17:24Z</time>
      </trkpt>
      <trkpt lat="42.64088" lon="1.70584">
        <ele>1814.6257324</ele>
        <time>2011-07-03T09:17:42Z</time>
      </trkpt>
      <trkpt lat="42.64092" lon="1.70588">
        <ele>1817.0290527</ele>
        <time>2011-07-03T09:17:51Z</time>
      </trkpt>
      <trkpt lat="42.64091" lon="1.70597">
        <ele>1818.9516602</ele>
        <time>2011-07-03T09:18:08Z</time>
      </trkpt>
      <trkpt lat="42.64096" lon="1.70607">
        <ele>1822.3164063</ele>
        <time>2011-07-03T09:18:23Z</time>
      </trkpt>
      <trkpt lat="42.64095" lon="1.70617">
        <ele>1823.277832</ele>
        <time>2011-07-03T09:18:39Z</time>
      </trkpt>
      <trkpt lat="42.64097" lon="1.70625">
        <ele>1824.7197266</ele>
        <time>2011-07-03T09:18:58Z</time>
      </trkpt>
      <trkpt lat="42.64093" lon="1.70627">
        <ele>1825.6809082</ele>
        <time>2011-07-03T09:19:25Z</time>
      </trkpt>
      <trkpt lat="42.64096" lon="1.70626">
        <ele>1825.6809082</ele>
        <time>2011-07-03T09:20:33Z</time>
      </trkpt>
      <trkpt lat="42.64092" lon="1.70629">
        <ele>1825.6809082</ele>
        <time>2011-07-03T09:20:52Z</time>
      </trkpt>
      <trkpt lat="42.64089" lon="1.70628">
        <ele>1825.2001953</ele>
        <time>2011-07-03T09:21:17Z</time>
      </trkpt>
      <trkpt lat="42.64091" lon="1.70639">
        <ele>1827.6035156</ele>
        <time>2011-07-03T09:23:20Z</time>
      </trkpt>
      <trkpt lat="42.64089" lon="1.70651">
        <ele>1830.0068359</ele>
        <time>2011-07-03T09:23:35Z</time>
      </trkpt>
      <trkpt lat="42.64087" lon="1.70659">
        <ele>1831.9294434</ele>
        <time>2011-07-03T09:23:47Z</time>
      </trkpt>
      <trkpt lat="42.64084" lon="1.70671">
        <ele>1833.3713379</ele>
        <time>2011-07-03T09:23:58Z</time>
      </trkpt>
      <trkpt lat="42.6408" lon="1.70675">
        <ele>1832.890625</ele>
        <time>2011-07-03T09:24:03Z</time>
      </trkpt>
      <trkpt lat="42.64082" lon="1.7069">
        <ele>1835.2939453</ele>
        <time>2011-07-03T09:24:17Z</time>
      </trkpt>
      <trkpt lat="42.64082" lon="1.70692">
        <ele>1835.2939453</ele>
        <time>2011-07-03T09:24:20Z</time>
      </trkpt>
      <trkpt lat="42.6408" lon="1.70703">
        <ele>1836.736084</ele>
        <time>2011-07-03T09:24:29Z</time>
      </trkpt>
      <trkpt lat="42.64076" lon="1.70706">
        <ele>1837.2167969</ele>
        <time>2011-07-03T09:24:35Z</time>
      </trkpt>
      <trkpt lat="42.64073" lon="1.70716">
        <ele>1839.1394043</ele>
        <time>2011-07-03T09:24:46Z</time>
      </trkpt>
      <trkpt lat="42.64072" lon="1.70719">
        <ele>1841.0620117</ele>
        <time>2011-07-03T09:24:57Z</time>
      </trkpt>
      <trkpt lat="42.64069" lon="1.70727">
        <ele>1842.5041504</ele>
        <time>2011-07-03T09:25:05Z</time>
      </trkpt>
      <trkpt lat="42.64063" lon="1.70736">
        <ele>1843.9460449</ele>
        <time>2011-07-03T09:25:17Z</time>
      </trkpt>
      <trkpt lat="42.6406" lon="1.7074">
        <ele>1842.9846191</ele>
        <time>2011-07-03T09:25:34Z</time>
      </trkpt>
      <trkpt lat="42.64049" lon="1.70757">
        <ele>1843.9460449</ele>
        <time>2011-07-03T09:25:47Z</time>
      </trkpt>
      <trkpt lat="42.64049" lon="1.70761">
        <ele>1844.4265137</ele>
        <time>2011-07-03T09:25:50Z</time>
      </trkpt>
      <trkpt lat="42.64045" lon="1.70767">
        <ele>1844.4265137</ele>
        <time>2011-07-03T09:25:55Z</time>
      </trkpt>
      <trkpt lat="42.64034" lon="1.70779">
        <ele>1844.9072266</ele>
        <time>2011-07-03T09:26:10Z</time>
      </trkpt>
      <trkpt lat="42.64028" lon="1.70787">
        <ele>1844.4265137</ele>
        <time>2011-07-03T09:26:21Z</time>
      </trkpt>
      <trkpt lat="42.64026" lon="1.70792">
        <ele>1845.8686523</ele>
        <time>2011-07-03T09:26:28Z</time>
      </trkpt>
      <trkpt lat="42.64025" lon="1.70794">
        <ele>1847.7912598</ele>
        <time>2011-07-03T09:26:32Z</time>
      </trkpt>
      <trkpt lat="42.64026" lon="1.70797">
        <ele>1847.7912598</ele>
        <time>2011-07-03T09:26:34Z</time>
      </trkpt>
      <trkpt lat="42.64022" lon="1.70801">
        <ele>1848.2717285</ele>
        <time>2011-07-03T09:26:42Z</time>
      </trkpt>
      <trkpt lat="42.64012" lon="1.70809">
        <ele>1849.2331543</ele>
        <time>2011-07-03T09:26:52Z</time>
      </trkpt>
      <trkpt lat="42.6401" lon="1.7081">
        <ele>1849.7138672</ele>
        <time>2011-07-03T09:26:54Z</time>
      </trkpt>
      <trkpt lat="42.64007" lon="1.70816">
        <ele>1850.6750488</ele>
        <time>2011-07-03T09:27:02Z</time>
      </trkpt>
      <trkpt lat="42.64003" lon="1.70827">
        <ele>1852.1171875</ele>
        <time>2011-07-03T09:27:17Z</time>
      </trkpt>
      <trkpt lat="42.64002" lon="1.70833">
        <ele>1854.0400391</ele>
        <time>2011-07-03T09:27:23Z</time>
      </trkpt>
      <trkpt lat="42.64" lon="1.70843">
        <ele>1855.0012207</ele>
        <time>2011-07-03T09:27:35Z</time>
      </trkpt>
      <trkpt lat="42.63997" lon="1.70854">
        <ele>1856.9238281</ele>
        <time>2011-07-03T09:27:48Z</time>
      </trkpt>
      <trkpt lat="42.63997" lon="1.7086">
        <ele>1857.8852539</ele>
        <time>2011-07-03T09:27:54Z</time>
      </trkpt>
      <trkpt lat="42.63992" lon="1.7087">
        <ele>1857.8852539</ele>
        <time>2011-07-03T09:28:06Z</time>
      </trkpt>
      <trkpt lat="42.63988" lon="1.70875">
        <ele>1858.3657227</ele>
        <time>2011-07-03T09:28:11Z</time>
      </trkpt>
      <trkpt lat="42.63988" lon="1.70889">
        <ele>1860.769043</ele>
        <time>2011-07-03T09:28:24Z</time>
      </trkpt>
      <trkpt lat="42.63986" lon="1.70897">
        <ele>1861.7304688</ele>
        <time>2011-07-03T09:28:30Z</time>
      </trkpt>
      <trkpt lat="42.63981" lon="1.7091">
        <ele>1863.652832</ele>
        <time>2011-07-03T09:28:43Z</time>
      </trkpt>
      <trkpt lat="42.63983" lon="1.70915">
        <ele>1864.1335449</ele>
        <time>2011-07-03T09:28:48Z</time>
      </trkpt>
      <trkpt lat="42.63985" lon="1.70921">
        <ele>1866.0561523</ele>
        <time>2011-07-03T09:28:54Z</time>
      </trkpt>
      <trkpt lat="42.63983" lon="1.70932">
        <ele>1867.0175781</ele>
        <time>2011-07-03T09:29:06Z</time>
      </trkpt>
      <trkpt lat="42.63986" lon="1.70944">
        <ele>1869.9016113</ele>
        <time>2011-07-03T09:29:19Z</time>
      </trkpt>
      <trkpt lat="42.63986" lon="1.70946">
        <ele>1869.4211426</ele>
        <time>2011-07-03T09:29:20Z</time>
      </trkpt>
      <trkpt lat="42.63988" lon="1.7095">
        <ele>1869.4211426</ele>
        <time>2011-07-03T09:29:23Z</time>
      </trkpt>
      <trkpt lat="42.63987" lon="1.70962">
        <ele>1870.8630371</ele>
        <time>2011-07-03T09:29:30Z</time>
      </trkpt>
      <trkpt lat="42.63988" lon="1.70963">
        <ele>1870.8630371</ele>
        <time>2011-07-03T09:29:32Z</time>
      </trkpt>
      <trkpt lat="42.63986" lon="1.70971">
        <ele>1870.8630371</ele>
        <time>2011-07-03T09:29:40Z</time>
      </trkpt>
      <trkpt lat="42.63986" lon="1.70973">
        <ele>1871.3435059</ele>
        <time>2011-07-03T09:29:43Z</time>
      </trkpt>
      <trkpt lat="42.63985" lon="1.70978">
        <ele>1871.8242188</ele>
        <time>2011-07-03T09:29:48Z</time>
      </trkpt>
      <trkpt lat="42.63987" lon="1.70985">
        <ele>1873.2663574</ele>
        <time>2011-07-03T09:29:54Z</time>
      </trkpt>
      <trkpt lat="42.63988" lon="1.70991">
        <ele>1873.2663574</ele>
        <time>2011-07-03T09:29:59Z</time>
      </trkpt>
      <trkpt lat="42.63991" lon="1.70993">
        <ele>1873.7468262</ele>
        <time>2011-07-03T09:30:02Z</time>
      </trkpt>
      <trkpt lat="42.6399" lon="1.70997">
        <ele>1875.1887207</ele>
        <time>2011-07-03T09:30:05Z</time>
      </trkpt>
      <trkpt lat="42.6399" lon="1.71009">
        <ele>1876.1501465</ele>
        <time>2011-07-03T09:30:18Z</time>
      </trkpt>
      <trkpt lat="42.63987" lon="1.71023">
        <ele>1877.1115723</ele>
        <time>2011-07-03T09:30:33Z</time>
      </trkpt>
      <trkpt lat="42.63987" lon="1.71034">
        <ele>1880.4760742</ele>
        <time>2011-07-03T09:30:44Z</time>
      </trkpt>
      <trkpt lat="42.63986" lon="1.71049">
        <ele>1882.3986816</ele>
        <time>2011-07-03T09:30:58Z</time>
      </trkpt>
      <trkpt lat="42.63984" lon="1.71054">
        <ele>1881.4372559</ele>
        <time>2011-07-03T09:31:03Z</time>
      </trkpt>
      <trkpt lat="42.63982" lon="1.71066">
        <ele>1883.3598633</ele>
        <time>2011-07-03T09:31:13Z</time>
      </trkpt>
      <trkpt lat="42.63986" lon="1.71078">
        <ele>1884.3215332</ele>
        <time>2011-07-03T09:31:27Z</time>
      </trkpt>
      <trkpt lat="42.63986" lon="1.7108">
        <ele>1883.8405762</ele>
        <time>2011-07-03T09:31:29Z</time>
      </trkpt>
      <trkpt lat="42.6398" lon="1.71088">
        <ele>1884.3215332</ele>
        <time>2011-07-03T09:31:36Z</time>
      </trkpt>
      <trkpt lat="42.63981" lon="1.71095">
        <ele>1885.2827148</ele>
        <time>2011-07-03T09:31:41Z</time>
      </trkpt>
      <trkpt lat="42.63981" lon="1.71101">
        <ele>1884.3215332</ele>
        <time>2011-07-03T09:31:46Z</time>
      </trkpt>
      <trkpt lat="42.63982" lon="1.71117">
        <ele>1888.166748</ele>
        <time>2011-07-03T09:31:57Z</time>
      </trkpt>
      <trkpt lat="42.63981" lon="1.71123">
        <ele>1888.166748</ele>
        <time>2011-07-03T09:32:01Z</time>
      </trkpt>
      <trkpt lat="42.63985" lon="1.71138">
        <ele>1887.6860352</ele>
        <time>2011-07-03T09:32:14Z</time>
      </trkpt>
      <trkpt lat="42.63984" lon="1.71144">
        <ele>1888.6474609</ele>
        <time>2011-07-03T09:32:18Z</time>
      </trkpt>
      <trkpt lat="42.63986" lon="1.71155">
        <ele>1890.0893555</ele>
        <time>2011-07-03T09:32:30Z</time>
      </trkpt>
      <trkpt lat="42.63986" lon="1.71157">
        <ele>1889.6086426</ele>
        <time>2011-07-03T09:32:31Z</time>
      </trkpt>
      <trkpt lat="42.63985" lon="1.71172">
        <ele>1891.0505371</ele>
        <time>2011-07-03T09:32:44Z</time>
      </trkpt>
      <trkpt lat="42.63981" lon="1.71174">
        <ele>1890.0893555</ele>
        <time>2011-07-03T09:32:49Z</time>
      </trkpt>
      <trkpt lat="42.63976" lon="1.71177">
        <ele>1890.5698242</ele>
        <time>2011-07-03T09:33:04Z</time>
      </trkpt>
      <trkpt lat="42.63984" lon="1.71172">
        <ele>1891.0505371</ele>
        <time>2011-07-03T09:33:22Z</time>
      </trkpt>
      <trkpt lat="42.63979" lon="1.71175">
        <ele>1890.5698242</ele>
        <time>2011-07-03T09:33:38Z</time>
      </trkpt>
      <trkpt lat="42.63973" lon="1.71171">
        <ele>1890.0893555</ele>
        <time>2011-07-03T09:33:51Z</time>
      </trkpt>
      <trkpt lat="42.63971" lon="1.71171">
        <ele>1891.53125</ele>
        <time>2011-07-03T09:34:06Z</time>
      </trkpt>
      <trkpt lat="42.63969" lon="1.71165">
        <ele>1892.0119629</ele>
        <time>2011-07-03T09:34:19Z</time>
      </trkpt>
      <trkpt lat="42.63968" lon="1.71163">
        <ele>1892.0119629</ele>
        <time>2011-07-03T09:34:21Z</time>
      </trkpt>
      <trkpt lat="42.63964" lon="1.71149">
        <ele>1890.5698242</ele>
        <time>2011-07-03T09:34:38Z</time>
      </trkpt>
      <trkpt lat="42.63965" lon="1.71152">
        <ele>1889.6086426</ele>
        <time>2011-07-03T09:35:04Z</time>
      </trkpt>
      <trkpt lat="42.63968" lon="1.71156">
        <ele>1890.5698242</ele>
        <time>2011-07-03T09:36:00Z</time>
      </trkpt>
      <trkpt lat="42.63968" lon="1.71153">
        <ele>1890.0893555</ele>
        <time>2011-07-03T09:36:31Z</time>
      </trkpt>
      <trkpt lat="42.63967" lon="1.71159">
        <ele>1892.0119629</ele>
        <time>2011-07-03T09:40:17Z</time>
      </trkpt>
      <trkpt lat="42.63967" lon="1.7115">
        <ele>1891.0505371</ele>
        <time>2011-07-03T09:40:30Z</time>
      </trkpt>
      <trkpt lat="42.63965" lon="1.71154">
        <ele>1892.4926758</ele>
        <time>2011-07-03T09:40:57Z</time>
      </trkpt>
      <trkpt lat="42.63962" lon="1.71148">
        <ele>1891.0505371</ele>
        <time>2011-07-03T09:41:48Z</time>
      </trkpt>
      <trkpt lat="42.63955" lon="1.71143">
        <ele>1891.0505371</ele>
        <time>2011-07-03T09:41:57Z</time>
      </trkpt>
      <trkpt lat="42.63949" lon="1.71138">
        <ele>1890.5698242</ele>
        <time>2011-07-03T09:42:06Z</time>
      </trkpt>
      <trkpt lat="42.63945" lon="1.71135">
        <ele>1891.53125</ele>
        <time>2011-07-03T09:42:12Z</time>
      </trkpt>
      <trkpt lat="42.63941" lon="1.71135">
        <ele>1891.0505371</ele>
        <time>2011-07-03T09:42:17Z</time>
      </trkpt>
      <trkpt lat="42.63934" lon="1.71136">
        <ele>1891.53125</ele>
        <time>2011-07-03T09:42:25Z</time>
      </trkpt>
      <trkpt lat="42.63922" lon="1.7113">
        <ele>1893.4538574</ele>
        <time>2011-07-03T09:42:39Z</time>
      </trkpt>
      <trkpt lat="42.63919" lon="1.71123">
        <ele>1894.4150391</ele>
        <time>2011-07-03T09:42:46Z</time>
      </trkpt>
      <trkpt lat="42.63918" lon="1.71116">
        <ele>1893.4538574</ele>
        <time>2011-07-03T09:42:52Z</time>
      </trkpt>
      <trkpt lat="42.63916" lon="1.7111">
        <ele>1893.9345703</ele>
        <time>2011-07-03T09:43:02Z</time>
      </trkpt>
      <trkpt lat="42.63908" lon="1.71102">
        <ele>1894.895752</ele>
        <time>2011-07-03T09:43:15Z</time>
      </trkpt>
      <trkpt lat="42.63899" lon="1.71098">
        <ele>1895.3764648</ele>
        <time>2011-07-03T09:43:26Z</time>
      </trkpt>
      <trkpt lat="42.63896" lon="1.71097">
        <ele>1896.8183594</ele>
        <time>2011-07-03T09:43:32Z</time>
      </trkpt>
      <trkpt lat="42.63889" lon="1.7109">
        <ele>1895.8571777</ele>
        <time>2011-07-03T09:43:44Z</time>
      </trkpt>
      <trkpt lat="42.63883" lon="1.71086">
        <ele>1897.2990723</ele>
        <time>2011-07-03T09:43:57Z</time>
      </trkpt>
      <trkpt lat="42.63876" lon="1.71084">
        <ele>1898.2602539</ele>
        <time>2011-07-03T09:44:09Z</time>
      </trkpt>
      <trkpt lat="42.63875" lon="1.71082">
        <ele>1898.2602539</ele>
        <time>2011-07-03T09:44:13Z</time>
      </trkpt>
      <trkpt lat="42.63868" lon="1.71076">
        <ele>1899.2216797</ele>
        <time>2011-07-03T09:44:26Z</time>
      </trkpt>
      <trkpt lat="42.63865" lon="1.71075">
        <ele>1900.1833496</ele>
        <time>2011-07-03T09:44:30Z</time>
      </trkpt>
      <trkpt lat="42.63858" lon="1.71072">
        <ele>1903.0671387</ele>
        <time>2011-07-03T09:44:43Z</time>
      </trkpt>
      <trkpt lat="42.63853" lon="1.71073">
        <ele>1902.1057129</ele>
        <time>2011-07-03T09:44:52Z</time>
      </trkpt>
      <trkpt lat="42.63844" lon="1.71077">
        <ele>1901.1445313</ele>
        <time>2011-07-03T09:45:04Z</time>
      </trkpt>
      <trkpt lat="42.63839" lon="1.7107">
        <ele>1903.0671387</ele>
        <time>2011-07-03T09:45:16Z</time>
      </trkpt>
      <trkpt lat="42.63834" lon="1.71067">
        <ele>1905.9509277</ele>
        <time>2011-07-03T09:45:29Z</time>
      </trkpt>
      <trkpt lat="42.63832" lon="1.7106">
        <ele>1907.8737793</ele>
        <time>2011-07-03T09:45:40Z</time>
      </trkpt>
      <trkpt lat="42.63826" lon="1.71051">
        <ele>1909.3156738</ele>
        <time>2011-07-03T09:45:53Z</time>
      </trkpt>
      <trkpt lat="42.63822" lon="1.71042">
        <ele>1911.7189941</ele>
        <time>2011-07-03T09:46:06Z</time>
      </trkpt>
      <trkpt lat="42.63816" lon="1.71032">
        <ele>1914.1220703</ele>
        <time>2011-07-03T09:46:21Z</time>
      </trkpt>
      <trkpt lat="42.63811" lon="1.71029">
        <ele>1917.0063477</ele>
        <time>2011-07-03T09:46:33Z</time>
      </trkpt>
      <trkpt lat="42.63807" lon="1.7104">
        <ele>1919.409668</ele>
        <time>2011-07-03T09:46:47Z</time>
      </trkpt>
      <trkpt lat="42.63802" lon="1.71051">
        <ele>1921.3320313</ele>
        <time>2011-07-03T09:47:01Z</time>
      </trkpt>
      <trkpt lat="42.638" lon="1.71059">
        <ele>1923.7353516</ele>
        <time>2011-07-03T09:47:15Z</time>
      </trkpt>
      <trkpt lat="42.63798" lon="1.71064">
        <ele>1923.7353516</ele>
        <time>2011-07-03T09:47:21Z</time>
      </trkpt>
      <trkpt lat="42.63794" lon="1.71076">
        <ele>1928.0612793</ele>
        <time>2011-07-03T09:47:37Z</time>
      </trkpt>
      <trkpt lat="42.63788" lon="1.71083">
        <ele>1929.0224609</ele>
        <time>2011-07-03T09:47:51Z</time>
      </trkpt>
      <trkpt lat="42.63785" lon="1.71086">
        <ele>1930.9453125</ele>
        <time>2011-07-03T09:48:00Z</time>
      </trkpt>
      <trkpt lat="42.63782" lon="1.71093">
        <ele>1931.9064941</ele>
        <time>2011-07-03T09:48:08Z</time>
      </trkpt>
      <trkpt lat="42.63782" lon="1.71106">
        <ele>1934.7907715</ele>
        <time>2011-07-03T09:48:21Z</time>
      </trkpt>
      <trkpt lat="42.63781" lon="1.71112">
        <ele>1935.7519531</ele>
        <time>2011-07-03T09:48:30Z</time>
      </trkpt>
      <trkpt lat="42.63775" lon="1.71119">
        <ele>1937.6745605</ele>
        <time>2011-07-03T09:48:43Z</time>
      </trkpt>
      <trkpt lat="42.63768" lon="1.71125">
        <ele>1939.597168</ele>
        <time>2011-07-03T09:48:56Z</time>
      </trkpt>
      <trkpt lat="42.63763" lon="1.71133">
        <ele>1941.5197754</ele>
        <time>2011-07-03T09:49:11Z</time>
      </trkpt>
      <trkpt lat="42.63757" lon="1.71136">
        <ele>1943.9230957</ele>
        <time>2011-07-03T09:49:24Z</time>
      </trkpt>
      <trkpt lat="42.63752" lon="1.71139">
        <ele>1945.3649902</ele>
        <time>2011-07-03T09:49:31Z</time>
      </trkpt>
      <trkpt lat="42.6375" lon="1.71148">
        <ele>1948.2490234</ele>
        <time>2011-07-03T09:49:44Z</time>
      </trkpt>
      <trkpt lat="42.63749" lon="1.71147">
        <ele>1947.7683105</ele>
        <time>2011-07-03T09:49:49Z</time>
      </trkpt>
      <trkpt lat="42.63744" lon="1.71153">
        <ele>1950.171875</ele>
        <time>2011-07-03T09:49:57Z</time>
      </trkpt>
      <trkpt lat="42.63744" lon="1.71165">
        <ele>1952.5749512</ele>
        <time>2011-07-03T09:50:12Z</time>
      </trkpt>
      <trkpt lat="42.63741" lon="1.71168">
        <ele>1955.9394531</ele>
        <time>2011-07-03T09:50:23Z</time>
      </trkpt>
      <trkpt lat="42.63738" lon="1.71178">
        <ele>1958.3427734</ele>
        <time>2011-07-03T09:50:38Z</time>
      </trkpt>
      <trkpt lat="42.63734" lon="1.71181">
        <ele>1961.2268066</ele>
        <time>2011-07-03T09:50:50Z</time>
      </trkpt>
      <trkpt lat="42.63727" lon="1.71187">
        <ele>1962.6687012</ele>
        <time>2011-07-03T09:51:03Z</time>
      </trkpt>
      <trkpt lat="42.63725" lon="1.71189">
        <ele>1963.6298828</ele>
        <time>2011-07-03T09:51:07Z</time>
      </trkpt>
      <trkpt lat="42.63716" lon="1.71199">
        <ele>1965.5529785</ele>
        <time>2011-07-03T09:51:21Z</time>
      </trkpt>
      <trkpt lat="42.6371" lon="1.71204">
        <ele>1968.9174805</ele>
        <time>2011-07-03T09:51:34Z</time>
      </trkpt>
      <trkpt lat="42.63703" lon="1.71208">
        <ele>1969.8786621</ele>
        <time>2011-07-03T09:51:46Z</time>
      </trkpt>
      <trkpt lat="42.63698" lon="1.71213">
        <ele>1972.2819824</ele>
        <time>2011-07-03T09:51:58Z</time>
      </trkpt>
      <trkpt lat="42.63688" lon="1.71217">
        <ele>1974.2045898</ele>
        <time>2011-07-03T09:52:13Z</time>
      </trkpt>
      <trkpt lat="42.6368" lon="1.71217">
        <ele>1976.6079102</ele>
        <time>2011-07-03T09:52:27Z</time>
      </trkpt>
      <trkpt lat="42.63674" lon="1.71221">
        <ele>1978.5305176</ele>
        <time>2011-07-03T09:52:41Z</time>
      </trkpt>
      <trkpt lat="42.63667" lon="1.71225">
        <ele>1979.9724121</ele>
        <time>2011-07-03T09:52:54Z</time>
      </trkpt>
      <trkpt lat="42.63662" lon="1.71231">
        <ele>1983.3371582</ele>
        <time>2011-07-03T09:53:06Z</time>
      </trkpt>
      <trkpt lat="42.63655" lon="1.71237">
        <ele>1984.298584</ele>
        <time>2011-07-03T09:53:20Z</time>
      </trkpt>
      <trkpt lat="42.6365" lon="1.7124">
        <ele>1987.6630859</ele>
        <time>2011-07-03T09:53:32Z</time>
      </trkpt>
      <trkpt lat="42.63645" lon="1.71245">
        <ele>1989.5856934</ele>
        <time>2011-07-03T09:53:43Z</time>
      </trkpt>
      <trkpt lat="42.63641" lon="1.71249">
        <ele>1991.5083008</ele>
        <time>2011-07-03T09:53:56Z</time>
      </trkpt>
      <trkpt lat="42.63639" lon="1.7126">
        <ele>1994.3920898</ele>
        <time>2011-07-03T09:54:10Z</time>
      </trkpt>
      <trkpt lat="42.63635" lon="1.71266">
        <ele>1996.7956543</ele>
        <time>2011-07-03T09:54:22Z</time>
      </trkpt>
      <trkpt lat="42.63629" lon="1.71269">
        <ele>1999.1989746</ele>
        <time>2011-07-03T09:54:35Z</time>
      </trkpt>
      <trkpt lat="42.63625" lon="1.71277">
        <ele>2000.6408691</ele>
        <time>2011-07-03T09:54:47Z</time>
      </trkpt>
      <trkpt lat="42.63621" lon="1.71284">
        <ele>2004.0056152</ele>
        <time>2011-07-03T09:55:03Z</time>
      </trkpt>
      <trkpt lat="42.6362" lon="1.71287">
        <ele>2004.0056152</ele>
        <time>2011-07-03T09:55:06Z</time>
      </trkpt>
      <trkpt lat="42.63616" lon="1.71295">
        <ele>2006.8894043</ele>
        <time>2011-07-03T09:55:19Z</time>
      </trkpt>
      <trkpt lat="42.63615" lon="1.71303">
        <ele>2008.8120117</ele>
        <time>2011-07-03T09:55:31Z</time>
      </trkpt>
      <trkpt lat="42.63613" lon="1.71312">
        <ele>2011.215332</ele>
        <time>2011-07-03T09:55:44Z</time>
      </trkpt>
      <trkpt lat="42.63608" lon="1.71319">
        <ele>2013.1381836</ele>
        <time>2011-07-03T09:55:58Z</time>
      </trkpt>
      <trkpt lat="42.63607" lon="1.71328">
        <ele>2016.9833984</ele>
        <time>2011-07-03T09:56:10Z</time>
      </trkpt>
      <trkpt lat="42.63606" lon="1.71337">
        <ele>2019.3867188</ele>
        <time>2011-07-03T09:56:23Z</time>
      </trkpt>
      <trkpt lat="42.63601" lon="1.7134">
        <ele>2021.309082</ele>
        <time>2011-07-03T09:56:35Z</time>
      </trkpt>
      <trkpt lat="42.63597" lon="1.7135">
        <ele>2023.7124023</ele>
        <time>2011-07-03T09:56:48Z</time>
      </trkpt>
      <trkpt lat="42.6359" lon="1.71359">
        <ele>2026.1157227</ele>
        <time>2011-07-03T09:57:02Z</time>
      </trkpt>
      <trkpt lat="42.63585" lon="1.71364">
        <ele>2029.4804688</ele>
        <time>2011-07-03T09:57:15Z</time>
      </trkpt>
      <trkpt lat="42.63581" lon="1.71372">
        <ele>2032.364502</ele>
        <time>2011-07-03T09:57:32Z</time>
      </trkpt>
      <trkpt lat="42.63576" lon="1.71377">
        <ele>2034.7678223</ele>
        <time>2011-07-03T09:57:45Z</time>
      </trkpt>
      <trkpt lat="42.63571" lon="1.71385">
        <ele>2038.1323242</ele>
        <time>2011-07-03T09:57:58Z</time>
      </trkpt>
      <trkpt lat="42.63565" lon="1.71398">
        <ele>2041.4968262</ele>
        <time>2011-07-03T09:58:15Z</time>
      </trkpt>
      <trkpt lat="42.63555" lon="1.71407">
        <ele>2043.9001465</ele>
        <time>2011-07-03T09:58:31Z</time>
      </trkpt>
      <trkpt lat="42.63549" lon="1.71416">
        <ele>2046.7841797</ele>
        <time>2011-07-03T09:58:44Z</time>
      </trkpt>
      <trkpt lat="42.63539" lon="1.71425">
        <ele>2048.7067871</ele>
        <time>2011-07-03T09:59:01Z</time>
      </trkpt>
      <trkpt lat="42.63533" lon="1.71429">
        <ele>2052.0712891</ele>
        <time>2011-07-03T09:59:16Z</time>
      </trkpt>
      <trkpt lat="42.63525" lon="1.71429">
        <ele>2053.5134277</ele>
        <time>2011-07-03T09:59:28Z</time>
      </trkpt>
      <trkpt lat="42.63524" lon="1.71434">
        <ele>2056.3972168</ele>
        <time>2011-07-03T09:59:38Z</time>
      </trkpt>
      <trkpt lat="42.63519" lon="1.71438">
        <ele>2058.3198242</ele>
        <time>2011-07-03T09:59:51Z</time>
      </trkpt>
      <trkpt lat="42.63515" lon="1.71443">
        <ele>2061.6848145</ele>
        <time>2011-07-03T10:00:07Z</time>
      </trkpt>
      <trkpt lat="42.63511" lon="1.71444">
        <ele>2064.0878906</ele>
        <time>2011-07-03T10:00:20Z</time>
      </trkpt>
      <trkpt lat="42.63507" lon="1.71447">
        <ele>2067.4523926</ele>
        <time>2011-07-03T10:00:30Z</time>
      </trkpt>
      <trkpt lat="42.63502" lon="1.71449">
        <ele>2067.9331055</ele>
        <time>2011-07-03T10:00:43Z</time>
      </trkpt>
      <trkpt lat="42.635" lon="1.7145">
        <ele>2069.8557129</ele>
        <time>2011-07-03T10:00:50Z</time>
      </trkpt>
      <trkpt lat="42.63493" lon="1.71452">
        <ele>2072.2590332</ele>
        <time>2011-07-03T10:01:04Z</time>
      </trkpt>
      <trkpt lat="42.63487" lon="1.7146">
        <ele>2074.6623535</ele>
        <time>2011-07-03T10:01:17Z</time>
      </trkpt>
      <trkpt lat="42.63485" lon="1.71461">
        <ele>2075.1428223</ele>
        <time>2011-07-03T10:01:31Z</time>
      </trkpt>
      <trkpt lat="42.63482" lon="1.71461">
        <ele>2075.6235352</ele>
        <time>2011-07-03T10:01:46Z</time>
      </trkpt>
      <trkpt lat="42.63478" lon="1.71461">
        <ele>2076.5852051</ele>
        <time>2011-07-03T10:02:16Z</time>
      </trkpt>
      <trkpt lat="42.63476" lon="1.71462">
        <ele>2078.0270996</ele>
        <time>2011-07-03T10:02:18Z</time>
      </trkpt>
      <trkpt lat="42.63466" lon="1.71465">
        <ele>2078.0270996</ele>
        <time>2011-07-03T10:02:29Z</time>
      </trkpt>
      <trkpt lat="42.63454" lon="1.71467">
        <ele>2078.9882813</ele>
        <time>2011-07-03T10:02:43Z</time>
      </trkpt>
      <trkpt lat="42.63453" lon="1.71467">
        <ele>2079.4689941</ele>
        <time>2011-07-03T10:02:44Z</time>
      </trkpt>
      <trkpt lat="42.63443" lon="1.71472">
        <ele>2081.3916016</ele>
        <time>2011-07-03T10:02:58Z</time>
      </trkpt>
      <trkpt lat="42.63435" lon="1.7148">
        <ele>2081.8723145</ele>
        <time>2011-07-03T10:03:08Z</time>
      </trkpt>
      <trkpt lat="42.63432" lon="1.71483">
        <ele>2081.8723145</ele>
        <time>2011-07-03T10:03:12Z</time>
      </trkpt>
      <trkpt lat="42.6342" lon="1.71487">
        <ele>2084.7563477</ele>
        <time>2011-07-03T10:03:26Z</time>
      </trkpt>
      <trkpt lat="42.63409" lon="1.71491">
        <ele>2085.2368164</ele>
        <time>2011-07-03T10:03:40Z</time>
      </trkpt>
      <trkpt lat="42.634" lon="1.71493">
        <ele>2086.6787109</ele>
        <time>2011-07-03T10:03:52Z</time>
      </trkpt>
      <trkpt lat="42.63396" lon="1.7149">
        <ele>2086.6787109</ele>
        <time>2011-07-03T10:04:11Z</time>
      </trkpt>
      <trkpt lat="42.6339" lon="1.71486">
        <ele>2087.1594238</ele>
        <time>2011-07-03T10:05:01Z</time>
      </trkpt>
      <trkpt lat="42.63386" lon="1.71483">
        <ele>2086.6787109</ele>
        <time>2011-07-03T10:05:05Z</time>
      </trkpt>
      <trkpt lat="42.63375" lon="1.71478">
        <ele>2088.1208496</ele>
        <time>2011-07-03T10:05:17Z</time>
      </trkpt>
      <trkpt lat="42.6337" lon="1.71479">
        <ele>2088.6015625</ele>
        <time>2011-07-03T10:05:21Z</time>
      </trkpt>
      <trkpt lat="42.63369" lon="1.71481">
        <ele>2089.0820313</ele>
        <time>2011-07-03T10:05:23Z</time>
      </trkpt>
      <trkpt lat="42.63365" lon="1.71483">
        <ele>2090.5239258</ele>
        <time>2011-07-03T10:05:28Z</time>
      </trkpt>
      <trkpt lat="42.63357" lon="1.71486">
        <ele>2091.4853516</ele>
        <time>2011-07-03T10:05:36Z</time>
      </trkpt>
      <trkpt lat="42.63354" lon="1.71481">
        <ele>2091.9660645</ele>
        <time>2011-07-03T10:05:40Z</time>
      </trkpt>
      <trkpt lat="42.63347" lon="1.71484">
        <ele>2092.9274902</ele>
        <time>2011-07-03T10:05:53Z</time>
      </trkpt>
      <trkpt lat="42.63337" lon="1.71488">
        <ele>2095.8115234</ele>
        <time>2011-07-03T10:06:07Z</time>
      </trkpt>
      <trkpt lat="42.63335" lon="1.71489">
        <ele>2097.7341309</ele>
        <time>2011-07-03T10:06:10Z</time>
      </trkpt>
      <trkpt lat="42.6333" lon="1.71496">
        <ele>2100.1374512</ele>
        <time>2011-07-03T10:06:24Z</time>
      </trkpt>
      <trkpt lat="42.63329" lon="1.71496">
        <ele>2100.1374512</ele>
        <time>2011-07-03T10:06:25Z</time>
      </trkpt>
      <trkpt lat="42.63325" lon="1.71498">
        <ele>2102.0598145</ele>
        <time>2011-07-03T10:06:37Z</time>
      </trkpt>
      <trkpt lat="42.63321" lon="1.71494">
        <ele>2104.4631348</ele>
        <time>2011-07-03T10:06:55Z</time>
      </trkpt>
      <trkpt lat="42.6332" lon="1.7149">
        <ele>2106.3857422</ele>
        <time>2011-07-03T10:07:06Z</time>
      </trkpt>
      <trkpt lat="42.63317" lon="1.71488">
        <ele>2108.7893066</ele>
        <time>2011-07-03T10:07:21Z</time>
      </trkpt>
      <trkpt lat="42.63308" lon="1.71493">
        <ele>2111.6733398</ele>
        <time>2011-07-03T10:07:38Z</time>
      </trkpt>
      <trkpt lat="42.63299" lon="1.71495">
        <ele>2112.1538086</ele>
        <time>2011-07-03T10:07:51Z</time>
      </trkpt>
      <trkpt lat="42.63298" lon="1.71496">
        <ele>2112.6345215</ele>
        <time>2011-07-03T10:07:52Z</time>
      </trkpt>
      <trkpt lat="42.63288" lon="1.715">
        <ele>2114.5571289</ele>
        <time>2011-07-03T10:08:06Z</time>
      </trkpt>
      <trkpt lat="42.6328" lon="1.71496">
        <ele>2116.4797363</ele>
        <time>2011-07-03T10:08:22Z</time>
      </trkpt>
      <trkpt lat="42.63274" lon="1.71495">
        <ele>2119.3637695</ele>
        <time>2011-07-03T10:08:45Z</time>
      </trkpt>
      <trkpt lat="42.63261" lon="1.71498">
        <ele>2121.2861328</ele>
        <time>2011-07-03T10:09:01Z</time>
      </trkpt>
      <trkpt lat="42.63254" lon="1.71498">
        <ele>2124.1704102</ele>
        <time>2011-07-03T10:09:14Z</time>
      </trkpt>
      <trkpt lat="42.63243" lon="1.71497">
        <ele>2124.1704102</ele>
        <time>2011-07-03T10:09:25Z</time>
      </trkpt>
      <trkpt lat="42.63239" lon="1.71494">
        <ele>2125.6123047</ele>
        <time>2011-07-03T10:09:30Z</time>
      </trkpt>
      <trkpt lat="42.63237" lon="1.71494">
        <ele>2125.1315918</ele>
        <time>2011-07-03T10:09:32Z</time>
      </trkpt>
      <trkpt lat="42.63233" lon="1.7149">
        <ele>2127.5349121</ele>
        <time>2011-07-03T10:09:38Z</time>
      </trkpt>
      <trkpt lat="42.63225" lon="1.71488">
        <ele>2125.1315918</ele>
        <time>2011-07-03T10:09:48Z</time>
      </trkpt>
      <trkpt lat="42.63222" lon="1.71487">
        <ele>2127.5349121</ele>
        <time>2011-07-03T10:09:55Z</time>
      </trkpt>
      <trkpt lat="42.63218" lon="1.71486">
        <ele>2127.5349121</ele>
        <time>2011-07-03T10:10:11Z</time>
      </trkpt>
      <trkpt lat="42.63215" lon="1.71485">
        <ele>2127.5349121</ele>
        <time>2011-07-03T10:10:14Z</time>
      </trkpt>
      <trkpt lat="42.6321" lon="1.71478">
        <ele>2127.5349121</ele>
        <time>2011-07-03T10:10:19Z</time>
      </trkpt>
      <trkpt lat="42.63209" lon="1.71477">
        <ele>2128.9768066</ele>
        <time>2011-07-03T10:10:21Z</time>
      </trkpt>
      <trkpt lat="42.63201" lon="1.71474">
        <ele>2128.9768066</ele>
        <time>2011-07-03T10:10:26Z</time>
      </trkpt>
      <trkpt lat="42.63198" lon="1.71468">
        <ele>2129.9382324</ele>
        <time>2011-07-03T10:10:31Z</time>
      </trkpt>
      <trkpt lat="42.63195" lon="1.71464">
        <ele>2130.8996582</ele>
        <time>2011-07-03T10:10:35Z</time>
      </trkpt>
      <trkpt lat="42.63186" lon="1.71458">
        <ele>2131.8608398</ele>
        <time>2011-07-03T10:10:47Z</time>
      </trkpt>
      <trkpt lat="42.63186" lon="1.71457">
        <ele>2131.8608398</ele>
        <time>2011-07-03T10:10:48Z</time>
      </trkpt>
      <trkpt lat="42.63179" lon="1.71448">
        <ele>2133.3027344</ele>
        <time>2011-07-03T10:10:58Z</time>
      </trkpt>
      <trkpt lat="42.63175" lon="1.71444">
        <ele>2133.7834473</ele>
        <time>2011-07-03T10:11:04Z</time>
      </trkpt>
      <trkpt lat="42.6317" lon="1.7144">
        <ele>2134.744873</ele>
        <time>2011-07-03T10:11:09Z</time>
      </trkpt>
      <trkpt lat="42.6316" lon="1.71428">
        <ele>2136.1867676</ele>
        <time>2011-07-03T10:11:21Z</time>
      </trkpt>
      <trkpt lat="42.63158" lon="1.71426">
        <ele>2134.744873</ele>
        <time>2011-07-03T10:11:24Z</time>
      </trkpt>
      <trkpt lat="42.63149" lon="1.71412">
        <ele>2136.6672363</ele>
        <time>2011-07-03T10:11:38Z</time>
      </trkpt>
      <trkpt lat="42.63146" lon="1.7141">
        <ele>2136.1867676</ele>
        <time>2011-07-03T10:11:42Z</time>
      </trkpt>
      <trkpt lat="42.63144" lon="1.71408">
        <ele>2136.6672363</ele>
        <time>2011-07-03T10:11:44Z</time>
      </trkpt>
      <trkpt lat="42.6314" lon="1.71406">
        <ele>2136.6672363</ele>
        <time>2011-07-03T10:11:49Z</time>
      </trkpt>
      <trkpt lat="42.63136" lon="1.71397">
        <ele>2138.5900879</ele>
        <time>2011-07-03T10:11:57Z</time>
      </trkpt>
      <trkpt lat="42.63123" lon="1.71385">
        <ele>2137.1479492</ele>
        <time>2011-07-03T10:12:12Z</time>
      </trkpt>
      <trkpt lat="42.63121" lon="1.71384">
        <ele>2138.5900879</ele>
        <time>2011-07-03T10:12:14Z</time>
      </trkpt>
      <trkpt lat="42.63119" lon="1.71381">
        <ele>2138.5900879</ele>
        <time>2011-07-03T10:12:17Z</time>
      </trkpt>
      <trkpt lat="42.63105" lon="1.71372">
        <ele>2140.5126953</ele>
        <time>2011-07-03T10:12:30Z</time>
      </trkpt>
      <trkpt lat="42.63101" lon="1.7137">
        <ele>2139.0705566</ele>
        <time>2011-07-03T10:12:33Z</time>
      </trkpt>
      <trkpt lat="42.63086" lon="1.71356">
        <ele>2140.0322266</ele>
        <time>2011-07-03T10:12:47Z</time>
      </trkpt>
      <trkpt lat="42.63082" lon="1.71353">
        <ele>2140.9934082</ele>
        <time>2011-07-03T10:12:54Z</time>
      </trkpt>
      <trkpt lat="42.63077" lon="1.7135">
        <ele>2140.5126953</ele>
        <time>2011-07-03T10:12:59Z</time>
      </trkpt>
      <trkpt lat="42.63073" lon="1.71347">
        <ele>2140.9934082</ele>
        <time>2011-07-03T10:13:04Z</time>
      </trkpt>
      <trkpt lat="42.63066" lon="1.71338">
        <ele>2141.954834</ele>
        <time>2011-07-03T10:13:11Z</time>
      </trkpt>
      <trkpt lat="42.63061" lon="1.7132">
        <ele>2140.9934082</ele>
        <time>2011-07-03T10:13:23Z</time>
      </trkpt>
      <trkpt lat="42.63056" lon="1.71312">
        <ele>2140.9934082</ele>
        <time>2011-07-03T10:13:37Z</time>
      </trkpt>
      <trkpt lat="42.63055" lon="1.71306">
        <ele>2140.9934082</ele>
        <time>2011-07-03T10:13:44Z</time>
      </trkpt>
      <trkpt lat="42.63055" lon="1.71301">
        <ele>2140.9934082</ele>
        <time>2011-07-03T10:13:47Z</time>
      </trkpt>
      <trkpt lat="42.63054" lon="1.71279">
        <ele>2141.954834</ele>
        <time>2011-07-03T10:14:03Z</time>
      </trkpt>
      <trkpt lat="42.63054" lon="1.71268">
        <ele>2143.8774414</ele>
        <time>2011-07-03T10:14:11Z</time>
      </trkpt>
      <trkpt lat="42.63052" lon="1.71263">
        <ele>2143.8774414</ele>
        <time>2011-07-03T10:14:17Z</time>
      </trkpt>
      <trkpt lat="42.63041" lon="1.71257">
        <ele>2144.3579102</ele>
        <time>2011-07-03T10:14:30Z</time>
      </trkpt>
      <trkpt lat="42.63037" lon="1.71254">
        <ele>2146.2807617</ele>
        <time>2011-07-03T10:14:34Z</time>
      </trkpt>
      <trkpt lat="42.63026" lon="1.71252">
        <ele>2146.2807617</ele>
        <time>2011-07-03T10:14:47Z</time>
      </trkpt>
      <trkpt lat="42.63024" lon="1.7125">
        <ele>2145.3193359</ele>
        <time>2011-07-03T10:14:50Z</time>
      </trkpt>
      <trkpt lat="42.63016" lon="1.71238">
        <ele>2146.2807617</ele>
        <time>2011-07-03T10:15:01Z</time>
      </trkpt>
      <trkpt lat="42.63007" lon="1.71236">
        <ele>2146.7612305</ele>
        <time>2011-07-03T10:15:12Z</time>
      </trkpt>
      <trkpt lat="42.62992" lon="1.71227">
        <ele>2145.8000488</ele>
        <time>2011-07-03T10:15:26Z</time>
      </trkpt>
      <trkpt lat="42.6299" lon="1.71228">
        <ele>2146.2807617</ele>
        <time>2011-07-03T10:15:28Z</time>
      </trkpt>
      <trkpt lat="42.62979" lon="1.71224">
        <ele>2148.203125</ele>
        <time>2011-07-03T10:15:42Z</time>
      </trkpt>
      <trkpt lat="42.62976" lon="1.7122">
        <ele>2149.1645508</ele>
        <time>2011-07-03T10:15:46Z</time>
      </trkpt>
      <trkpt lat="42.62964" lon="1.71216">
        <ele>2151.5678711</ele>
        <time>2011-07-03T10:15:59Z</time>
      </trkpt>
      <trkpt lat="42.62953" lon="1.71209">
        <ele>2150.1259766</ele>
        <time>2011-07-03T10:16:13Z</time>
      </trkpt>
      <trkpt lat="42.62953" lon="1.7121">
        <ele>2150.1259766</ele>
        <time>2011-07-03T10:16:14Z</time>
      </trkpt>
      <trkpt lat="42.62947" lon="1.71206">
        <ele>2149.6452637</ele>
        <time>2011-07-03T10:16:20Z</time>
      </trkpt>
      <trkpt lat="42.62937" lon="1.71199">
        <ele>2148.203125</ele>
        <time>2011-07-03T10:16:32Z</time>
      </trkpt>
      <trkpt lat="42.6293" lon="1.71194">
        <ele>2146.7612305</ele>
        <time>2011-07-03T10:16:39Z</time>
      </trkpt>
      <trkpt lat="42.62928" lon="1.71193">
        <ele>2148.203125</ele>
        <time>2011-07-03T10:16:41Z</time>
      </trkpt>
      <trkpt lat="42.62917" lon="1.71185">
        <ele>2148.6838379</ele>
        <time>2011-07-03T10:16:53Z</time>
      </trkpt>
      <trkpt lat="42.62916" lon="1.71185">
        <ele>2148.6838379</ele>
        <time>2011-07-03T10:17:30Z</time>
      </trkpt>
      <trkpt lat="42.62916" lon="1.71184">
        <ele>2148.6838379</ele>
        <time>2011-07-03T10:17:52Z</time>
      </trkpt>
      <trkpt lat="42.62916" lon="1.71184">
        <ele>2148.6838379</ele>
        <time>2011-07-03T10:18:00Z</time>
      </trkpt>
      <trkpt lat="42.62925" lon="1.71196">
        <ele>2147.7226563</ele>
        <time>2011-07-03T10:18:45Z</time>
      </trkpt>
      <trkpt lat="42.62925" lon="1.71205">
        <ele>2144.3579102</ele>
        <time>2011-07-03T10:19:00Z</time>
      </trkpt>
      <trkpt lat="42.62924" lon="1.71218">
        <ele>2141.4741211</ele>
        <time>2011-07-03T10:19:21Z</time>
      </trkpt>
      <trkpt lat="42.62921" lon="1.71235">
        <ele>2139.0705566</ele>
        <time>2011-07-03T10:19:51Z</time>
      </trkpt>
      <trkpt lat="42.62918" lon="1.71243">
        <ele>2139.0705566</ele>
        <time>2011-07-03T10:20:22Z</time>
      </trkpt>
      <trkpt lat="42.62926" lon="1.71257">
        <ele>2141.4741211</ele>
        <time>2011-07-03T10:21:09Z</time>
      </trkpt>
      <trkpt lat="42.62927" lon="1.71258">
        <ele>2139.5512695</ele>
        <time>2011-07-03T10:21:11Z</time>
      </trkpt>
      <trkpt lat="42.62928" lon="1.71258">
        <ele>2140.5126953</ele>
        <time>2011-07-03T10:21:13Z</time>
      </trkpt>
      <trkpt lat="42.62921" lon="1.71264">
        <ele>2141.4741211</ele>
        <time>2011-07-03T10:21:31Z</time>
      </trkpt>
      <trkpt lat="42.6291" lon="1.71264">
        <ele>2143.3967285</ele>
        <time>2011-07-03T10:21:50Z</time>
      </trkpt>
      <trkpt lat="42.62905" lon="1.71263">
        <ele>2142.4355469</ele>
        <time>2011-07-03T10:22:11Z</time>
      </trkpt>
      <trkpt lat="42.62895" lon="1.71261">
        <ele>2143.3967285</ele>
        <time>2011-07-03T10:22:28Z</time>
      </trkpt>
      <trkpt lat="42.62894" lon="1.71261">
        <ele>2141.954834</ele>
        <time>2011-07-03T10:22:32Z</time>
      </trkpt>
      <trkpt lat="42.62892" lon="1.7126">
        <ele>2143.8774414</ele>
        <time>2011-07-03T10:22:35Z</time>
      </trkpt>
      <trkpt lat="42.62879" lon="1.71252">
        <ele>2147.2419434</ele>
        <time>2011-07-03T10:22:54Z</time>
      </trkpt>
      <trkpt lat="42.62875" lon="1.71253">
        <ele>2143.8774414</ele>
        <time>2011-07-03T10:22:58Z</time>
      </trkpt>
      <trkpt lat="42.6287" lon="1.71255">
        <ele>2148.203125</ele>
        <time>2011-07-03T10:23:06Z</time>
      </trkpt>
      <trkpt lat="42.62868" lon="1.71253">
        <ele>2149.1645508</ele>
        <time>2011-07-03T10:23:11Z</time>
      </trkpt>
      <trkpt lat="42.62859" lon="1.71256">
        <ele>2152.5290527</ele>
        <time>2011-07-03T10:23:25Z</time>
      </trkpt>
      <trkpt lat="42.62859" lon="1.71256">
        <ele>2149.1645508</ele>
        <time>2011-07-03T10:23:26Z</time>
      </trkpt>
      <trkpt lat="42.62858" lon="1.71258">
        <ele>2152.5290527</ele>
        <time>2011-07-03T10:23:29Z</time>
      </trkpt>
      <trkpt lat="42.62847" lon="1.71264">
        <ele>2153.4904785</ele>
        <time>2011-07-03T10:23:46Z</time>
      </trkpt>
      <trkpt lat="42.62848" lon="1.71265">
        <ele>2154.932373</ele>
        <time>2011-07-03T10:23:48Z</time>
      </trkpt>
      <trkpt lat="42.62855" lon="1.71272">
        <ele>2153.4904785</ele>
        <time>2011-07-03T10:24:04Z</time>
      </trkpt>
      <trkpt lat="42.62852" lon="1.71274">
        <ele>2155.8935547</ele>
        <time>2011-07-03T10:24:26Z</time>
      </trkpt>
      <trkpt lat="42.62846" lon="1.71275">
        <ele>2156.8552246</ele>
        <time>2011-07-03T10:24:35Z</time>
      </trkpt>
      <trkpt lat="42.62848" lon="1.71276">
        <ele>2155.4130859</ele>
        <time>2011-07-03T10:24:45Z</time>
      </trkpt>
      <trkpt lat="42.62852" lon="1.71281">
        <ele>2154.4516602</ele>
        <time>2011-07-03T10:24:56Z</time>
      </trkpt>
      <trkpt lat="42.62847" lon="1.71283">
        <ele>2154.4516602</ele>
        <time>2011-07-03T10:25:13Z</time>
      </trkpt>
      <trkpt lat="42.62853" lon="1.71292">
        <ele>2154.4516602</ele>
        <time>2011-07-03T10:25:28Z</time>
      </trkpt>
      <trkpt lat="42.62847" lon="1.7129">
        <ele>2154.4516602</ele>
        <time>2011-07-03T10:25:58Z</time>
      </trkpt>
      <trkpt lat="42.62841" lon="1.71295">
        <ele>2157.8166504</ele>
        <time>2011-07-03T10:26:44Z</time>
      </trkpt>
      <trkpt lat="42.62847" lon="1.71289">
        <ele>2153.4904785</ele>
        <time>2011-07-03T10:26:53Z</time>
      </trkpt>
      <trkpt lat="42.62856" lon="1.71289">
        <ele>2154.4516602</ele>
        <time>2011-07-03T10:27:31Z</time>
      </trkpt>
      <trkpt lat="42.62848" lon="1.71287">
        <ele>2155.4130859</ele>
        <time>2011-07-03T10:28:48Z</time>
      </trkpt>
      <trkpt lat="42.62849" lon="1.71282">
        <ele>2156.3745117</ele>
        <time>2011-07-03T10:29:46Z</time>
      </trkpt>
      <trkpt lat="42.62849" lon="1.71284">
        <ele>2155.8935547</ele>
        <time>2011-07-03T10:34:59Z</time>
      </trkpt>
      <trkpt lat="42.6285" lon="1.71282">
        <ele>2159.2585449</ele>
        <time>2011-07-03T10:37:15Z</time>
      </trkpt>
      <trkpt lat="42.6285" lon="1.71292">
        <ele>2155.8935547</ele>
        <time>2011-07-03T10:38:59Z</time>
      </trkpt>
      <trkpt lat="42.62847" lon="1.71291">
        <ele>2156.8552246</ele>
        <time>2011-07-03T10:40:13Z</time>
      </trkpt>
      <trkpt lat="42.62848" lon="1.71288">
        <ele>2153.9711914</ele>
        <time>2011-07-03T10:42:05Z</time>
      </trkpt>
      <trkpt lat="42.62848" lon="1.71288">
        <ele>2154.4516602</ele>
        <time>2011-07-03T10:42:06Z</time>
      </trkpt>
      <trkpt lat="42.62848" lon="1.71289">
        <ele>2156.8552246</ele>
        <time>2011-07-03T10:42:08Z</time>
      </trkpt>
      <trkpt lat="42.62849" lon="1.71289">
        <ele>2153.4904785</ele>
        <time>2011-07-03T10:42:11Z</time>
      </trkpt>
      <trkpt lat="42.62851" lon="1.71291">
        <ele>2156.3745117</ele>
        <time>2011-07-03T10:42:20Z</time>
      </trkpt>
      <trkpt lat="42.62854" lon="1.71291">
        <ele>2152.0483398</ele>
        <time>2011-07-03T10:42:51Z</time>
      </trkpt>
      <trkpt lat="42.62854" lon="1.71291">
        <ele>2155.8935547</ele>
        <time>2011-07-03T10:42:53Z</time>
      </trkpt>
      <trkpt lat="42.62844" lon="1.71286">
        <ele>2154.4516602</ele>
        <time>2011-07-03T10:43:46Z</time>
      </trkpt>
      <trkpt lat="42.62843" lon="1.71291">
        <ele>2155.4130859</ele>
        <time>2011-07-03T10:44:12Z</time>
      </trkpt>
      <trkpt lat="42.62843" lon="1.71286">
        <ele>2153.9711914</ele>
        <time>2011-07-03T10:45:39Z</time>
      </trkpt>
      <trkpt lat="42.62843" lon="1.71293">
        <ele>2155.4130859</ele>
        <time>2011-07-03T10:46:38Z</time>
      </trkpt>
      <trkpt lat="42.62854" lon="1.71287">
        <ele>2156.3745117</ele>
        <time>2011-07-03T10:50:19Z</time>
      </trkpt>
      <trkpt lat="42.62854" lon="1.71287">
        <ele>2155.4130859</ele>
        <time>2011-07-03T10:50:21Z</time>
      </trkpt>
      <trkpt lat="42.62855" lon="1.71284">
        <ele>2152.0483398</ele>
        <time>2011-07-03T10:50:42Z</time>
      </trkpt>
      <trkpt lat="42.62859" lon="1.71282">
        <ele>2154.932373</ele>
        <time>2011-07-03T10:52:52Z</time>
      </trkpt>
      <trkpt lat="42.6286" lon="1.71282">
        <ele>2158.2971191</ele>
        <time>2011-07-03T10:53:41Z</time>
      </trkpt>
      <trkpt lat="42.62859" lon="1.71281">
        <ele>2156.8552246</ele>
        <time>2011-07-03T10:53:46Z</time>
      </trkpt>
      <trkpt lat="42.6286" lon="1.71282">
        <ele>2154.4516602</ele>
        <time>2011-07-03T10:53:53Z</time>
      </trkpt>
      <trkpt lat="42.62862" lon="1.7128">
        <ele>2157.3359375</ele>
        <time>2011-07-03T10:54:47Z</time>
      </trkpt>
      <trkpt lat="42.62865" lon="1.71288">
        <ele>2156.8552246</ele>
        <time>2011-07-03T10:55:44Z</time>
      </trkpt>
      <trkpt lat="42.6287" lon="1.71279">
        <ele>2155.8935547</ele>
        <time>2011-07-03T10:57:11Z</time>
      </trkpt>
      <trkpt lat="42.62877" lon="1.71279">
        <ele>2155.8935547</ele>
        <time>2011-07-03T10:57:44Z</time>
      </trkpt>
      <trkpt lat="42.62868" lon="1.71297">
        <ele>2153.4904785</ele>
        <time>2011-07-03T10:59:05Z</time>
      </trkpt>
      <trkpt lat="42.62868" lon="1.71294">
        <ele>2155.8935547</ele>
        <time>2011-07-03T11:00:11Z</time>
      </trkpt>
      <trkpt lat="42.62867" lon="1.71298">
        <ele>2156.3745117</ele>
        <time>2011-07-03T11:00:39Z</time>
      </trkpt>
      <trkpt lat="42.62865" lon="1.7128">
        <ele>2156.8552246</ele>
        <time>2011-07-03T11:03:20Z</time>
      </trkpt>
      <trkpt lat="42.62866" lon="1.7128">
        <ele>2158.2971191</ele>
        <time>2011-07-03T11:03:31Z</time>
      </trkpt>
      <trkpt lat="42.62873" lon="1.71282">
        <ele>2156.3745117</ele>
        <time>2011-07-03T11:05:03Z</time>
      </trkpt>
      <trkpt lat="42.62866" lon="1.71285">
        <ele>2156.8552246</ele>
        <time>2011-07-03T11:05:25Z</time>
      </trkpt>
      <trkpt lat="42.62862" lon="1.71285">
        <ele>2160.2197266</ele>
        <time>2011-07-03T11:05:38Z</time>
      </trkpt>
      <trkpt lat="42.62855" lon="1.71288">
        <ele>2157.8166504</ele>
        <time>2011-07-03T11:05:43Z</time>
      </trkpt>
      <trkpt lat="42.6285" lon="1.71285">
        <ele>2159.7390137</ele>
        <time>2011-07-03T11:05:49Z</time>
      </trkpt>
      <trkpt lat="42.62851" lon="1.7128">
        <ele>2160.2197266</ele>
        <time>2011-07-03T11:06:06Z</time>
      </trkpt>
      <trkpt lat="42.62849" lon="1.71275">
        <ele>2160.7004395</ele>
        <time>2011-07-03T11:06:21Z</time>
      </trkpt>
      <trkpt lat="42.62851" lon="1.71275">
        <ele>2158.2971191</ele>
        <time>2011-07-03T11:06:31Z</time>
      </trkpt>
      <trkpt lat="42.62858" lon="1.71273">
        <ele>2156.8552246</ele>
        <time>2011-07-03T11:06:36Z</time>
      </trkpt>
      <trkpt lat="42.62864" lon="1.71269">
        <ele>2155.4130859</ele>
        <time>2011-07-03T11:06:44Z</time>
      </trkpt>
      <trkpt lat="42.62873" lon="1.71271">
        <ele>2153.4904785</ele>
        <time>2011-07-03T11:06:58Z</time>
      </trkpt>
      <trkpt lat="42.62875" lon="1.71273">
        <ele>2151.0871582</ele>
        <time>2011-07-03T11:07:04Z</time>
      </trkpt>
      <trkpt lat="42.62877" lon="1.71274">
        <ele>2147.7226563</ele>
        <time>2011-07-03T11:07:25Z</time>
      </trkpt>
      <trkpt lat="42.62884" lon="1.71278">
        <ele>2146.2807617</ele>
        <time>2011-07-03T11:07:37Z</time>
      </trkpt>
      <trkpt lat="42.62884" lon="1.71278">
        <ele>2146.2807617</ele>
        <time>2011-07-03T11:07:55Z</time>
      </trkpt>
      <trkpt lat="42.62884" lon="1.71279">
        <ele>2149.6452637</ele>
        <time>2011-07-03T11:11:03Z</time>
      </trkpt>
      <trkpt lat="42.62885" lon="1.7128">
        <ele>2147.7226563</ele>
        <time>2011-07-03T11:11:19Z</time>
      </trkpt>
      <trkpt lat="42.62891" lon="1.71275">
        <ele>2145.3193359</ele>
        <time>2011-07-03T11:11:50Z</time>
      </trkpt>
      <trkpt lat="42.62901" lon="1.71269">
        <ele>2142.9160156</ele>
        <time>2011-07-03T11:12:04Z</time>
      </trkpt>
      <trkpt lat="42.62905" lon="1.7127">
        <ele>2143.8774414</ele>
        <time>2011-07-03T11:12:09Z</time>
      </trkpt>
      <trkpt lat="42.62916" lon="1.71276">
        <ele>2142.9160156</ele>
        <time>2011-07-03T11:12:20Z</time>
      </trkpt>
      <trkpt lat="42.62922" lon="1.71275">
        <ele>2143.3967285</ele>
        <time>2011-07-03T11:12:27Z</time>
      </trkpt>
      <trkpt lat="42.62929" lon="1.71266">
        <ele>2141.4741211</ele>
        <time>2011-07-03T11:12:38Z</time>
      </trkpt>
      <trkpt lat="42.62938" lon="1.71268">
        <ele>2141.4741211</ele>
        <time>2011-07-03T11:12:52Z</time>
      </trkpt>
      <trkpt lat="42.62939" lon="1.71268">
        <ele>2141.4741211</ele>
        <time>2011-07-03T11:12:53Z</time>
      </trkpt>
      <trkpt lat="42.62944" lon="1.7127">
        <ele>2141.954834</ele>
        <time>2011-07-03T11:12:59Z</time>
      </trkpt>
      <trkpt lat="42.62949" lon="1.71274">
        <ele>2140.9934082</ele>
        <time>2011-07-03T11:13:04Z</time>
      </trkpt>
      <trkpt lat="42.62955" lon="1.71277">
        <ele>2140.0322266</ele>
        <time>2011-07-03T11:13:10Z</time>
      </trkpt>
      <trkpt lat="42.62959" lon="1.71283">
        <ele>2141.4741211</ele>
        <time>2011-07-03T11:13:14Z</time>
      </trkpt>
      <trkpt lat="42.62962" lon="1.71286">
        <ele>2140.5126953</ele>
        <time>2011-07-03T11:13:17Z</time>
      </trkpt>
      <trkpt lat="42.62965" lon="1.71289">
        <ele>2140.9934082</ele>
        <time>2011-07-03T11:13:20Z</time>
      </trkpt>
      <trkpt lat="42.62973" lon="1.71301">
        <ele>2141.4741211</ele>
        <time>2011-07-03T11:13:29Z</time>
      </trkpt>
      <trkpt lat="42.62983" lon="1.71311">
        <ele>2140.9934082</ele>
        <time>2011-07-03T11:13:42Z</time>
      </trkpt>
      <trkpt lat="42.62984" lon="1.71312">
        <ele>2141.4741211</ele>
        <time>2011-07-03T11:13:43Z</time>
      </trkpt>
      <trkpt lat="42.62985" lon="1.71319">
        <ele>2141.954834</ele>
        <time>2011-07-03T11:13:47Z</time>
      </trkpt>
      <trkpt lat="42.62987" lon="1.71326">
        <ele>2140.9934082</ele>
        <time>2011-07-03T11:13:51Z</time>
      </trkpt>
      <trkpt lat="42.62993" lon="1.7133">
        <ele>2140.0322266</ele>
        <time>2011-07-03T11:13:56Z</time>
      </trkpt>
      <trkpt lat="42.63005" lon="1.7134">
        <ele>2140.0322266</ele>
        <time>2011-07-03T11:14:10Z</time>
      </trkpt>
      <trkpt lat="42.6301" lon="1.71347">
        <ele>2139.0705566</ele>
        <time>2011-07-03T11:14:16Z</time>
      </trkpt>
      <trkpt lat="42.63015" lon="1.71351">
        <ele>2140.5126953</ele>
        <time>2011-07-03T11:14:21Z</time>
      </trkpt>
      <trkpt lat="42.63025" lon="1.71358">
        <ele>2137.1479492</ele>
        <time>2011-07-03T11:14:31Z</time>
      </trkpt>
      <trkpt lat="42.63028" lon="1.71359">
        <ele>2136.1867676</ele>
        <time>2011-07-03T11:14:34Z</time>
      </trkpt>
      <trkpt lat="42.63029" lon="1.71364">
        <ele>2138.109375</ele>
        <time>2011-07-03T11:14:37Z</time>
      </trkpt>
      <trkpt lat="42.6303" lon="1.7137">
        <ele>2138.109375</ele>
        <time>2011-07-03T11:14:41Z</time>
      </trkpt>
      <trkpt lat="42.63028" lon="1.71388">
        <ele>2137.1479492</ele>
        <time>2011-07-03T11:14:52Z</time>
      </trkpt>
      <trkpt lat="42.63029" lon="1.71395">
        <ele>2138.109375</ele>
        <time>2011-07-03T11:14:56Z</time>
      </trkpt>
      <trkpt lat="42.6303" lon="1.71399">
        <ele>2138.109375</ele>
        <time>2011-07-03T11:14:59Z</time>
      </trkpt>
      <trkpt lat="42.63037" lon="1.71411">
        <ele>2135.2253418</ele>
        <time>2011-07-03T11:15:11Z</time>
      </trkpt>
      <trkpt lat="42.63041" lon="1.71415">
        <ele>2134.744873</ele>
        <time>2011-07-03T11:15:16Z</time>
      </trkpt>
      <trkpt lat="42.63048" lon="1.71422">
        <ele>2133.7834473</ele>
        <time>2011-07-03T11:15:27Z</time>
      </trkpt>
      <trkpt lat="42.63054" lon="1.71425">
        <ele>2131.380127</ele>
        <time>2011-07-03T11:15:33Z</time>
      </trkpt>
      <trkpt lat="42.63056" lon="1.71427">
        <ele>2130.8996582</ele>
        <time>2011-07-03T11:15:37Z</time>
      </trkpt>
      <trkpt lat="42.63062" lon="1.71436">
        <ele>2128.015625</ele>
        <time>2011-07-03T11:15:51Z</time>
      </trkpt>
      <trkpt lat="42.63063" lon="1.71437">
        <ele>2128.4963379</ele>
        <time>2011-07-03T11:15:52Z</time>
      </trkpt>
      <trkpt lat="42.63073" lon="1.71444">
        <ele>2127.5349121</ele>
        <time>2011-07-03T11:16:03Z</time>
      </trkpt>
      <trkpt lat="42.63074" lon="1.71446">
        <ele>2127.0544434</ele>
        <time>2011-07-03T11:16:05Z</time>
      </trkpt>
      <trkpt lat="42.63077" lon="1.71447">
        <ele>2125.1315918</ele>
        <time>2011-07-03T11:16:09Z</time>
      </trkpt>
      <trkpt lat="42.63081" lon="1.71449">
        <ele>2126.5737305</ele>
        <time>2011-07-03T11:16:12Z</time>
      </trkpt>
      <trkpt lat="42.63082" lon="1.71452">
        <ele>2126.5737305</ele>
        <time>2011-07-03T11:16:15Z</time>
      </trkpt>
      <trkpt lat="42.63091" lon="1.71462">
        <ele>2124.651123</ele>
        <time>2011-07-03T11:16:26Z</time>
      </trkpt>
      <trkpt lat="42.63092" lon="1.71467">
        <ele>2124.651123</ele>
        <time>2011-07-03T11:16:29Z</time>
      </trkpt>
      <trkpt lat="42.63091" lon="1.71475">
        <ele>2124.1704102</ele>
        <time>2011-07-03T11:16:35Z</time>
      </trkpt>
      <trkpt lat="42.63097" lon="1.71484">
        <ele>2121.7668457</ele>
        <time>2011-07-03T11:16:48Z</time>
      </trkpt>
      <trkpt lat="42.63099" lon="1.7149">
        <ele>2121.7668457</ele>
        <time>2011-07-03T11:17:00Z</time>
      </trkpt>
      <trkpt lat="42.63099" lon="1.715">
        <ele>2123.2089844</ele>
        <time>2011-07-03T11:17:10Z</time>
      </trkpt>
      <trkpt lat="42.63099" lon="1.71506">
        <ele>2123.6894531</ele>
        <time>2011-07-03T11:17:16Z</time>
      </trkpt>
      <trkpt lat="42.63105" lon="1.71516">
        <ele>2122.2475586</ele>
        <time>2011-07-03T11:17:30Z</time>
      </trkpt>
      <trkpt lat="42.63106" lon="1.71516">
        <ele>2122.2475586</ele>
        <time>2011-07-03T11:17:31Z</time>
      </trkpt>
      <trkpt lat="42.6311" lon="1.71519">
        <ele>2121.7668457</ele>
        <time>2011-07-03T11:17:37Z</time>
      </trkpt>
      <trkpt lat="42.63113" lon="1.71521">
        <ele>2119.8442383</ele>
        <time>2011-07-03T11:17:39Z</time>
      </trkpt>
      <trkpt lat="42.63121" lon="1.71538">
        <ele>2120.3249512</ele>
        <time>2011-07-03T11:17:54Z</time>
      </trkpt>
      <trkpt lat="42.63121" lon="1.71539">
        <ele>2121.2861328</ele>
        <time>2011-07-03T11:17:56Z</time>
      </trkpt>
      <trkpt lat="42.63124" lon="1.71547">
        <ele>2121.2861328</ele>
        <time>2011-07-03T11:18:03Z</time>
      </trkpt>
      <trkpt lat="42.63124" lon="1.71557">
        <ele>2123.6894531</ele>
        <time>2011-07-03T11:18:12Z</time>
      </trkpt>
      <trkpt lat="42.63125" lon="1.71559">
        <ele>2124.651123</ele>
        <time>2011-07-03T11:18:14Z</time>
      </trkpt>
      <trkpt lat="42.63128" lon="1.71562">
        <ele>2125.1315918</ele>
        <time>2011-07-03T11:18:17Z</time>
      </trkpt>
      <trkpt lat="42.63133" lon="1.71573">
        <ele>2124.651123</ele>
        <time>2011-07-03T11:18:27Z</time>
      </trkpt>
      <trkpt lat="42.63134" lon="1.71576">
        <ele>2124.651123</ele>
        <time>2011-07-03T11:18:29Z</time>
      </trkpt>
      <trkpt lat="42.63139" lon="1.71588">
        <ele>2123.6894531</ele>
        <time>2011-07-03T11:18:37Z</time>
      </trkpt>
      <trkpt lat="42.63139" lon="1.71589">
        <ele>2123.6894531</ele>
        <time>2011-07-03T11:18:38Z</time>
      </trkpt>
      <trkpt lat="42.6314" lon="1.71605">
        <ele>2124.651123</ele>
        <time>2011-07-03T11:18:50Z</time>
      </trkpt>
      <trkpt lat="42.63134" lon="1.71614">
        <ele>2124.651123</ele>
        <time>2011-07-03T11:18:57Z</time>
      </trkpt>
      <trkpt lat="42.63131" lon="1.71618">
        <ele>2125.1315918</ele>
        <time>2011-07-03T11:19:01Z</time>
      </trkpt>
      <trkpt lat="42.63132" lon="1.7163">
        <ele>2123.2089844</ele>
        <time>2011-07-03T11:19:11Z</time>
      </trkpt>
      <trkpt lat="42.63129" lon="1.71639">
        <ele>2122.2475586</ele>
        <time>2011-07-03T11:19:26Z</time>
      </trkpt>
      <trkpt lat="42.63127" lon="1.71647">
        <ele>2122.2475586</ele>
        <time>2011-07-03T11:19:40Z</time>
      </trkpt>
      <trkpt lat="42.6312" lon="1.7166">
        <ele>2124.1704102</ele>
        <time>2011-07-03T11:19:55Z</time>
      </trkpt>
      <trkpt lat="42.63114" lon="1.71669">
        <ele>2124.1704102</ele>
        <time>2011-07-03T11:20:06Z</time>
      </trkpt>
      <trkpt lat="42.63113" lon="1.71674">
        <ele>2122.7282715</ele>
        <time>2011-07-03T11:20:12Z</time>
      </trkpt>
      <trkpt lat="42.63107" lon="1.71685">
        <ele>2124.1704102</ele>
        <time>2011-07-03T11:20:22Z</time>
      </trkpt>
      <trkpt lat="42.63092" lon="1.71689">
        <ele>2122.7282715</ele>
        <time>2011-07-03T11:20:34Z</time>
      </trkpt>
      <trkpt lat="42.63084" lon="1.71701">
        <ele>2122.2475586</ele>
        <time>2011-07-03T11:20:48Z</time>
      </trkpt>
      <trkpt lat="42.6308" lon="1.71705">
        <ele>2122.2475586</ele>
        <time>2011-07-03T11:20:53Z</time>
      </trkpt>
      <trkpt lat="42.63073" lon="1.71706">
        <ele>2125.6123047</ele>
        <time>2011-07-03T11:21:04Z</time>
      </trkpt>
      <trkpt lat="42.63066" lon="1.71707">
        <ele>2128.4963379</ele>
        <time>2011-07-03T11:21:20Z</time>
      </trkpt>
      <trkpt lat="42.63061" lon="1.71708">
        <ele>2131.380127</ele>
        <time>2011-07-03T11:21:36Z</time>
      </trkpt>
      <trkpt lat="42.63057" lon="1.71713">
        <ele>2131.8608398</ele>
        <time>2011-07-03T11:21:50Z</time>
      </trkpt>
      <trkpt lat="42.6305" lon="1.71723">
        <ele>2130.4189453</ele>
        <time>2011-07-03T11:22:03Z</time>
      </trkpt>
      <trkpt lat="42.6305" lon="1.7173">
        <ele>2129.9382324</ele>
        <time>2011-07-03T11:22:14Z</time>
      </trkpt>
      <trkpt lat="42.63036" lon="1.71739">
        <ele>2130.8996582</ele>
        <time>2011-07-03T11:22:30Z</time>
      </trkpt>
      <trkpt lat="42.6303" lon="1.71753">
        <ele>2131.8608398</ele>
        <time>2011-07-03T11:22:49Z</time>
      </trkpt>
      <trkpt lat="42.63028" lon="1.7176">
        <ele>2130.4189453</ele>
        <time>2011-07-03T11:23:03Z</time>
      </trkpt>
      <trkpt lat="42.63028" lon="1.71762">
        <ele>2129.4575195</ele>
        <time>2011-07-03T11:23:30Z</time>
      </trkpt>
      <trkpt lat="42.63027" lon="1.71769">
        <ele>2128.4963379</ele>
        <time>2011-07-03T11:23:36Z</time>
      </trkpt>
      <trkpt lat="42.63025" lon="1.71786">
        <ele>2126.0930176</ele>
        <time>2011-07-03T11:23:51Z</time>
      </trkpt>
      <trkpt lat="42.63021" lon="1.71793">
        <ele>2124.651123</ele>
        <time>2011-07-03T11:23:58Z</time>
      </trkpt>
      <trkpt lat="42.63016" lon="1.71795">
        <ele>2123.6894531</ele>
        <time>2011-07-03T11:24:05Z</time>
      </trkpt>
      <trkpt lat="42.63011" lon="1.71806">
        <ele>2122.2475586</ele>
        <time>2011-07-03T11:24:14Z</time>
      </trkpt>
      <trkpt lat="42.63004" lon="1.71814">
        <ele>2122.2475586</ele>
        <time>2011-07-03T11:24:23Z</time>
      </trkpt>
      <trkpt lat="42.63003" lon="1.71832">
        <ele>2121.7668457</ele>
        <time>2011-07-03T11:24:35Z</time>
      </trkpt>
      <trkpt lat="42.62999" lon="1.71835">
        <ele>2121.7668457</ele>
        <time>2011-07-03T11:24:39Z</time>
      </trkpt>
      <trkpt lat="42.62996" lon="1.7184">
        <ele>2122.2475586</ele>
        <time>2011-07-03T11:24:44Z</time>
      </trkpt>
      <trkpt lat="42.62996" lon="1.71843">
        <ele>2121.7668457</ele>
        <time>2011-07-03T11:24:46Z</time>
      </trkpt>
      <trkpt lat="42.62992" lon="1.7185">
        <ele>2121.2861328</ele>
        <time>2011-07-03T11:24:54Z</time>
      </trkpt>
      <trkpt lat="42.62988" lon="1.71861">
        <ele>2120.8056641</ele>
        <time>2011-07-03T11:25:06Z</time>
      </trkpt>
      <trkpt lat="42.62984" lon="1.71875">
        <ele>2120.8056641</ele>
        <time>2011-07-03T11:25:20Z</time>
      </trkpt>
      <trkpt lat="42.62979" lon="1.71887">
        <ele>2119.8442383</ele>
        <time>2011-07-03T11:25:35Z</time>
      </trkpt>
      <trkpt lat="42.62976" lon="1.71898">
        <ele>2119.3637695</ele>
        <time>2011-07-03T11:26:15Z</time>
      </trkpt>
      <trkpt lat="42.62976" lon="1.71906">
        <ele>2117.440918</ele>
        <time>2011-07-03T11:26:39Z</time>
      </trkpt>
      <trkpt lat="42.62975" lon="1.71918">
        <ele>2115.9990234</ele>
        <time>2011-07-03T11:26:56Z</time>
      </trkpt>
      <trkpt lat="42.62974" lon="1.71926">
        <ele>2113.5957031</ele>
        <time>2011-07-03T11:27:11Z</time>
      </trkpt>
      <trkpt lat="42.62976" lon="1.71934">
        <ele>2112.1538086</ele>
        <time>2011-07-03T11:27:28Z</time>
      </trkpt>
      <trkpt lat="42.62977" lon="1.71943">
        <ele>2111.6733398</ele>
        <time>2011-07-03T11:27:45Z</time>
      </trkpt>
      <trkpt lat="42.62978" lon="1.71949">
        <ele>2108.7893066</ele>
        <time>2011-07-03T11:27:53Z</time>
      </trkpt>
      <trkpt lat="42.62979" lon="1.71953">
        <ele>2108.7893066</ele>
        <time>2011-07-03T11:28:08Z</time>
      </trkpt>
      <trkpt lat="42.62981" lon="1.71966">
        <ele>2107.8278809</ele>
        <time>2011-07-03T11:28:25Z</time>
      </trkpt>
      <trkpt lat="42.62984" lon="1.71966">
        <ele>2104.9438477</ele>
        <time>2011-07-03T11:28:38Z</time>
      </trkpt>
      <trkpt lat="42.62989" lon="1.71963">
        <ele>2102.0598145</ele>
        <time>2011-07-03T11:28:53Z</time>
      </trkpt>
      <trkpt lat="42.62987" lon="1.71971">
        <ele>2101.5793457</ele>
        <time>2011-07-03T11:29:07Z</time>
      </trkpt>
      <trkpt lat="42.62983" lon="1.71979">
        <ele>2100.6179199</ele>
        <time>2011-07-03T11:29:16Z</time>
      </trkpt>
      <trkpt lat="42.62978" lon="1.71992">
        <ele>2098.6953125</ele>
        <time>2011-07-03T11:29:31Z</time>
      </trkpt>
      <trkpt lat="42.62972" lon="1.72004">
        <ele>2096.7727051</ele>
        <time>2011-07-03T11:29:47Z</time>
      </trkpt>
      <trkpt lat="42.62973" lon="1.72009">
        <ele>2095.8115234</ele>
        <time>2011-07-03T11:29:51Z</time>
      </trkpt>
      <trkpt lat="42.6297" lon="1.72014">
        <ele>2094.3693848</ele>
        <time>2011-07-03T11:30:07Z</time>
      </trkpt>
      <trkpt lat="42.62974" lon="1.72019">
        <ele>2092.9274902</ele>
        <time>2011-07-03T11:30:22Z</time>
      </trkpt>
      <trkpt lat="42.62973" lon="1.72029">
        <ele>2091.9660645</ele>
        <time>2011-07-03T11:30:40Z</time>
      </trkpt>
      <trkpt lat="42.62977" lon="1.72043">
        <ele>2090.043457</ele>
        <time>2011-07-03T11:30:56Z</time>
      </trkpt>
      <trkpt lat="42.62979" lon="1.72053">
        <ele>2088.6015625</ele>
        <time>2011-07-03T11:31:09Z</time>
      </trkpt>
      <trkpt lat="42.62982" lon="1.72059">
        <ele>2086.6787109</ele>
        <time>2011-07-03T11:31:22Z</time>
      </trkpt>
      <trkpt lat="42.62987" lon="1.72063">
        <ele>2084.2756348</ele>
        <time>2011-07-03T11:31:36Z</time>
      </trkpt>
      <trkpt lat="42.6299" lon="1.72073">
        <ele>2083.314209</ele>
        <time>2011-07-03T11:31:50Z</time>
      </trkpt>
      <trkpt lat="42.62993" lon="1.72074">
        <ele>2082.8334961</ele>
        <time>2011-07-03T11:32:03Z</time>
      </trkpt>
      <trkpt lat="42.63" lon="1.72082">
        <ele>2081.3916016</ele>
        <time>2011-07-03T11:32:18Z</time>
      </trkpt>
      <trkpt lat="42.63003" lon="1.72091">
        <ele>2081.8723145</ele>
        <time>2011-07-03T11:32:30Z</time>
      </trkpt>
      <trkpt lat="42.63005" lon="1.72102">
        <ele>2082.3530273</ele>
        <time>2011-07-03T11:32:44Z</time>
      </trkpt>
      <trkpt lat="42.63009" lon="1.72115">
        <ele>2081.8723145</ele>
        <time>2011-07-03T11:33:02Z</time>
      </trkpt>
      <trkpt lat="42.63008" lon="1.72123">
        <ele>2081.8723145</ele>
        <time>2011-07-03T11:33:15Z</time>
      </trkpt>
      <trkpt lat="42.63007" lon="1.72141">
        <ele>2083.314209</ele>
        <time>2011-07-03T11:33:27Z</time>
      </trkpt>
      <trkpt lat="42.63008" lon="1.72158">
        <ele>2084.2756348</ele>
        <time>2011-07-03T11:33:41Z</time>
      </trkpt>
      <trkpt lat="42.63009" lon="1.72168">
        <ele>2085.7175293</ele>
        <time>2011-07-03T11:33:53Z</time>
      </trkpt>
      <trkpt lat="42.63002" lon="1.72175">
        <ele>2087.6401367</ele>
        <time>2011-07-03T11:34:07Z</time>
      </trkpt>
      <trkpt lat="42.63003" lon="1.7218">
        <ele>2089.0820313</ele>
        <time>2011-07-03T11:34:15Z</time>
      </trkpt>
      <trkpt lat="42.63008" lon="1.72189">
        <ele>2091.0046387</ele>
        <time>2011-07-03T11:34:27Z</time>
      </trkpt>
      <trkpt lat="42.63009" lon="1.72196">
        <ele>2091.9660645</ele>
        <time>2011-07-03T11:34:33Z</time>
      </trkpt>
      <trkpt lat="42.6301" lon="1.72205">
        <ele>2092.9274902</ele>
        <time>2011-07-03T11:34:47Z</time>
      </trkpt>
      <trkpt lat="42.63009" lon="1.72216">
        <ele>2093.888916</ele>
        <time>2011-07-03T11:35:02Z</time>
      </trkpt>
      <trkpt lat="42.63013" lon="1.72226">
        <ele>2094.3693848</ele>
        <time>2011-07-03T11:35:17Z</time>
      </trkpt>
      <trkpt lat="42.63013" lon="1.72241">
        <ele>2095.8115234</ele>
        <time>2011-07-03T11:35:32Z</time>
      </trkpt>
      <trkpt lat="42.63011" lon="1.72248">
        <ele>2097.7341309</ele>
        <time>2011-07-03T11:35:41Z</time>
      </trkpt>
      <trkpt lat="42.63006" lon="1.72262">
        <ele>2098.2145996</ele>
        <time>2011-07-03T11:35:53Z</time>
      </trkpt>
      <trkpt lat="42.62999" lon="1.72277">
        <ele>2098.2145996</ele>
        <time>2011-07-03T11:36:07Z</time>
      </trkpt>
      <trkpt lat="42.62996" lon="1.72281">
        <ele>2100.1374512</ele>
        <time>2011-07-03T11:36:18Z</time>
      </trkpt>
      <trkpt lat="42.62989" lon="1.72292">
        <ele>2101.5793457</ele>
        <time>2011-07-03T11:36:33Z</time>
      </trkpt>
      <trkpt lat="42.6299" lon="1.72308">
        <ele>2102.0598145</ele>
        <time>2011-07-03T11:36:47Z</time>
      </trkpt>
      <trkpt lat="42.62991" lon="1.72318">
        <ele>2102.0598145</ele>
        <time>2011-07-03T11:36:57Z</time>
      </trkpt>
      <trkpt lat="42.62985" lon="1.72332">
        <ele>2101.0986328</ele>
        <time>2011-07-03T11:37:11Z</time>
      </trkpt>
      <trkpt lat="42.62981" lon="1.72332">
        <ele>2101.0986328</ele>
        <time>2011-07-03T11:37:14Z</time>
      </trkpt>
      <trkpt lat="42.6298" lon="1.72335">
        <ele>2101.5793457</ele>
        <time>2011-07-03T11:37:16Z</time>
      </trkpt>
      <trkpt lat="42.62972" lon="1.72344">
        <ele>2101.5793457</ele>
        <time>2011-07-03T11:37:29Z</time>
      </trkpt>
      <trkpt lat="42.62969" lon="1.72354">
        <ele>2103.5019531</ele>
        <time>2011-07-03T11:37:43Z</time>
      </trkpt>
      <trkpt lat="42.62971" lon="1.72358">
        <ele>2103.0212402</ele>
        <time>2011-07-03T11:37:47Z</time>
      </trkpt>
      <trkpt lat="42.62968" lon="1.7237">
        <ele>2102.0598145</ele>
        <time>2011-07-03T11:38:00Z</time>
      </trkpt>
      <trkpt lat="42.62966" lon="1.72378">
        <ele>2103.982666</ele>
        <time>2011-07-03T11:38:14Z</time>
      </trkpt>
      <trkpt lat="42.62968" lon="1.72387">
        <ele>2105.9050293</ele>
        <time>2011-07-03T11:38:26Z</time>
      </trkpt>
      <trkpt lat="42.62969" lon="1.72388">
        <ele>2105.9050293</ele>
        <time>2011-07-03T11:38:27Z</time>
      </trkpt>
      <trkpt lat="42.62974" lon="1.72389">
        <ele>2106.8664551</ele>
        <time>2011-07-03T11:38:41Z</time>
      </trkpt>
      <trkpt lat="42.62973" lon="1.72397">
        <ele>2109.7504883</ele>
        <time>2011-07-03T11:38:56Z</time>
      </trkpt>
      <trkpt lat="42.62971" lon="1.7241">
        <ele>2112.6345215</ele>
        <time>2011-07-03T11:39:08Z</time>
      </trkpt>
      <trkpt lat="42.62969" lon="1.72414">
        <ele>2113.1152344</ele>
        <time>2011-07-03T11:39:12Z</time>
      </trkpt>
      <trkpt lat="42.62963" lon="1.7243">
        <ele>2112.1538086</ele>
        <time>2011-07-03T11:39:25Z</time>
      </trkpt>
      <trkpt lat="42.62959" lon="1.72442">
        <ele>2112.1538086</ele>
        <time>2011-07-03T11:39:35Z</time>
      </trkpt>
      <trkpt lat="42.62951" lon="1.72459">
        <ele>2113.1152344</ele>
        <time>2011-07-03T11:39:49Z</time>
      </trkpt>
      <trkpt lat="42.62953" lon="1.72462">
        <ele>2112.6345215</ele>
        <time>2011-07-03T11:39:52Z</time>
      </trkpt>
      <trkpt lat="42.62961" lon="1.72474">
        <ele>2114.076416</ele>
        <time>2011-07-03T11:40:04Z</time>
      </trkpt>
      <trkpt lat="42.62968" lon="1.72481">
        <ele>2113.1152344</ele>
        <time>2011-07-03T11:40:17Z</time>
      </trkpt>
      <trkpt lat="42.62971" lon="1.72484">
        <ele>2113.1152344</ele>
        <time>2011-07-03T11:40:22Z</time>
      </trkpt>
      <trkpt lat="42.62978" lon="1.72499">
        <ele>2110.7119141</ele>
        <time>2011-07-03T11:40:37Z</time>
      </trkpt>
      <trkpt lat="42.62979" lon="1.725">
        <ele>2110.2312012</ele>
        <time>2011-07-03T11:40:38Z</time>
      </trkpt>
      <trkpt lat="42.62983" lon="1.72507">
        <ele>2108.7893066</ele>
        <time>2011-07-03T11:40:51Z</time>
      </trkpt>
      <trkpt lat="42.6299" lon="1.72512">
        <ele>2106.8664551</ele>
        <time>2011-07-03T11:41:02Z</time>
      </trkpt>
      <trkpt lat="42.62994" lon="1.72518">
        <ele>2105.4245605</ele>
        <time>2011-07-03T11:41:15Z</time>
      </trkpt>
      <trkpt lat="42.62997" lon="1.72524">
        <ele>2103.982666</ele>
        <time>2011-07-03T11:41:21Z</time>
      </trkpt>
      <trkpt lat="42.62997" lon="1.72539">
        <ele>2104.9438477</ele>
        <time>2011-07-03T11:41:30Z</time>
      </trkpt>
      <trkpt lat="42.62994" lon="1.72555">
        <ele>2103.982666</ele>
        <time>2011-07-03T11:41:44Z</time>
      </trkpt>
      <trkpt lat="42.6299" lon="1.72566">
        <ele>2102.0598145</ele>
        <time>2011-07-03T11:41:56Z</time>
      </trkpt>
      <trkpt lat="42.62988" lon="1.72569">
        <ele>2101.0986328</ele>
        <time>2011-07-03T11:41:59Z</time>
      </trkpt>
      <trkpt lat="42.62985" lon="1.72572">
        <ele>2101.5793457</ele>
        <time>2011-07-03T11:42:04Z</time>
      </trkpt>
      <trkpt lat="42.62984" lon="1.72575">
        <ele>2100.6179199</ele>
        <time>2011-07-03T11:42:07Z</time>
      </trkpt>
      <trkpt lat="42.62988" lon="1.72587">
        <ele>2100.1374512</ele>
        <time>2011-07-03T11:42:24Z</time>
      </trkpt>
      <trkpt lat="42.62992" lon="1.72594">
        <ele>2099.6567383</ele>
        <time>2011-07-03T11:42:38Z</time>
      </trkpt>
      <trkpt lat="42.62993" lon="1.72595">
        <ele>2100.1374512</ele>
        <time>2011-07-03T11:43:03Z</time>
      </trkpt>
      <trkpt lat="42.62994" lon="1.72599">
        <ele>2101.5793457</ele>
        <time>2011-07-03T11:43:25Z</time>
      </trkpt>
      <trkpt lat="42.63001" lon="1.72602">
        <ele>2100.1374512</ele>
        <time>2011-07-03T11:43:45Z</time>
      </trkpt>
      <trkpt lat="42.63008" lon="1.72604">
        <ele>2101.0986328</ele>
        <time>2011-07-03T11:43:59Z</time>
      </trkpt>
      <trkpt lat="42.63014" lon="1.72596">
        <ele>2099.1760254</ele>
        <time>2011-07-03T11:44:12Z</time>
      </trkpt>
      <trkpt lat="42.63023" lon="1.72591">
        <ele>2099.1760254</ele>
        <time>2011-07-03T11:44:26Z</time>
      </trkpt>
      <trkpt lat="42.63031" lon="1.72588">
        <ele>2099.6567383</ele>
        <time>2011-07-03T11:44:49Z</time>
      </trkpt>
      <trkpt lat="42.63039" lon="1.72587">
        <ele>2101.5793457</ele>
        <time>2011-07-03T11:45:05Z</time>
      </trkpt>
      <trkpt lat="42.63042" lon="1.72584">
        <ele>2101.5793457</ele>
        <time>2011-07-03T11:45:09Z</time>
      </trkpt>
      <trkpt lat="42.63056" lon="1.72583">
        <ele>2102.0598145</ele>
        <time>2011-07-03T11:45:21Z</time>
      </trkpt>
      <trkpt lat="42.63067" lon="1.72583">
        <ele>2101.0986328</ele>
        <time>2011-07-03T11:45:32Z</time>
      </trkpt>
      <trkpt lat="42.63075" lon="1.72588">
        <ele>2099.6567383</ele>
        <time>2011-07-03T11:45:49Z</time>
      </trkpt>
      <trkpt lat="42.63085" lon="1.72596">
        <ele>2098.6953125</ele>
        <time>2011-07-03T11:46:06Z</time>
      </trkpt>
      <trkpt lat="42.63092" lon="1.72606">
        <ele>2095.8115234</ele>
        <time>2011-07-03T11:46:21Z</time>
      </trkpt>
      <trkpt lat="42.63106" lon="1.72621">
        <ele>2095.8115234</ele>
        <time>2011-07-03T11:46:38Z</time>
      </trkpt>
      <trkpt lat="42.63107" lon="1.72627">
        <ele>2099.1760254</ele>
        <time>2011-07-03T11:46:46Z</time>
      </trkpt>
      <trkpt lat="42.63112" lon="1.72631">
        <ele>2100.6179199</ele>
        <time>2011-07-03T11:46:57Z</time>
      </trkpt>
      <trkpt lat="42.63121" lon="1.72609">
        <ele>2101.5793457</ele>
        <time>2011-07-03T11:47:11Z</time>
      </trkpt>
      <trkpt lat="42.63124" lon="1.7261">
        <ele>2104.4631348</ele>
        <time>2011-07-03T11:47:25Z</time>
      </trkpt>
      <trkpt lat="42.63126" lon="1.72611">
        <ele>2107.347168</ele>
        <time>2011-07-03T11:47:35Z</time>
      </trkpt>
      <trkpt lat="42.63123" lon="1.72621">
        <ele>2108.3085938</ele>
        <time>2011-07-03T11:47:47Z</time>
      </trkpt>
      <trkpt lat="42.63124" lon="1.72626">
        <ele>2109.2700195</ele>
        <time>2011-07-03T11:47:59Z</time>
      </trkpt>
      <trkpt lat="42.6312" lon="1.72632">
        <ele>2111.192627</ele>
        <time>2011-07-03T11:48:12Z</time>
      </trkpt>
      <trkpt lat="42.63116" lon="1.72639">
        <ele>2112.1538086</ele>
        <time>2011-07-03T11:48:24Z</time>
      </trkpt>
      <trkpt lat="42.63116" lon="1.72643">
        <ele>2115.0378418</ele>
        <time>2011-07-03T11:48:35Z</time>
      </trkpt>
      <trkpt lat="42.63123" lon="1.7265">
        <ele>2118.8830566</ele>
        <time>2011-07-03T11:48:50Z</time>
      </trkpt>
      <trkpt lat="42.63128" lon="1.72663">
        <ele>2120.3249512</ele>
        <time>2011-07-03T11:49:07Z</time>
      </trkpt>
      <trkpt lat="42.63131" lon="1.72668">
        <ele>2118.4023438</ele>
        <time>2011-07-03T11:49:24Z</time>
      </trkpt>
      <trkpt lat="42.6314" lon="1.72672">
        <ele>2117.9216309</ele>
        <time>2011-07-03T11:49:38Z</time>
      </trkpt>
      <trkpt lat="42.63148" lon="1.72675">
        <ele>2118.8830566</ele>
        <time>2011-07-03T11:49:52Z</time>
      </trkpt>
      <trkpt lat="42.63157" lon="1.72676">
        <ele>2120.8056641</ele>
        <time>2011-07-03T11:50:06Z</time>
      </trkpt>
      <trkpt lat="42.63165" lon="1.72678">
        <ele>2119.8442383</ele>
        <time>2011-07-03T11:50:23Z</time>
      </trkpt>
      <trkpt lat="42.63176" lon="1.72674">
        <ele>2119.8442383</ele>
        <time>2011-07-03T11:50:43Z</time>
      </trkpt>
      <trkpt lat="42.63191" lon="1.72675">
        <ele>2121.2861328</ele>
        <time>2011-07-03T11:51:00Z</time>
      </trkpt>
      <trkpt lat="42.63199" lon="1.72672">
        <ele>2120.8056641</ele>
        <time>2011-07-03T11:51:12Z</time>
      </trkpt>
      <trkpt lat="42.63203" lon="1.72673">
        <ele>2122.2475586</ele>
        <time>2011-07-03T11:51:16Z</time>
      </trkpt>
      <trkpt lat="42.63214" lon="1.72672">
        <ele>2123.2089844</ele>
        <time>2011-07-03T11:51:32Z</time>
      </trkpt>
      <trkpt lat="42.63224" lon="1.72671">
        <ele>2124.1704102</ele>
        <time>2011-07-03T11:51:48Z</time>
      </trkpt>
      <trkpt lat="42.63233" lon="1.72665">
        <ele>2123.2089844</ele>
        <time>2011-07-03T11:52:01Z</time>
      </trkpt>
      <trkpt lat="42.6324" lon="1.72663">
        <ele>2125.1315918</ele>
        <time>2011-07-03T11:52:16Z</time>
      </trkpt>
      <trkpt lat="42.63243" lon="1.72664">
        <ele>2125.6123047</ele>
        <time>2011-07-03T11:52:23Z</time>
      </trkpt>
      <trkpt lat="42.63255" lon="1.72665">
        <ele>2125.1315918</ele>
        <time>2011-07-03T11:52:38Z</time>
      </trkpt>
      <trkpt lat="42.63263" lon="1.72664">
        <ele>2125.6123047</ele>
        <time>2011-07-03T11:52:57Z</time>
      </trkpt>
      <trkpt lat="42.63269" lon="1.72666">
        <ele>2128.4963379</ele>
        <time>2011-07-03T11:53:21Z</time>
      </trkpt>
      <trkpt lat="42.63278" lon="1.7267">
        <ele>2130.4189453</ele>
        <time>2011-07-03T11:53:37Z</time>
      </trkpt>
      <trkpt lat="42.6328" lon="1.72667">
        <ele>2129.4575195</ele>
        <time>2011-07-03T11:53:51Z</time>
      </trkpt>
      <trkpt lat="42.63293" lon="1.72653">
        <ele>2127.5349121</ele>
        <time>2011-07-03T11:54:10Z</time>
      </trkpt>
      <trkpt lat="42.63308" lon="1.72648">
        <ele>2126.0930176</ele>
        <time>2011-07-03T11:54:28Z</time>
      </trkpt>
      <trkpt lat="42.63312" lon="1.72646">
        <ele>2126.0930176</ele>
        <time>2011-07-03T11:54:35Z</time>
      </trkpt>
      <trkpt lat="42.63315" lon="1.72643">
        <ele>2124.651123</ele>
        <time>2011-07-03T11:54:39Z</time>
      </trkpt>
      <trkpt lat="42.63326" lon="1.72644">
        <ele>2124.1704102</ele>
        <time>2011-07-03T11:54:55Z</time>
      </trkpt>
      <trkpt lat="42.63335" lon="1.72642">
        <ele>2123.6894531</ele>
        <time>2011-07-03T11:55:08Z</time>
      </trkpt>
      <trkpt lat="42.63345" lon="1.72641">
        <ele>2121.7668457</ele>
        <time>2011-07-03T11:55:21Z</time>
      </trkpt>
      <trkpt lat="42.63351" lon="1.72636">
        <ele>2119.8442383</ele>
        <time>2011-07-03T11:55:34Z</time>
      </trkpt>
      <trkpt lat="42.6336" lon="1.72632">
        <ele>2117.9216309</ele>
        <time>2011-07-03T11:55:49Z</time>
      </trkpt>
      <trkpt lat="42.63374" lon="1.72637">
        <ele>2116.4797363</ele>
        <time>2011-07-03T11:56:06Z</time>
      </trkpt>
      <trkpt lat="42.63382" lon="1.72637">
        <ele>2116.9604492</ele>
        <time>2011-07-03T11:56:24Z</time>
      </trkpt>
      <trkpt lat="42.63396" lon="1.7263">
        <ele>2115.0378418</ele>
        <time>2011-07-03T11:56:40Z</time>
      </trkpt>
      <trkpt lat="42.63403" lon="1.72623">
        <ele>2114.076416</ele>
        <time>2011-07-03T11:56:47Z</time>
      </trkpt>
      <trkpt lat="42.63413" lon="1.72621">
        <ele>2112.6345215</ele>
        <time>2011-07-03T11:56:57Z</time>
      </trkpt>
      <trkpt lat="42.63423" lon="1.7262">
        <ele>2113.1152344</ele>
        <time>2011-07-03T11:57:05Z</time>
      </trkpt>
      <trkpt lat="42.63434" lon="1.72622">
        <ele>2114.5571289</ele>
        <time>2011-07-03T11:57:18Z</time>
      </trkpt>
      <trkpt lat="42.63444" lon="1.72623">
        <ele>2116.9604492</ele>
        <time>2011-07-03T11:57:31Z</time>
      </trkpt>
      <trkpt lat="42.63443" lon="1.72621">
        <ele>2118.8830566</ele>
        <time>2011-07-03T11:57:47Z</time>
      </trkpt>
      <trkpt lat="42.63438" lon="1.72628">
        <ele>2121.7668457</ele>
        <time>2011-07-03T11:57:59Z</time>
      </trkpt>
      <trkpt lat="42.63444" lon="1.72632">
        <ele>2125.1315918</ele>
        <time>2011-07-03T11:58:10Z</time>
      </trkpt>
      <trkpt lat="42.63444" lon="1.72632">
        <ele>2125.6123047</ele>
        <time>2011-07-03T11:58:11Z</time>
      </trkpt>
      <trkpt lat="42.63455" lon="1.7264">
        <ele>2128.4963379</ele>
        <time>2011-07-03T11:58:25Z</time>
      </trkpt>
      <trkpt lat="42.63448" lon="1.72644">
        <ele>2128.9768066</ele>
        <time>2011-07-03T11:58:36Z</time>
      </trkpt>
      <trkpt lat="42.6344" lon="1.72653">
        <ele>2132.3415527</ele>
        <time>2011-07-03T11:58:51Z</time>
      </trkpt>
      <trkpt lat="42.63442" lon="1.72658">
        <ele>2133.7834473</ele>
        <time>2011-07-03T11:59:03Z</time>
      </trkpt>
      <trkpt lat="42.63453" lon="1.72662">
        <ele>2137.6286621</ele>
        <time>2011-07-03T11:59:20Z</time>
      </trkpt>
      <trkpt lat="42.63464" lon="1.72663">
        <ele>2139.0705566</ele>
        <time>2011-07-03T11:59:37Z</time>
      </trkpt>
      <trkpt lat="42.6347" lon="1.72665">
        <ele>2141.4741211</ele>
        <time>2011-07-03T11:59:53Z</time>
      </trkpt>
      <trkpt lat="42.63481" lon="1.72667">
        <ele>2143.3967285</ele>
        <time>2011-07-03T12:00:11Z</time>
      </trkpt>
      <trkpt lat="42.63482" lon="1.72667">
        <ele>2144.3579102</ele>
        <time>2011-07-03T12:00:13Z</time>
      </trkpt>
      <trkpt lat="42.63493" lon="1.7266">
        <ele>2146.2807617</ele>
        <time>2011-07-03T12:00:34Z</time>
      </trkpt>
      <trkpt lat="42.63504" lon="1.72656">
        <ele>2147.2419434</ele>
        <time>2011-07-03T12:00:42Z</time>
      </trkpt>
      <trkpt lat="42.63514" lon="1.72658">
        <ele>2151.0871582</ele>
        <time>2011-07-03T12:00:55Z</time>
      </trkpt>
      <trkpt lat="42.63521" lon="1.72659">
        <ele>2151.5678711</ele>
        <time>2011-07-03T12:01:06Z</time>
      </trkpt>
      <trkpt lat="42.63529" lon="1.72661">
        <ele>2152.5290527</ele>
        <time>2011-07-03T12:01:20Z</time>
      </trkpt>
      <trkpt lat="42.63534" lon="1.72662">
        <ele>2153.4904785</ele>
        <time>2011-07-03T12:01:32Z</time>
      </trkpt>
      <trkpt lat="42.63541" lon="1.72667">
        <ele>2153.4904785</ele>
        <time>2011-07-03T12:01:45Z</time>
      </trkpt>
      <trkpt lat="42.63545" lon="1.72663">
        <ele>2153.0097656</ele>
        <time>2011-07-03T12:01:58Z</time>
      </trkpt>
      <trkpt lat="42.63547" lon="1.7266">
        <ele>2153.4904785</ele>
        <time>2011-07-03T12:02:12Z</time>
      </trkpt>
      <trkpt lat="42.63551" lon="1.7265">
        <ele>2153.4904785</ele>
        <time>2011-07-03T12:02:26Z</time>
      </trkpt>
      <trkpt lat="42.63558" lon="1.72653">
        <ele>2155.4130859</ele>
        <time>2011-07-03T12:02:39Z</time>
      </trkpt>
      <trkpt lat="42.63562" lon="1.72657">
        <ele>2157.8166504</ele>
        <time>2011-07-03T12:02:46Z</time>
      </trkpt>
      <trkpt lat="42.63568" lon="1.7266">
        <ele>2160.7004395</ele>
        <time>2011-07-03T12:03:01Z</time>
      </trkpt>
      <trkpt lat="42.63574" lon="1.72661">
        <ele>2162.6230469</ele>
        <time>2011-07-03T12:03:14Z</time>
      </trkpt>
      <trkpt lat="42.63576" lon="1.72663">
        <ele>2164.5456543</ele>
        <time>2011-07-03T12:03:19Z</time>
      </trkpt>
      <trkpt lat="42.6358" lon="1.7266">
        <ele>2164.5456543</ele>
        <time>2011-07-03T12:03:25Z</time>
      </trkpt>
      <trkpt lat="42.63583" lon="1.72655">
        <ele>2166.4682617</ele>
        <time>2011-07-03T12:03:43Z</time>
      </trkpt>
      <trkpt lat="42.63589" lon="1.72654">
        <ele>2168.3908691</ele>
        <time>2011-07-03T12:03:48Z</time>
      </trkpt>
      <trkpt lat="42.63591" lon="1.72652">
        <ele>2167.4294434</ele>
        <time>2011-07-03T12:03:51Z</time>
      </trkpt>
      <trkpt lat="42.63593" lon="1.72646">
        <ele>2167.4294434</ele>
        <time>2011-07-03T12:03:56Z</time>
      </trkpt>
      <trkpt lat="42.63599" lon="1.72636">
        <ele>2168.3908691</ele>
        <time>2011-07-03T12:04:06Z</time>
      </trkpt>
      <trkpt lat="42.63605" lon="1.72619">
        <ele>2169.3522949</ele>
        <time>2011-07-03T12:04:22Z</time>
      </trkpt>
      <trkpt lat="42.63612" lon="1.72615">
        <ele>2170.3134766</ele>
        <time>2011-07-03T12:04:31Z</time>
      </trkpt>
      <trkpt lat="42.63616" lon="1.72609">
        <ele>2171.2746582</ele>
        <time>2011-07-03T12:04:38Z</time>
      </trkpt>
      <trkpt lat="42.6362" lon="1.72608">
        <ele>2171.7553711</ele>
        <time>2011-07-03T12:04:41Z</time>
      </trkpt>
      <trkpt lat="42.63623" lon="1.72608">
        <ele>2171.2746582</ele>
        <time>2011-07-03T12:04:44Z</time>
      </trkpt>
      <trkpt lat="42.63626" lon="1.72607">
        <ele>2170.7941895</ele>
        <time>2011-07-03T12:04:46Z</time>
      </trkpt>
      <trkpt lat="42.63639" lon="1.72601">
        <ele>2169.3522949</ele>
        <time>2011-07-03T12:05:01Z</time>
      </trkpt>
      <trkpt lat="42.63649" lon="1.72598">
        <ele>2171.2746582</ele>
        <time>2011-07-03T12:05:12Z</time>
      </trkpt>
      <trkpt lat="42.63655" lon="1.72598">
        <ele>2170.7941895</ele>
        <time>2011-07-03T12:05:18Z</time>
      </trkpt>
      <trkpt lat="42.63659" lon="1.72594">
        <ele>2170.7941895</ele>
        <time>2011-07-03T12:05:22Z</time>
      </trkpt>
      <trkpt lat="42.63663" lon="1.7259">
        <ele>2170.7941895</ele>
        <time>2011-07-03T12:05:27Z</time>
      </trkpt>
      <trkpt lat="42.63678" lon="1.72584">
        <ele>2168.871582</ele>
        <time>2011-07-03T12:05:41Z</time>
      </trkpt>
      <trkpt lat="42.63692" lon="1.72582">
        <ele>2168.3908691</ele>
        <time>2011-07-03T12:05:54Z</time>
      </trkpt>
      <trkpt lat="42.63699" lon="1.72582">
        <ele>2168.3908691</ele>
        <time>2011-07-03T12:06:00Z</time>
      </trkpt>
      <trkpt lat="42.6371" lon="1.72585">
        <ele>2170.3134766</ele>
        <time>2011-07-03T12:06:15Z</time>
      </trkpt>
      <trkpt lat="42.63718" lon="1.72586">
        <ele>2172.2363281</ele>
        <time>2011-07-03T12:06:27Z</time>
      </trkpt>
      <trkpt lat="42.63728" lon="1.72583">
        <ele>2174.1589355</ele>
        <time>2011-07-03T12:06:39Z</time>
      </trkpt>
      <trkpt lat="42.63736" lon="1.72579">
        <ele>2175.6008301</ele>
        <time>2011-07-03T12:06:51Z</time>
      </trkpt>
      <trkpt lat="42.6374" lon="1.72579">
        <ele>2175.6008301</ele>
        <time>2011-07-03T12:06:55Z</time>
      </trkpt>
      <trkpt lat="42.63749" lon="1.72583">
        <ele>2178.4848633</ele>
        <time>2011-07-03T12:07:05Z</time>
      </trkpt>
      <trkpt lat="42.63752" lon="1.72584">
        <ele>2178.965332</ele>
        <time>2011-07-03T12:07:09Z</time>
      </trkpt>
      <trkpt lat="42.63758" lon="1.7258">
        <ele>2179.9267578</ele>
        <time>2011-07-03T12:07:21Z</time>
      </trkpt>
      <trkpt lat="42.6377" lon="1.7258">
        <ele>2178.965332</ele>
        <time>2011-07-03T12:07:34Z</time>
      </trkpt>
      <trkpt lat="42.63773" lon="1.72582">
        <ele>2179.9267578</ele>
        <time>2011-07-03T12:07:37Z</time>
      </trkpt>
      <trkpt lat="42.63776" lon="1.72582">
        <ele>2180.8881836</ele>
        <time>2011-07-03T12:07:41Z</time>
      </trkpt>
      <trkpt lat="42.63784" lon="1.72581">
        <ele>2180.8881836</ele>
        <time>2011-07-03T12:07:50Z</time>
      </trkpt>
      <trkpt lat="42.63786" lon="1.72583">
        <ele>2180.8881836</ele>
        <time>2011-07-03T12:07:52Z</time>
      </trkpt>
      <trkpt lat="42.63798" lon="1.72589">
        <ele>2181.8493652</ele>
        <time>2011-07-03T12:08:07Z</time>
      </trkpt>
      <trkpt lat="42.63798" lon="1.7259">
        <ele>2183.2912598</ele>
        <time>2011-07-03T12:08:09Z</time>
      </trkpt>
      <trkpt lat="42.63804" lon="1.72593">
        <ele>2183.7719727</ele>
        <time>2011-07-03T12:08:21Z</time>
      </trkpt>
      <trkpt lat="42.63814" lon="1.72601">
        <ele>2183.7719727</ele>
        <time>2011-07-03T12:08:33Z</time>
      </trkpt>
      <trkpt lat="42.6382" lon="1.72599">
        <ele>2182.8105469</ele>
        <time>2011-07-03T12:08:45Z</time>
      </trkpt>
      <trkpt lat="42.63821" lon="1.72597">
        <ele>2182.3300781</ele>
        <time>2011-07-03T12:09:03Z</time>
      </trkpt>
      <trkpt lat="42.63818" lon="1.7259">
        <ele>2183.7719727</ele>
        <time>2011-07-03T12:10:04Z</time>
      </trkpt>
      <trkpt lat="42.63819" lon="1.72589">
        <ele>2184.2526855</ele>
        <time>2011-07-03T12:17:54Z</time>
      </trkpt>
      <trkpt lat="42.63817" lon="1.72585">
        <ele>2187.1364746</ele>
        <time>2011-07-03T12:20:51Z</time>
      </trkpt>
      <trkpt lat="42.63817" lon="1.72586">
        <ele>2185.6945801</ele>
        <time>2011-07-03T12:21:04Z</time>
      </trkpt>
      <trkpt lat="42.63816" lon="1.72599">
        <ele>2184.2526855</ele>
        <time>2011-07-03T12:22:54Z</time>
      </trkpt>
      <trkpt lat="42.63823" lon="1.72608">
        <ele>2184.7333984</ele>
        <time>2011-07-03T12:23:25Z</time>
      </trkpt>
      <trkpt lat="42.63828" lon="1.72612">
        <ele>2184.7333984</ele>
        <time>2011-07-03T12:23:28Z</time>
      </trkpt>
      <trkpt lat="42.63831" lon="1.72619">
        <ele>2184.2526855</ele>
        <time>2011-07-03T12:23:32Z</time>
      </trkpt>
      <trkpt lat="42.63836" lon="1.72625">
        <ele>2184.2526855</ele>
        <time>2011-07-03T12:23:38Z</time>
      </trkpt>
      <trkpt lat="42.63837" lon="1.72628">
        <ele>2185.2138672</ele>
        <time>2011-07-03T12:23:41Z</time>
      </trkpt>
      <trkpt lat="42.63844" lon="1.72639">
        <ele>2184.7333984</ele>
        <time>2011-07-03T12:23:51Z</time>
      </trkpt>
      <trkpt lat="42.63849" lon="1.72646">
        <ele>2183.7719727</ele>
        <time>2011-07-03T12:23:57Z</time>
      </trkpt>
      <trkpt lat="42.6386" lon="1.72664">
        <ele>2183.2912598</ele>
        <time>2011-07-03T12:24:12Z</time>
      </trkpt>
      <trkpt lat="42.63861" lon="1.72668">
        <ele>2184.7333984</ele>
        <time>2011-07-03T12:24:16Z</time>
      </trkpt>
      <trkpt lat="42.63872" lon="1.72685">
        <ele>2184.7333984</ele>
        <time>2011-07-03T12:24:30Z</time>
      </trkpt>
      <trkpt lat="42.63884" lon="1.72694">
        <ele>2185.6945801</ele>
        <time>2011-07-03T12:24:44Z</time>
      </trkpt>
      <trkpt lat="42.63887" lon="1.72696">
        <ele>2186.175293</ele>
        <time>2011-07-03T12:24:47Z</time>
      </trkpt>
      <trkpt lat="42.63892" lon="1.72708">
        <ele>2189.5400391</ele>
        <time>2011-07-03T12:25:00Z</time>
      </trkpt>
      <trkpt lat="42.63899" lon="1.72712">
        <ele>2192.904541</ele>
        <time>2011-07-03T12:25:14Z</time>
      </trkpt>
      <trkpt lat="42.63908" lon="1.72722">
        <ele>2194.3464355</ele>
        <time>2011-07-03T12:25:30Z</time>
      </trkpt>
      <trkpt lat="42.6391" lon="1.72725">
        <ele>2194.8271484</ele>
        <time>2011-07-03T12:25:34Z</time>
      </trkpt>
      <trkpt lat="42.63917" lon="1.72733">
        <ele>2197.7111816</ele>
        <time>2011-07-03T12:25:47Z</time>
      </trkpt>
      <trkpt lat="42.63919" lon="1.72741">
        <ele>2201.0756836</ele>
        <time>2011-07-03T12:25:57Z</time>
      </trkpt>
      <trkpt lat="42.63923" lon="1.72745">
        <ele>2201.0756836</ele>
        <time>2011-07-03T12:26:15Z</time>
      </trkpt>
      <trkpt lat="42.63928" lon="1.72749">
        <ele>2203.9597168</ele>
        <time>2011-07-03T12:26:25Z</time>
      </trkpt>
      <trkpt lat="42.63936" lon="1.72758">
        <ele>2207.3244629</ele>
        <time>2011-07-03T12:26:39Z</time>
      </trkpt>
      <trkpt lat="42.63937" lon="1.72766">
        <ele>2206.3630371</ele>
        <time>2011-07-03T12:26:46Z</time>
      </trkpt>
      <trkpt lat="42.63938" lon="1.7277">
        <ele>2207.3244629</ele>
        <time>2011-07-03T12:26:50Z</time>
      </trkpt>
      <trkpt lat="42.63942" lon="1.72787">
        <ele>2209.2470703</ele>
        <time>2011-07-03T12:27:03Z</time>
      </trkpt>
      <trkpt lat="42.63946" lon="1.72807">
        <ele>2209.2470703</ele>
        <time>2011-07-03T12:27:21Z</time>
      </trkpt>
      <trkpt lat="42.63941" lon="1.72825">
        <ele>2212.6115723</ele>
        <time>2011-07-03T12:27:37Z</time>
      </trkpt>
      <trkpt lat="42.63943" lon="1.72841">
        <ele>2213.5727539</ele>
        <time>2011-07-03T12:27:51Z</time>
      </trkpt>
      <trkpt lat="42.63945" lon="1.72861">
        <ele>2213.0922852</ele>
        <time>2011-07-03T12:28:07Z</time>
      </trkpt>
      <trkpt lat="42.63945" lon="1.72867">
        <ele>2213.5727539</ele>
        <time>2011-07-03T12:28:29Z</time>
      </trkpt>
      <trkpt lat="42.63949" lon="1.72866">
        <ele>2214.0534668</ele>
        <time>2011-07-03T12:28:49Z</time>
      </trkpt>
      <trkpt lat="42.63947" lon="1.72876">
        <ele>2214.0534668</ele>
        <time>2011-07-03T12:29:44Z</time>
      </trkpt>
      <trkpt lat="42.63947" lon="1.72877">
        <ele>2217.4179688</ele>
        <time>2011-07-03T12:31:40Z</time>
      </trkpt>
      <trkpt lat="42.63948" lon="1.72874">
        <ele>2215.9760742</ele>
        <time>2011-07-03T12:32:02Z</time>
      </trkpt>
      <trkpt lat="42.63951" lon="1.72867">
        <ele>2215.9760742</ele>
        <time>2011-07-03T12:32:50Z</time>
      </trkpt>
      <trkpt lat="42.63952" lon="1.72863">
        <ele>2215.9760742</ele>
        <time>2011-07-03T12:33:08Z</time>
      </trkpt>
      <trkpt lat="42.63961" lon="1.7287">
        <ele>2215.9760742</ele>
        <time>2011-07-03T12:37:27Z</time>
      </trkpt>
      <trkpt lat="42.63962" lon="1.7287">
        <ele>2216.4567871</ele>
        <time>2011-07-03T12:37:28Z</time>
      </trkpt>
      <trkpt lat="42.63964" lon="1.7287">
        <ele>2217.8986816</ele>
        <time>2011-07-03T12:37:30Z</time>
      </trkpt>
      <trkpt lat="42.6397" lon="1.72874">
        <ele>2219.8212891</ele>
        <time>2011-07-03T12:37:39Z</time>
      </trkpt>
      <trkpt lat="42.63979" lon="1.72878">
        <ele>2220.782959</ele>
        <time>2011-07-03T12:37:51Z</time>
      </trkpt>
      <trkpt lat="42.63982" lon="1.72878">
        <ele>2222.7055664</ele>
        <time>2011-07-03T12:37:54Z</time>
      </trkpt>
      <trkpt lat="42.63994" lon="1.72878">
        <ele>2225.1086426</ele>
        <time>2011-07-03T12:38:08Z</time>
      </trkpt>
      <trkpt lat="42.64009" lon="1.72878">
        <ele>2224.1474609</ele>
        <time>2011-07-03T12:38:23Z</time>
      </trkpt>
      <trkpt lat="42.6401" lon="1.72878">
        <ele>2224.1474609</ele>
        <time>2011-07-03T12:38:24Z</time>
      </trkpt>
      <trkpt lat="42.6401" lon="1.72879">
        <ele>2224.1474609</ele>
        <time>2011-07-03T12:38:27Z</time>
      </trkpt>
      <trkpt lat="42.64018" lon="1.72879">
        <ele>2225.1086426</ele>
        <time>2011-07-03T12:38:33Z</time>
      </trkpt>
      <trkpt lat="42.64032" lon="1.72875">
        <ele>2225.5893555</ele>
        <time>2011-07-03T12:38:47Z</time>
      </trkpt>
      <trkpt lat="42.64045" lon="1.72862">
        <ele>2225.1086426</ele>
        <time>2011-07-03T12:39:05Z</time>
      </trkpt>
      <trkpt lat="42.64045" lon="1.72861">
        <ele>2225.1086426</ele>
        <time>2011-07-03T12:39:06Z</time>
      </trkpt>
      <trkpt lat="42.64045" lon="1.72858">
        <ele>2227.0314941</ele>
        <time>2011-07-03T12:39:09Z</time>
      </trkpt>
      <trkpt lat="42.64047" lon="1.72852">
        <ele>2225.5893555</ele>
        <time>2011-07-03T12:39:14Z</time>
      </trkpt>
      <trkpt lat="42.64052" lon="1.72845">
        <ele>2228.4733887</ele>
        <time>2011-07-03T12:39:18Z</time>
      </trkpt>
      <trkpt lat="42.64053" lon="1.72842">
        <ele>2227.0314941</ele>
        <time>2011-07-03T12:39:20Z</time>
      </trkpt>
      <trkpt lat="42.64055" lon="1.72838">
        <ele>2229.9152832</ele>
        <time>2011-07-03T12:39:26Z</time>
      </trkpt>
      <trkpt lat="42.64065" lon="1.72829">
        <ele>2229.9152832</ele>
        <time>2011-07-03T12:39:42Z</time>
      </trkpt>
      <trkpt lat="42.64064" lon="1.72829">
        <ele>2230.876709</ele>
        <time>2011-07-03T12:40:12Z</time>
      </trkpt>
      <trkpt lat="42.64067" lon="1.72812">
        <ele>2231.3571777</ele>
        <time>2011-07-03T12:40:24Z</time>
      </trkpt>
      <trkpt lat="42.64068" lon="1.72811">
        <ele>2230.876709</ele>
        <time>2011-07-03T12:40:25Z</time>
      </trkpt>
      <trkpt lat="42.64072" lon="1.72796">
        <ele>2234.2412109</ele>
        <time>2011-07-03T12:40:36Z</time>
      </trkpt>
      <trkpt lat="42.64078" lon="1.72784">
        <ele>2235.6831055</ele>
        <time>2011-07-03T12:40:51Z</time>
      </trkpt>
      <trkpt lat="42.64086" lon="1.72766">
        <ele>2238.0866699</ele>
        <time>2011-07-03T12:41:03Z</time>
      </trkpt>
      <trkpt lat="42.64088" lon="1.72761">
        <ele>2237.1252441</ele>
        <time>2011-07-03T12:41:05Z</time>
      </trkpt>
      <trkpt lat="42.64084" lon="1.7276">
        <ele>2238.5673828</ele>
        <time>2011-07-03T12:41:07Z</time>
      </trkpt>
      <trkpt lat="42.64085" lon="1.72751">
        <ele>2237.605957</ele>
        <time>2011-07-03T12:41:14Z</time>
      </trkpt>
      <trkpt lat="42.6409" lon="1.72733">
        <ele>2240.0092773</ele>
        <time>2011-07-03T12:41:29Z</time>
      </trkpt>
      <trkpt lat="42.64094" lon="1.72715">
        <ele>2242.4125977</ele>
        <time>2011-07-03T12:41:40Z</time>
      </trkpt>
      <trkpt lat="42.64095" lon="1.72714">
        <ele>2240.4897461</ele>
        <time>2011-07-03T12:41:42Z</time>
      </trkpt>
      <trkpt lat="42.64094" lon="1.72708">
        <ele>2241.4511719</ele>
        <time>2011-07-03T12:41:47Z</time>
      </trkpt>
      <trkpt lat="42.64093" lon="1.72705">
        <ele>2244.3349609</ele>
        <time>2011-07-03T12:41:51Z</time>
      </trkpt>
      <trkpt lat="42.64097" lon="1.72698">
        <ele>2244.8156738</ele>
        <time>2011-07-03T12:41:58Z</time>
      </trkpt>
      <trkpt lat="42.64104" lon="1.7269">
        <ele>2244.3349609</ele>
        <time>2011-07-03T12:42:07Z</time>
      </trkpt>
      <trkpt lat="42.64105" lon="1.72688">
        <ele>2246.2578125</ele>
        <time>2011-07-03T12:42:09Z</time>
      </trkpt>
      <trkpt lat="42.64108" lon="1.72686">
        <ele>2246.2578125</ele>
        <time>2011-07-03T12:42:13Z</time>
      </trkpt>
      <trkpt lat="42.64114" lon="1.72684">
        <ele>2245.2963867</ele>
        <time>2011-07-03T12:42:33Z</time>
      </trkpt>
      <trkpt lat="42.64119" lon="1.72687">
        <ele>2243.8544922</ele>
        <time>2011-07-03T12:42:46Z</time>
      </trkpt>
      <trkpt lat="42.64138" lon="1.72694">
        <ele>2240.970459</ele>
        <time>2011-07-03T12:43:01Z</time>
      </trkpt>
      <trkpt lat="42.64146" lon="1.72701">
        <ele>2238.5673828</ele>
        <time>2011-07-03T12:43:11Z</time>
      </trkpt>
      <trkpt lat="42.6415" lon="1.72708">
        <ele>2236.6445313</ele>
        <time>2011-07-03T12:43:19Z</time>
      </trkpt>
      <trkpt lat="42.64158" lon="1.72717">
        <ele>2233.760498</ele>
        <time>2011-07-03T12:43:32Z</time>
      </trkpt>
      <trkpt lat="42.6416" lon="1.72719">
        <ele>2234.2412109</ele>
        <time>2011-07-03T12:43:36Z</time>
      </trkpt>
      <trkpt lat="42.64162" lon="1.72722">
        <ele>2232.7990723</ele>
        <time>2011-07-03T12:43:39Z</time>
      </trkpt>
      <trkpt lat="42.64177" lon="1.72732">
        <ele>2230.876709</ele>
        <time>2011-07-03T12:43:53Z</time>
      </trkpt>
      <trkpt lat="42.6418" lon="1.72733">
        <ele>2231.3571777</ele>
        <time>2011-07-03T12:43:57Z</time>
      </trkpt>
      <trkpt lat="42.64194" lon="1.72738">
        <ele>2228.9538574</ele>
        <time>2011-07-03T12:44:08Z</time>
      </trkpt>
      <trkpt lat="42.64203" lon="1.72748">
        <ele>2228.9538574</ele>
        <time>2011-07-03T12:44:23Z</time>
      </trkpt>
      <trkpt lat="42.64205" lon="1.72753">
        <ele>2227.9926758</ele>
        <time>2011-07-03T12:44:27Z</time>
      </trkpt>
      <trkpt lat="42.64208" lon="1.7276">
        <ele>2228.9538574</ele>
        <time>2011-07-03T12:44:32Z</time>
      </trkpt>
      <trkpt lat="42.64223" lon="1.72773">
        <ele>2227.0314941</ele>
        <time>2011-07-03T12:44:47Z</time>
      </trkpt>
      <trkpt lat="42.64236" lon="1.72778">
        <ele>2228.9538574</ele>
        <time>2011-07-03T12:45:03Z</time>
      </trkpt>
      <trkpt lat="42.64253" lon="1.72777">
        <ele>2229.4345703</ele>
        <time>2011-07-03T12:45:17Z</time>
      </trkpt>
      <trkpt lat="42.64262" lon="1.72777">
        <ele>2232.3186035</ele>
        <time>2011-07-03T12:45:28Z</time>
      </trkpt>
      <trkpt lat="42.64267" lon="1.7278">
        <ele>2232.7990723</ele>
        <time>2011-07-03T12:45:33Z</time>
      </trkpt>
      <trkpt lat="42.6427" lon="1.7278">
        <ele>2233.760498</ele>
        <time>2011-07-03T12:45:37Z</time>
      </trkpt>
      <trkpt lat="42.64273" lon="1.72777">
        <ele>2234.7219238</ele>
        <time>2011-07-03T12:45:40Z</time>
      </trkpt>
      <trkpt lat="42.64281" lon="1.72776">
        <ele>2236.6445313</ele>
        <time>2011-07-03T12:45:48Z</time>
      </trkpt>
      <trkpt lat="42.64282" lon="1.72777">
        <ele>2235.6831055</ele>
        <time>2011-07-03T12:45:49Z</time>
      </trkpt>
      <trkpt lat="42.64289" lon="1.72779">
        <ele>2233.760498</ele>
        <time>2011-07-03T12:46:01Z</time>
      </trkpt>
      <trkpt lat="42.6429" lon="1.72779">
        <ele>2237.1252441</ele>
        <time>2011-07-03T12:46:02Z</time>
      </trkpt>
      <trkpt lat="42.64291" lon="1.72779">
        <ele>2235.6831055</ele>
        <time>2011-07-03T12:46:03Z</time>
      </trkpt>
      <trkpt lat="42.64303" lon="1.72777">
        <ele>2236.1640625</ele>
        <time>2011-07-03T12:46:18Z</time>
      </trkpt>
      <trkpt lat="42.64313" lon="1.72768">
        <ele>2239.5285645</ele>
        <time>2011-07-03T12:46:31Z</time>
      </trkpt>
      <trkpt lat="42.6432" lon="1.72762">
        <ele>2239.5285645</ele>
        <time>2011-07-03T12:46:41Z</time>
      </trkpt>
      <trkpt lat="42.64329" lon="1.72761">
        <ele>2238.0866699</ele>
        <time>2011-07-03T12:46:51Z</time>
      </trkpt>
      <trkpt lat="42.64331" lon="1.72761">
        <ele>2237.605957</ele>
        <time>2011-07-03T12:47:10Z</time>
      </trkpt>
      <trkpt lat="42.64329" lon="1.72762">
        <ele>2238.5673828</ele>
        <time>2011-07-03T12:47:45Z</time>
      </trkpt>
      <trkpt lat="42.64342" lon="1.72763">
        <ele>2235.2023926</ele>
        <time>2011-07-03T12:48:02Z</time>
      </trkpt>
      <trkpt lat="42.64346" lon="1.72767">
        <ele>2237.605957</ele>
        <time>2011-07-03T12:48:06Z</time>
      </trkpt>
      <trkpt lat="42.64353" lon="1.7277">
        <ele>2236.1640625</ele>
        <time>2011-07-03T12:48:12Z</time>
      </trkpt>
      <trkpt lat="42.64373" lon="1.72768">
        <ele>2238.0866699</ele>
        <time>2011-07-03T12:48:27Z</time>
      </trkpt>
      <trkpt lat="42.64387" lon="1.72774">
        <ele>2238.5673828</ele>
        <time>2011-07-03T12:48:40Z</time>
      </trkpt>
      <trkpt lat="42.64403" lon="1.7277">
        <ele>2239.5285645</ele>
        <time>2011-07-03T12:48:54Z</time>
      </trkpt>
      <trkpt lat="42.64407" lon="1.72771">
        <ele>2240.970459</ele>
        <time>2011-07-03T12:48:57Z</time>
      </trkpt>
      <trkpt lat="42.64416" lon="1.72777">
        <ele>2238.5673828</ele>
        <time>2011-07-03T12:49:14Z</time>
      </trkpt>
      <trkpt lat="42.64416" lon="1.72777">
        <ele>2237.605957</ele>
        <time>2011-07-03T12:49:15Z</time>
      </trkpt>
      <trkpt lat="42.6442" lon="1.72779">
        <ele>2237.1252441</ele>
        <time>2011-07-03T12:49:18Z</time>
      </trkpt>
      <trkpt lat="42.64431" lon="1.72782">
        <ele>2235.2023926</ele>
        <time>2011-07-03T12:49:33Z</time>
      </trkpt>
      <trkpt lat="42.64441" lon="1.7278">
        <ele>2232.3186035</ele>
        <time>2011-07-03T12:49:43Z</time>
      </trkpt>
      <trkpt lat="42.6445" lon="1.72781">
        <ele>2228.9538574</ele>
        <time>2011-07-03T12:49:56Z</time>
      </trkpt>
      <trkpt lat="42.64457" lon="1.72781">
        <ele>2227.9926758</ele>
        <time>2011-07-03T12:50:02Z</time>
      </trkpt>
      <trkpt lat="42.64464" lon="1.72779">
        <ele>2224.1474609</ele>
        <time>2011-07-03T12:50:12Z</time>
      </trkpt>
      <trkpt lat="42.64473" lon="1.72782">
        <ele>2220.782959</ele>
        <time>2011-07-03T12:50:25Z</time>
      </trkpt>
      <trkpt lat="42.64486" lon="1.72774">
        <ele>2217.8986816</ele>
        <time>2011-07-03T12:50:45Z</time>
      </trkpt>
      <trkpt lat="42.64493" lon="1.72769">
        <ele>2214.5341797</ele>
        <time>2011-07-03T12:51:01Z</time>
      </trkpt>
      <trkpt lat="42.64501" lon="1.72761">
        <ele>2211.1696777</ele>
        <time>2011-07-03T12:51:14Z</time>
      </trkpt>
      <trkpt lat="42.64511" lon="1.72759">
        <ele>2207.8051758</ele>
        <time>2011-07-03T12:51:29Z</time>
      </trkpt>
      <trkpt lat="42.64517" lon="1.72761">
        <ele>2205.8823242</ele>
        <time>2011-07-03T12:51:45Z</time>
      </trkpt>
      <trkpt lat="42.64527" lon="1.72759">
        <ele>2202.0368652</ele>
        <time>2011-07-03T12:52:02Z</time>
      </trkpt>
      <trkpt lat="42.64537" lon="1.72759">
        <ele>2199.1530762</ele>
        <time>2011-07-03T12:52:18Z</time>
      </trkpt>
      <trkpt lat="42.6454" lon="1.72754">
        <ele>2197.2304688</ele>
        <time>2011-07-03T12:52:23Z</time>
      </trkpt>
      <trkpt lat="42.64543" lon="1.72744">
        <ele>2193.8659668</ele>
        <time>2011-07-03T12:52:32Z</time>
      </trkpt>
      <trkpt lat="42.64545" lon="1.72739">
        <ele>2192.4240723</ele>
        <time>2011-07-03T12:52:44Z</time>
      </trkpt>
      <trkpt lat="42.64554" lon="1.72739">
        <ele>2188.5788574</ele>
        <time>2011-07-03T12:52:59Z</time>
      </trkpt>
      <trkpt lat="42.64555" lon="1.72738">
        <ele>2189.0593262</ele>
        <time>2011-07-03T12:53:00Z</time>
      </trkpt>
      <trkpt lat="42.64558" lon="1.72737">
        <ele>2187.6171875</ele>
        <time>2011-07-03T12:53:04Z</time>
      </trkpt>
      <trkpt lat="42.64561" lon="1.72739">
        <ele>2187.6171875</ele>
        <time>2011-07-03T12:53:06Z</time>
      </trkpt>
      <trkpt lat="42.64566" lon="1.72741">
        <ele>2184.2526855</ele>
        <time>2011-07-03T12:53:14Z</time>
      </trkpt>
      <trkpt lat="42.64568" lon="1.7274">
        <ele>2187.1364746</ele>
        <time>2011-07-03T12:53:15Z</time>
      </trkpt>
      <trkpt lat="42.64573" lon="1.72739">
        <ele>2183.7719727</ele>
        <time>2011-07-03T12:53:22Z</time>
      </trkpt>
      <trkpt lat="42.64578" lon="1.72741">
        <ele>2179.9267578</ele>
        <time>2011-07-03T12:53:38Z</time>
      </trkpt>
      <trkpt lat="42.64588" lon="1.72737">
        <ele>2176.081543</ele>
        <time>2011-07-03T12:53:55Z</time>
      </trkpt>
      <trkpt lat="42.64595" lon="1.72735">
        <ele>2174.1589355</ele>
        <time>2011-07-03T12:54:12Z</time>
      </trkpt>
      <trkpt lat="42.64595" lon="1.72734">
        <ele>2170.7941895</ele>
        <time>2011-07-03T12:54:21Z</time>
      </trkpt>
      <trkpt lat="42.64601" lon="1.72732">
        <ele>2169.8327637</ele>
        <time>2011-07-03T12:54:35Z</time>
      </trkpt>
      <trkpt lat="42.64609" lon="1.7273">
        <ele>2167.9101563</ele>
        <time>2011-07-03T12:54:46Z</time>
      </trkpt>
      <trkpt lat="42.64618" lon="1.72728">
        <ele>2164.5456543</ele>
        <time>2011-07-03T12:54:59Z</time>
      </trkpt>
      <trkpt lat="42.6462" lon="1.72727">
        <ele>2165.5070801</ele>
        <time>2011-07-03T12:55:01Z</time>
      </trkpt>
      <trkpt lat="42.64623" lon="1.72725">
        <ele>2163.5842285</ele>
        <time>2011-07-03T12:55:04Z</time>
      </trkpt>
      <trkpt lat="42.64635" lon="1.72726">
        <ele>2161.6618652</ele>
        <time>2011-07-03T12:55:17Z</time>
      </trkpt>
      <trkpt lat="42.64637" lon="1.72728">
        <ele>2160.2197266</ele>
        <time>2011-07-03T12:55:22Z</time>
      </trkpt>
      <trkpt lat="42.64641" lon="1.72728">
        <ele>2159.2585449</ele>
        <time>2011-07-03T12:55:28Z</time>
      </trkpt>
      <trkpt lat="42.64646" lon="1.72724">
        <ele>2157.3359375</ele>
        <time>2011-07-03T12:55:35Z</time>
      </trkpt>
      <trkpt lat="42.6466" lon="1.7272">
        <ele>2154.4516602</ele>
        <time>2011-07-03T12:55:50Z</time>
      </trkpt>
      <trkpt lat="42.64673" lon="1.7272">
        <ele>2152.0483398</ele>
        <time>2011-07-03T12:56:07Z</time>
      </trkpt>
      <trkpt lat="42.64683" lon="1.72725">
        <ele>2149.6452637</ele>
        <time>2011-07-03T12:56:19Z</time>
      </trkpt>
      <trkpt lat="42.64691" lon="1.72724">
        <ele>2146.2807617</ele>
        <time>2011-07-03T12:56:36Z</time>
      </trkpt>
      <trkpt lat="42.64699" lon="1.72727">
        <ele>2143.8774414</ele>
        <time>2011-07-03T12:56:53Z</time>
      </trkpt>
      <trkpt lat="42.64705" lon="1.72733">
        <ele>2142.4355469</ele>
        <time>2011-07-03T12:57:08Z</time>
      </trkpt>
      <trkpt lat="42.64714" lon="1.72735">
        <ele>2140.5126953</ele>
        <time>2011-07-03T12:57:23Z</time>
      </trkpt>
      <trkpt lat="42.64721" lon="1.72735">
        <ele>2139.5512695</ele>
        <time>2011-07-03T12:57:32Z</time>
      </trkpt>
      <trkpt lat="42.64737" lon="1.72723">
        <ele>2135.2253418</ele>
        <time>2011-07-03T12:57:52Z</time>
      </trkpt>
      <trkpt lat="42.64745" lon="1.72725">
        <ele>2133.7834473</ele>
        <time>2011-07-03T12:58:04Z</time>
      </trkpt>
      <trkpt lat="42.64747" lon="1.72723">
        <ele>2132.3415527</ele>
        <time>2011-07-03T12:58:08Z</time>
      </trkpt>
      <trkpt lat="42.64757" lon="1.72721">
        <ele>2130.8996582</ele>
        <time>2011-07-03T12:58:19Z</time>
      </trkpt>
      <trkpt lat="42.64764" lon="1.7272">
        <ele>2128.015625</ele>
        <time>2011-07-03T12:58:29Z</time>
      </trkpt>
      <trkpt lat="42.64777" lon="1.72721">
        <ele>2124.1704102</ele>
        <time>2011-07-03T12:58:47Z</time>
      </trkpt>
      <trkpt lat="42.64785" lon="1.72719">
        <ele>2121.2861328</ele>
        <time>2011-07-03T12:58:58Z</time>
      </trkpt>
      <trkpt lat="42.64792" lon="1.72717">
        <ele>2119.8442383</ele>
        <time>2011-07-03T12:59:09Z</time>
      </trkpt>
      <trkpt lat="42.64805" lon="1.72717">
        <ele>2116.4797363</ele>
        <time>2011-07-03T12:59:27Z</time>
      </trkpt>
      <trkpt lat="42.64814" lon="1.72709">
        <ele>2113.5957031</ele>
        <time>2011-07-03T12:59:42Z</time>
      </trkpt>
      <trkpt lat="42.64826" lon="1.72718">
        <ele>2109.2700195</ele>
        <time>2011-07-03T12:59:59Z</time>
      </trkpt>
      <trkpt lat="42.64837" lon="1.72712">
        <ele>2109.2700195</ele>
        <time>2011-07-03T13:00:16Z</time>
      </trkpt>
      <trkpt lat="42.64848" lon="1.72707">
        <ele>2107.347168</ele>
        <time>2011-07-03T13:00:37Z</time>
      </trkpt>
      <trkpt lat="42.6485" lon="1.72705">
        <ele>2106.8664551</ele>
        <time>2011-07-03T13:00:43Z</time>
      </trkpt>
      <trkpt lat="42.64857" lon="1.72709">
        <ele>2105.4245605</ele>
        <time>2011-07-03T13:00:53Z</time>
      </trkpt>
      <trkpt lat="42.64872" lon="1.72705">
        <ele>2103.5019531</ele>
        <time>2011-07-03T13:01:12Z</time>
      </trkpt>
      <trkpt lat="42.6489" lon="1.72705">
        <ele>2101.5793457</ele>
        <time>2011-07-03T13:01:32Z</time>
      </trkpt>
      <trkpt lat="42.64896" lon="1.72703">
        <ele>2100.6179199</ele>
        <time>2011-07-03T13:01:39Z</time>
      </trkpt>
      <trkpt lat="42.64902" lon="1.72701">
        <ele>2099.1760254</ele>
        <time>2011-07-03T13:01:43Z</time>
      </trkpt>
      <trkpt lat="42.64906" lon="1.727">
        <ele>2097.7341309</ele>
        <time>2011-07-03T13:01:47Z</time>
      </trkpt>
      <trkpt lat="42.64915" lon="1.727">
        <ele>2096.2922363</ele>
        <time>2011-07-03T13:01:55Z</time>
      </trkpt>
      <trkpt lat="42.64922" lon="1.72697">
        <ele>2094.3693848</ele>
        <time>2011-07-03T13:02:02Z</time>
      </trkpt>
      <trkpt lat="42.64938" lon="1.72688">
        <ele>2093.888916</ele>
        <time>2011-07-03T13:02:14Z</time>
      </trkpt>
      <trkpt lat="42.6495" lon="1.72681">
        <ele>2091.9660645</ele>
        <time>2011-07-03T13:02:30Z</time>
      </trkpt>
      <trkpt lat="42.64962" lon="1.72676">
        <ele>2090.5239258</ele>
        <time>2011-07-03T13:02:44Z</time>
      </trkpt>
      <trkpt lat="42.64976" lon="1.72672">
        <ele>2088.1208496</ele>
        <time>2011-07-03T13:02:57Z</time>
      </trkpt>
      <trkpt lat="42.64986" lon="1.7267">
        <ele>2087.1594238</ele>
        <time>2011-07-03T13:03:08Z</time>
      </trkpt>
      <trkpt lat="42.64987" lon="1.72669">
        <ele>2086.6787109</ele>
        <time>2011-07-03T13:03:09Z</time>
      </trkpt>
      <trkpt lat="42.64994" lon="1.7267">
        <ele>2085.2368164</ele>
        <time>2011-07-03T13:03:17Z</time>
      </trkpt>
      <trkpt lat="42.65005" lon="1.72664">
        <ele>2081.3916016</ele>
        <time>2011-07-03T13:03:29Z</time>
      </trkpt>
      <trkpt lat="42.6501" lon="1.72659">
        <ele>2084.7563477</ele>
        <time>2011-07-03T13:03:35Z</time>
      </trkpt>
      <trkpt lat="42.65022" lon="1.72654">
        <ele>2083.7949219</ele>
        <time>2011-07-03T13:03:48Z</time>
      </trkpt>
      <trkpt lat="42.65036" lon="1.72649">
        <ele>2080.4304199</ele>
        <time>2011-07-03T13:04:03Z</time>
      </trkpt>
      <trkpt lat="42.65052" lon="1.72652">
        <ele>2079.4689941</ele>
        <time>2011-07-03T13:04:16Z</time>
      </trkpt>
      <trkpt lat="42.65058" lon="1.72651">
        <ele>2078.0270996</ele>
        <time>2011-07-03T13:04:21Z</time>
      </trkpt>
      <trkpt lat="42.65068" lon="1.7265">
        <ele>2078.0270996</ele>
        <time>2011-07-03T13:04:28Z</time>
      </trkpt>
      <trkpt lat="42.65072" lon="1.7265">
        <ele>2079.4689941</ele>
        <time>2011-07-03T13:04:32Z</time>
      </trkpt>
      <trkpt lat="42.65075" lon="1.72651">
        <ele>2078.0270996</ele>
        <time>2011-07-03T13:04:35Z</time>
      </trkpt>
      <trkpt lat="42.65084" lon="1.72652">
        <ele>2076.5852051</ele>
        <time>2011-07-03T13:04:41Z</time>
      </trkpt>
      <trkpt lat="42.65089" lon="1.72659">
        <ele>2078.5078125</ele>
        <time>2011-07-03T13:04:48Z</time>
      </trkpt>
      <trkpt lat="42.65102" lon="1.72663">
        <ele>2077.065918</ele>
        <time>2011-07-03T13:05:00Z</time>
      </trkpt>
      <trkpt lat="42.65103" lon="1.72666">
        <ele>2077.065918</ele>
        <time>2011-07-03T13:05:02Z</time>
      </trkpt>
      <trkpt lat="42.65118" lon="1.7267">
        <ele>2075.6235352</ele>
        <time>2011-07-03T13:05:16Z</time>
      </trkpt>
      <trkpt lat="42.65123" lon="1.7267">
        <ele>2074.6623535</ele>
        <time>2011-07-03T13:05:20Z</time>
      </trkpt>
      <trkpt lat="42.65125" lon="1.7267">
        <ele>2074.6623535</ele>
        <time>2011-07-03T13:05:23Z</time>
      </trkpt>
      <trkpt lat="42.65137" lon="1.72678">
        <ele>2073.7009277</ele>
        <time>2011-07-03T13:05:36Z</time>
      </trkpt>
      <trkpt lat="42.65139" lon="1.72684">
        <ele>2074.1816406</ele>
        <time>2011-07-03T13:05:40Z</time>
      </trkpt>
      <trkpt lat="42.65138" lon="1.7269">
        <ele>2073.7009277</ele>
        <time>2011-07-03T13:05:48Z</time>
      </trkpt>
      <trkpt lat="42.6514" lon="1.72691">
        <ele>2072.7397461</ele>
        <time>2011-07-03T13:05:50Z</time>
      </trkpt>
      <trkpt lat="42.65143" lon="1.7269">
        <ele>2073.7009277</ele>
        <time>2011-07-03T13:05:53Z</time>
      </trkpt>
      <trkpt lat="42.65163" lon="1.72685">
        <ele>2071.7783203</ele>
        <time>2011-07-03T13:06:08Z</time>
      </trkpt>
      <trkpt lat="42.65178" lon="1.72697">
        <ele>2070.3364258</ele>
        <time>2011-07-03T13:06:28Z</time>
      </trkpt>
      <trkpt lat="42.65188" lon="1.72697">
        <ele>2070.3364258</ele>
        <time>2011-07-03T13:06:39Z</time>
      </trkpt>
      <trkpt lat="42.65204" lon="1.72698">
        <ele>2069.3752441</ele>
        <time>2011-07-03T13:06:51Z</time>
      </trkpt>
      <trkpt lat="42.65222" lon="1.72699">
        <ele>2069.3752441</ele>
        <time>2011-07-03T13:07:12Z</time>
      </trkpt>
      <trkpt lat="42.65235" lon="1.72698">
        <ele>2069.8557129</ele>
        <time>2011-07-03T13:07:26Z</time>
      </trkpt>
      <trkpt lat="42.65248" lon="1.72696">
        <ele>2068.4138184</ele>
        <time>2011-07-03T13:07:35Z</time>
      </trkpt>
      <trkpt lat="42.65251" lon="1.72697">
        <ele>2069.3752441</ele>
        <time>2011-07-03T13:07:38Z</time>
      </trkpt>
      <trkpt lat="42.65255" lon="1.727">
        <ele>2068.4138184</ele>
        <time>2011-07-03T13:07:43Z</time>
      </trkpt>
      <trkpt lat="42.65258" lon="1.72699">
        <ele>2067.4523926</ele>
        <time>2011-07-03T13:07:45Z</time>
      </trkpt>
      <trkpt lat="42.65266" lon="1.72704">
        <ele>2066.010498</ele>
        <time>2011-07-03T13:07:54Z</time>
      </trkpt>
      <trkpt lat="42.65277" lon="1.72705">
        <ele>2067.4523926</ele>
        <time>2011-07-03T13:08:00Z</time>
      </trkpt>
      <trkpt lat="42.65293" lon="1.7271">
        <ele>2065.0493164</ele>
        <time>2011-07-03T13:08:13Z</time>
      </trkpt>
      <trkpt lat="42.65297" lon="1.72712">
        <ele>2064.5686035</ele>
        <time>2011-07-03T13:08:19Z</time>
      </trkpt>
      <trkpt lat="42.65311" lon="1.72717">
        <ele>2062.6459961</ele>
        <time>2011-07-03T13:08:32Z</time>
      </trkpt>
      <trkpt lat="42.6532" lon="1.7272">
        <ele>2061.6848145</ele>
        <time>2011-07-03T13:08:38Z</time>
      </trkpt>
      <trkpt lat="42.65327" lon="1.72723">
        <ele>2060.7233887</ele>
        <time>2011-07-03T13:08:45Z</time>
      </trkpt>
      <trkpt lat="42.65331" lon="1.72725">
        <ele>2061.6848145</ele>
        <time>2011-07-03T13:08:48Z</time>
      </trkpt>
      <trkpt lat="42.65336" lon="1.72726">
        <ele>2060.7233887</ele>
        <time>2011-07-03T13:08:53Z</time>
      </trkpt>
      <trkpt lat="42.65339" lon="1.72726">
        <ele>2061.2041016</ele>
        <time>2011-07-03T13:08:56Z</time>
      </trkpt>
      <trkpt lat="42.65341" lon="1.72725">
        <ele>2061.2041016</ele>
        <time>2011-07-03T13:08:58Z</time>
      </trkpt>
      <trkpt lat="42.65349" lon="1.7273">
        <ele>2060.7233887</ele>
        <time>2011-07-03T13:09:05Z</time>
      </trkpt>
      <trkpt lat="42.65364" lon="1.72744">
        <ele>2057.3586426</ele>
        <time>2011-07-03T13:09:20Z</time>
      </trkpt>
      <trkpt lat="42.65368" lon="1.7275">
        <ele>2057.8393555</ele>
        <time>2011-07-03T13:09:25Z</time>
      </trkpt>
      <trkpt lat="42.65381" lon="1.72759">
        <ele>2057.3586426</ele>
        <time>2011-07-03T13:09:39Z</time>
      </trkpt>
      <trkpt lat="42.65386" lon="1.72766">
        <ele>2056.3972168</ele>
        <time>2011-07-03T13:09:46Z</time>
      </trkpt>
      <trkpt lat="42.65396" lon="1.72769">
        <ele>2055.4360352</ele>
        <time>2011-07-03T13:09:54Z</time>
      </trkpt>
      <trkpt lat="42.65398" lon="1.72772">
        <ele>2055.4360352</ele>
        <time>2011-07-03T13:09:56Z</time>
      </trkpt>
      <trkpt lat="42.654" lon="1.72774">
        <ele>2054.9553223</ele>
        <time>2011-07-03T13:09:58Z</time>
      </trkpt>
      <trkpt lat="42.654" lon="1.72777">
        <ele>2053.9941406</ele>
        <time>2011-07-03T13:10:00Z</time>
      </trkpt>
      <trkpt lat="42.65401" lon="1.72779">
        <ele>2054.4746094</ele>
        <time>2011-07-03T13:10:01Z</time>
      </trkpt>
      <trkpt lat="42.65414" lon="1.7278">
        <ele>2053.0327148</ele>
        <time>2011-07-03T13:10:12Z</time>
      </trkpt>
      <trkpt lat="42.6543" lon="1.7279">
        <ele>2053.9941406</ele>
        <time>2011-07-03T13:10:26Z</time>
      </trkpt>
      <trkpt lat="42.65433" lon="1.72792">
        <ele>2054.9553223</ele>
        <time>2011-07-03T13:10:28Z</time>
      </trkpt>
      <trkpt lat="42.65445" lon="1.72792">
        <ele>2051.1101074</ele>
        <time>2011-07-03T13:10:41Z</time>
      </trkpt>
      <trkpt lat="42.6545" lon="1.72791">
        <ele>2053.9941406</ele>
        <time>2011-07-03T13:10:43Z</time>
      </trkpt>
      <trkpt lat="42.65452" lon="1.72792">
        <ele>2053.5134277</ele>
        <time>2011-07-03T13:10:48Z</time>
      </trkpt>
      <trkpt lat="42.65472" lon="1.72793">
        <ele>2051.1101074</ele>
        <time>2011-07-03T13:11:04Z</time>
      </trkpt>
      <trkpt lat="42.6548" lon="1.72795">
        <ele>2051.1101074</ele>
        <time>2011-07-03T13:11:12Z</time>
      </trkpt>
      <trkpt lat="42.65485" lon="1.72794">
        <ele>2050.1489258</ele>
        <time>2011-07-03T13:11:17Z</time>
      </trkpt>
      <trkpt lat="42.65502" lon="1.72795">
        <ele>2049.1875</ele>
        <time>2011-07-03T13:11:33Z</time>
      </trkpt>
      <trkpt lat="42.65507" lon="1.72795">
        <ele>2050.6293945</ele>
        <time>2011-07-03T13:11:37Z</time>
      </trkpt>
      <trkpt lat="42.65511" lon="1.72801">
        <ele>2049.1875</ele>
        <time>2011-07-03T13:11:44Z</time>
      </trkpt>
      <trkpt lat="42.65524" lon="1.72805">
        <ele>2049.6682129</ele>
        <time>2011-07-03T13:11:54Z</time>
      </trkpt>
      <trkpt lat="42.65527" lon="1.72806">
        <ele>2049.1875</ele>
        <time>2011-07-03T13:11:57Z</time>
      </trkpt>
      <trkpt lat="42.65529" lon="1.72807">
        <ele>2048.7067871</ele>
        <time>2011-07-03T13:12:00Z</time>
      </trkpt>
      <trkpt lat="42.65541" lon="1.72815">
        <ele>2047.7456055</ele>
        <time>2011-07-03T13:12:12Z</time>
      </trkpt>
      <trkpt lat="42.65544" lon="1.72816">
        <ele>2048.2260742</ele>
        <time>2011-07-03T13:12:15Z</time>
      </trkpt>
      <trkpt lat="42.65551" lon="1.7282">
        <ele>2046.7841797</ele>
        <time>2011-07-03T13:12:22Z</time>
      </trkpt>
      <trkpt lat="42.65557" lon="1.7282">
        <ele>2048.2260742</ele>
        <time>2011-07-03T13:12:27Z</time>
      </trkpt>
      <trkpt lat="42.65564" lon="1.72822">
        <ele>2047.2648926</ele>
        <time>2011-07-03T13:12:35Z</time>
      </trkpt>
      <trkpt lat="42.65579" lon="1.72827">
        <ele>2045.822998</ele>
        <time>2011-07-03T13:12:48Z</time>
      </trkpt>
      <trkpt lat="42.65587" lon="1.72832">
        <ele>2044.3808594</ele>
        <time>2011-07-03T13:12:57Z</time>
      </trkpt>
      <trkpt lat="42.65594" lon="1.7283">
        <ele>2042.9387207</ele>
        <time>2011-07-03T13:13:03Z</time>
      </trkpt>
      <trkpt lat="42.65595" lon="1.7283">
        <ele>2042.458252</ele>
        <time>2011-07-03T13:13:04Z</time>
      </trkpt>
      <trkpt lat="42.656" lon="1.72828">
        <ele>2043.9001465</ele>
        <time>2011-07-03T13:13:07Z</time>
      </trkpt>
      <trkpt lat="42.65603" lon="1.72829">
        <ele>2041.9775391</ele>
        <time>2011-07-03T13:13:10Z</time>
      </trkpt>
      <trkpt lat="42.65613" lon="1.72834">
        <ele>2040.0549316</ele>
        <time>2011-07-03T13:13:22Z</time>
      </trkpt>
      <trkpt lat="42.65619" lon="1.72833">
        <ele>2040.5354004</ele>
        <time>2011-07-03T13:13:26Z</time>
      </trkpt>
      <trkpt lat="42.65628" lon="1.72833">
        <ele>2038.1323242</ele>
        <time>2011-07-03T13:13:36Z</time>
      </trkpt>
      <trkpt lat="42.6563" lon="1.72834">
        <ele>2037.6516113</ele>
        <time>2011-07-03T13:13:37Z</time>
      </trkpt>
      <trkpt lat="42.65633" lon="1.72834">
        <ele>2039.5742188</ele>
        <time>2011-07-03T13:13:40Z</time>
      </trkpt>
      <trkpt lat="42.65634" lon="1.72835">
        <ele>2035.7290039</ele>
        <time>2011-07-03T13:13:42Z</time>
      </trkpt>
      <trkpt lat="42.65636" lon="1.72836">
        <ele>2039.5742188</ele>
        <time>2011-07-03T13:13:44Z</time>
      </trkpt>
      <trkpt lat="42.65637" lon="1.72836">
        <ele>2039.0935059</ele>
        <time>2011-07-03T13:13:45Z</time>
      </trkpt>
      <trkpt lat="42.65639" lon="1.72836">
        <ele>2037.6516113</ele>
        <time>2011-07-03T13:13:47Z</time>
      </trkpt>
      <trkpt lat="42.6564" lon="1.72836">
        <ele>2037.6516113</ele>
        <time>2011-07-03T13:13:48Z</time>
      </trkpt>
      <trkpt lat="42.65651" lon="1.72835">
        <ele>2035.7290039</ele>
        <time>2011-07-03T13:14:01Z</time>
      </trkpt>
      <trkpt lat="42.65659" lon="1.72836">
        <ele>2033.8063965</ele>
        <time>2011-07-03T13:14:08Z</time>
      </trkpt>
      <trkpt lat="42.65671" lon="1.72837">
        <ele>2031.4030762</ele>
        <time>2011-07-03T13:14:20Z</time>
      </trkpt>
      <trkpt lat="42.65693" lon="1.72838">
        <ele>2029.9611816</ele>
        <time>2011-07-03T13:14:41Z</time>
      </trkpt>
      <trkpt lat="42.65695" lon="1.7284">
        <ele>2029.4804688</ele>
        <time>2011-07-03T13:14:43Z</time>
      </trkpt>
      <trkpt lat="42.65709" lon="1.72839">
        <ele>2027.5576172</ele>
        <time>2011-07-03T13:14:57Z</time>
      </trkpt>
      <trkpt lat="42.65715" lon="1.72836">
        <ele>2026.1157227</ele>
        <time>2011-07-03T13:15:02Z</time>
      </trkpt>
      <trkpt lat="42.65722" lon="1.72834">
        <ele>2026.5964355</ele>
        <time>2011-07-03T13:15:08Z</time>
      </trkpt>
      <trkpt lat="42.65733" lon="1.72829">
        <ele>2026.5964355</ele>
        <time>2011-07-03T13:15:20Z</time>
      </trkpt>
      <trkpt lat="42.65734" lon="1.72827">
        <ele>2025.1542969</ele>
        <time>2011-07-03T13:15:22Z</time>
      </trkpt>
      <trkpt lat="42.65746" lon="1.72821">
        <ele>2024.6738281</ele>
        <time>2011-07-03T13:15:35Z</time>
      </trkpt>
      <trkpt lat="42.65763" lon="1.72811">
        <ele>2026.5964355</ele>
        <time>2011-07-03T13:15:54Z</time>
      </trkpt>
      <trkpt lat="42.65772" lon="1.72805">
        <ele>2026.1157227</ele>
        <time>2011-07-03T13:16:04Z</time>
      </trkpt>
      <trkpt lat="42.65774" lon="1.72805">
        <ele>2025.1542969</ele>
        <time>2011-07-03T13:16:06Z</time>
      </trkpt>
      <trkpt lat="42.65782" lon="1.728">
        <ele>2025.6350098</ele>
        <time>2011-07-03T13:16:15Z</time>
      </trkpt>
      <trkpt lat="42.65799" lon="1.72796">
        <ele>2024.1931152</ele>
        <time>2011-07-03T13:16:30Z</time>
      </trkpt>
      <trkpt lat="42.65802" lon="1.72796">
        <ele>2023.7124023</ele>
        <time>2011-07-03T13:16:34Z</time>
      </trkpt>
      <trkpt lat="42.6582" lon="1.72789">
        <ele>2024.6738281</ele>
        <time>2011-07-03T13:16:52Z</time>
      </trkpt>
      <trkpt lat="42.65835" lon="1.72786">
        <ele>2025.1542969</ele>
        <time>2011-07-03T13:17:06Z</time>
      </trkpt>
      <trkpt lat="42.65848" lon="1.72768">
        <ele>2023.7124023</ele>
        <time>2011-07-03T13:17:21Z</time>
      </trkpt>
      <trkpt lat="42.65851" lon="1.72769">
        <ele>2023.2319336</ele>
        <time>2011-07-03T13:17:28Z</time>
      </trkpt>
      <trkpt lat="42.65856" lon="1.72767">
        <ele>2025.6350098</ele>
        <time>2011-07-03T13:17:31Z</time>
      </trkpt>
      <trkpt lat="42.65856" lon="1.72764">
        <ele>2022.2705078</ele>
        <time>2011-07-03T13:17:38Z</time>
      </trkpt>
      <trkpt lat="42.65861" lon="1.72769">
        <ele>2022.2705078</ele>
        <time>2011-07-03T13:17:43Z</time>
      </trkpt>
      <trkpt lat="42.65871" lon="1.72776">
        <ele>2023.7124023</ele>
        <time>2011-07-03T13:17:53Z</time>
      </trkpt>
      <trkpt lat="42.65875" lon="1.72779">
        <ele>2023.7124023</ele>
        <time>2011-07-03T13:18:02Z</time>
      </trkpt>
      <trkpt lat="42.65881" lon="1.72778">
        <ele>2022.2705078</ele>
        <time>2011-07-03T13:19:23Z</time>
      </trkpt>
      <trkpt lat="42.65879" lon="1.72784">
        <ele>2021.7897949</ele>
        <time>2011-07-03T13:19:51Z</time>
      </trkpt>
      <trkpt lat="42.65886" lon="1.72799">
        <ele>2018.9060059</ele>
        <time>2011-07-03T13:20:04Z</time>
      </trkpt>
      <trkpt lat="42.65888" lon="1.72802">
        <ele>2019.3867188</ele>
        <time>2011-07-03T13:20:07Z</time>
      </trkpt>
      <trkpt lat="42.65891" lon="1.72819">
        <ele>2017.9445801</ele>
        <time>2011-07-03T13:20:22Z</time>
      </trkpt>
      <trkpt lat="42.6589" lon="1.72831">
        <ele>2016.5026855</ele>
        <time>2011-07-03T13:20:34Z</time>
      </trkpt>
      <trkpt lat="42.65889" lon="1.72843">
        <ele>2015.5415039</ele>
        <time>2011-07-03T13:20:46Z</time>
      </trkpt>
      <trkpt lat="42.65887" lon="1.72858">
        <ele>2014.0993652</ele>
        <time>2011-07-03T13:21:00Z</time>
      </trkpt>
      <trkpt lat="42.65887" lon="1.72868">
        <ele>2011.215332</ele>
        <time>2011-07-03T13:21:14Z</time>
      </trkpt>
      <trkpt lat="42.65891" lon="1.72876">
        <ele>2008.8120117</ele>
        <time>2011-07-03T13:21:29Z</time>
      </trkpt>
      <trkpt lat="42.65898" lon="1.72882">
        <ele>2005.4475098</ele>
        <time>2011-07-03T13:21:43Z</time>
      </trkpt>
      <trkpt lat="42.65898" lon="1.72884">
        <ele>2004.9667969</ele>
        <time>2011-07-03T13:21:45Z</time>
      </trkpt>
      <trkpt lat="42.65901" lon="1.7289">
        <ele>2003.5249023</ele>
        <time>2011-07-03T13:21:51Z</time>
      </trkpt>
      <trkpt lat="42.6591" lon="1.72903">
        <ele>2001.6022949</ele>
        <time>2011-07-03T13:22:04Z</time>
      </trkpt>
      <trkpt lat="42.65913" lon="1.72909">
        <ele>2002.0827637</ele>
        <time>2011-07-03T13:22:16Z</time>
      </trkpt>
      <trkpt lat="42.65916" lon="1.72913">
        <ele>2001.121582</ele>
        <time>2011-07-03T13:22:21Z</time>
      </trkpt>
      <trkpt lat="42.65919" lon="1.72917">
        <ele>2000.1604004</ele>
        <time>2011-07-03T13:22:25Z</time>
      </trkpt>
      <trkpt lat="42.65929" lon="1.72916">
        <ele>1998.2375488</ele>
        <time>2011-07-03T13:22:36Z</time>
      </trkpt>
      <trkpt lat="42.6593" lon="1.72923">
        <ele>1996.7956543</ele>
        <time>2011-07-03T13:22:46Z</time>
      </trkpt>
      <trkpt lat="42.65934" lon="1.72924">
        <ele>1997.2763672</ele>
        <time>2011-07-03T13:22:50Z</time>
      </trkpt>
      <trkpt lat="42.6594" lon="1.72926">
        <ele>1994.8728027</ele>
        <time>2011-07-03T13:23:03Z</time>
      </trkpt>
      <trkpt lat="42.65943" lon="1.72925">
        <ele>1994.8728027</ele>
        <time>2011-07-03T13:23:10Z</time>
      </trkpt>
      <trkpt lat="42.65953" lon="1.72927">
        <ele>1995.3535156</ele>
        <time>2011-07-03T13:23:18Z</time>
      </trkpt>
      <trkpt lat="42.65966" lon="1.72929">
        <ele>1992.4697266</ele>
        <time>2011-07-03T13:23:34Z</time>
      </trkpt>
      <trkpt lat="42.65975" lon="1.72935">
        <ele>1989.5856934</ele>
        <time>2011-07-03T13:23:46Z</time>
      </trkpt>
      <trkpt lat="42.65985" lon="1.72935">
        <ele>1987.182373</ele>
        <time>2011-07-03T13:24:03Z</time>
      </trkpt>
      <trkpt lat="42.65991" lon="1.72936">
        <ele>1984.298584</ele>
        <time>2011-07-03T13:24:15Z</time>
      </trkpt>
      <trkpt lat="42.65997" lon="1.7294">
        <ele>1981.8952637</ele>
        <time>2011-07-03T13:24:28Z</time>
      </trkpt>
      <trkpt lat="42.66002" lon="1.72948">
        <ele>1978.5305176</ele>
        <time>2011-07-03T13:24:43Z</time>
      </trkpt>
      <trkpt lat="42.66011" lon="1.72952">
        <ele>1975.1657715</ele>
        <time>2011-07-03T13:24:57Z</time>
      </trkpt>
      <trkpt lat="42.66012" lon="1.72957">
        <ele>1973.2434082</ele>
        <time>2011-07-03T13:25:03Z</time>
      </trkpt>
      <trkpt lat="42.66017" lon="1.72962">
        <ele>1972.7626953</ele>
        <time>2011-07-03T13:25:08Z</time>
      </trkpt>
      <trkpt lat="42.6602" lon="1.72963">
        <ele>1971.3205566</ele>
        <time>2011-07-03T13:25:11Z</time>
      </trkpt>
      <trkpt lat="42.66021" lon="1.72965">
        <ele>1970.8400879</ele>
        <time>2011-07-03T13:25:13Z</time>
      </trkpt>
      <trkpt lat="42.66024" lon="1.72966">
        <ele>1970.8400879</ele>
        <time>2011-07-03T13:25:16Z</time>
      </trkpt>
      <trkpt lat="42.66033" lon="1.72968">
        <ele>1967.4753418</ele>
        <time>2011-07-03T13:25:26Z</time>
      </trkpt>
      <trkpt lat="42.66044" lon="1.72977">
        <ele>1965.5529785</ele>
        <time>2011-07-03T13:25:41Z</time>
      </trkpt>
      <trkpt lat="42.66053" lon="1.72981">
        <ele>1962.1879883</ele>
        <time>2011-07-03T13:25:54Z</time>
      </trkpt>
      <trkpt lat="42.6606" lon="1.72983">
        <ele>1961.7075195</ele>
        <time>2011-07-03T13:25:59Z</time>
      </trkpt>
      <trkpt lat="42.66069" lon="1.72977">
        <ele>1961.7075195</ele>
        <time>2011-07-03T13:26:09Z</time>
      </trkpt>
      <trkpt lat="42.66081" lon="1.72977">
        <ele>1958.8234863</ele>
        <time>2011-07-03T13:26:22Z</time>
      </trkpt>
      <trkpt lat="42.66083" lon="1.72976">
        <ele>1959.3041992</ele>
        <time>2011-07-03T13:26:25Z</time>
      </trkpt>
      <trkpt lat="42.66093" lon="1.72983">
        <ele>1955.4589844</ele>
        <time>2011-07-03T13:26:39Z</time>
      </trkpt>
      <trkpt lat="42.66094" lon="1.72983">
        <ele>1955.9394531</ele>
        <time>2011-07-03T13:26:41Z</time>
      </trkpt>
      <trkpt lat="42.66104" lon="1.72985">
        <ele>1953.536377</ele>
        <time>2011-07-03T13:26:56Z</time>
      </trkpt>
      <trkpt lat="42.66111" lon="1.72988">
        <ele>1950.171875</ele>
        <time>2011-07-03T13:27:07Z</time>
      </trkpt>
      <trkpt lat="42.66115" lon="1.72988">
        <ele>1950.171875</ele>
        <time>2011-07-03T13:27:11Z</time>
      </trkpt>
      <trkpt lat="42.66116" lon="1.7299">
        <ele>1948.7297363</ele>
        <time>2011-07-03T13:27:13Z</time>
      </trkpt>
      <trkpt lat="42.66124" lon="1.72993">
        <ele>1948.7297363</ele>
        <time>2011-07-03T13:27:26Z</time>
      </trkpt>
      <trkpt lat="42.6613" lon="1.72999">
        <ele>1946.8068848</ele>
        <time>2011-07-03T13:27:42Z</time>
      </trkpt>
      <trkpt lat="42.66139" lon="1.72998">
        <ele>1943.4423828</ele>
        <time>2011-07-03T13:27:54Z</time>
      </trkpt>
      <trkpt lat="42.66147" lon="1.72999">
        <ele>1942.0004883</ele>
        <time>2011-07-03T13:28:06Z</time>
      </trkpt>
      <trkpt lat="42.66151" lon="1.73002">
        <ele>1941.0390625</ele>
        <time>2011-07-03T13:28:13Z</time>
      </trkpt>
      <trkpt lat="42.66162" lon="1.73005">
        <ele>1939.1164551</ele>
        <time>2011-07-03T13:28:28Z</time>
      </trkpt>
      <trkpt lat="42.66165" lon="1.73005">
        <ele>1938.1552734</ele>
        <time>2011-07-03T13:28:33Z</time>
      </trkpt>
      <trkpt lat="42.66169" lon="1.73005">
        <ele>1936.7131348</ele>
        <time>2011-07-03T13:28:51Z</time>
      </trkpt>
      <trkpt lat="42.66177" lon="1.7301">
        <ele>1934.7907715</ele>
        <time>2011-07-03T13:29:05Z</time>
      </trkpt>
      <trkpt lat="42.66179" lon="1.73012">
        <ele>1933.3486328</ele>
        <time>2011-07-03T13:29:09Z</time>
      </trkpt>
      <trkpt lat="42.66185" lon="1.7302">
        <ele>1931.9064941</ele>
        <time>2011-07-03T13:29:25Z</time>
      </trkpt>
      <trkpt lat="42.66184" lon="1.73024">
        <ele>1930.9453125</ele>
        <time>2011-07-03T13:29:30Z</time>
      </trkpt>
      <trkpt lat="42.66179" lon="1.73031">
        <ele>1929.0224609</ele>
        <time>2011-07-03T13:29:44Z</time>
      </trkpt>
      <trkpt lat="42.66182" lon="1.73029">
        <ele>1929.9838867</ele>
        <time>2011-07-03T13:30:30Z</time>
      </trkpt>
      <trkpt lat="42.66191" lon="1.73023">
        <ele>1930.4645996</ele>
        <time>2011-07-03T13:30:43Z</time>
      </trkpt>
      <trkpt lat="42.66197" lon="1.73024">
        <ele>1927.5805664</ele>
        <time>2011-07-03T13:30:55Z</time>
      </trkpt>
      <trkpt lat="42.66199" lon="1.73029">
        <ele>1927.5805664</ele>
        <time>2011-07-03T13:31:00Z</time>
      </trkpt>
      <trkpt lat="42.66201" lon="1.73031">
        <ele>1926.1386719</ele>
        <time>2011-07-03T13:31:03Z</time>
      </trkpt>
      <trkpt lat="42.66206" lon="1.73042">
        <ele>1922.293457</ele>
        <time>2011-07-03T13:31:18Z</time>
      </trkpt>
      <trkpt lat="42.66209" lon="1.73052">
        <ele>1920.3708496</ele>
        <time>2011-07-03T13:31:35Z</time>
      </trkpt>
      <trkpt lat="42.66216" lon="1.73055">
        <ele>1917.4868164</ele>
        <time>2011-07-03T13:31:47Z</time>
      </trkpt>
      <trkpt lat="42.66223" lon="1.73058">
        <ele>1915.0834961</ele>
        <time>2011-07-03T13:32:02Z</time>
      </trkpt>
      <trkpt lat="42.6623" lon="1.73067">
        <ele>1912.1994629</ele>
        <time>2011-07-03T13:32:16Z</time>
      </trkpt>
      <trkpt lat="42.66235" lon="1.7307">
        <ele>1910.2768555</ele>
        <time>2011-07-03T13:32:24Z</time>
      </trkpt>
      <trkpt lat="42.66241" lon="1.73072">
        <ele>1908.8349609</ele>
        <time>2011-07-03T13:32:31Z</time>
      </trkpt>
      <trkpt lat="42.66248" lon="1.73081">
        <ele>1906.4316406</ele>
        <time>2011-07-03T13:32:41Z</time>
      </trkpt>
      <trkpt lat="42.66255" lon="1.73088">
        <ele>1903.0671387</ele>
        <time>2011-07-03T13:32:53Z</time>
      </trkpt>
      <trkpt lat="42.66257" lon="1.73089">
        <ele>1902.1057129</ele>
        <time>2011-07-03T13:32:55Z</time>
      </trkpt>
      <trkpt lat="42.66261" lon="1.73095">
        <ele>1899.7023926</ele>
        <time>2011-07-03T13:33:08Z</time>
      </trkpt>
      <trkpt lat="42.6627" lon="1.73097">
        <ele>1896.3378906</ele>
        <time>2011-07-03T13:33:21Z</time>
      </trkpt>
      <trkpt lat="42.66276" lon="1.73099">
        <ele>1897.2990723</ele>
        <time>2011-07-03T13:33:26Z</time>
      </trkpt>
      <trkpt lat="42.66276" lon="1.73099">
        <ele>1896.8183594</ele>
        <time>2011-07-03T13:33:30Z</time>
      </trkpt>
      <trkpt lat="42.66282" lon="1.73093">
        <ele>1896.8183594</ele>
        <time>2011-07-03T13:33:37Z</time>
      </trkpt>
      <trkpt lat="42.66298" lon="1.73093">
        <ele>1894.4150391</ele>
        <time>2011-07-03T13:33:50Z</time>
      </trkpt>
      <trkpt lat="42.66296" lon="1.73091">
        <ele>1894.895752</ele>
        <time>2011-07-03T13:34:04Z</time>
      </trkpt>
      <trkpt lat="42.66313" lon="1.73088">
        <ele>1892.0119629</ele>
        <time>2011-07-03T13:34:19Z</time>
      </trkpt>
      <trkpt lat="42.66319" lon="1.73083">
        <ele>1892.0119629</ele>
        <time>2011-07-03T13:34:31Z</time>
      </trkpt>
      <trkpt lat="42.66327" lon="1.73083">
        <ele>1888.6474609</ele>
        <time>2011-07-03T13:34:43Z</time>
      </trkpt>
      <trkpt lat="42.66339" lon="1.73084">
        <ele>1887.6860352</ele>
        <time>2011-07-03T13:34:53Z</time>
      </trkpt>
      <trkpt lat="42.66349" lon="1.73078">
        <ele>1887.2053223</ele>
        <time>2011-07-03T13:35:08Z</time>
      </trkpt>
      <trkpt lat="42.66352" lon="1.73077">
        <ele>1886.2441406</ele>
        <time>2011-07-03T13:35:10Z</time>
      </trkpt>
      <trkpt lat="42.66356" lon="1.73078">
        <ele>1887.6860352</ele>
        <time>2011-07-03T13:35:13Z</time>
      </trkpt>
      <trkpt lat="42.66366" lon="1.7307">
        <ele>1886.2441406</ele>
        <time>2011-07-03T13:35:29Z</time>
      </trkpt>
      <trkpt lat="42.66368" lon="1.7307">
        <ele>1885.2827148</ele>
        <time>2011-07-03T13:35:30Z</time>
      </trkpt>
      <trkpt lat="42.66373" lon="1.73068">
        <ele>1884.3215332</ele>
        <time>2011-07-03T13:35:38Z</time>
      </trkpt>
      <trkpt lat="42.66391" lon="1.73065">
        <ele>1882.8791504</ele>
        <time>2011-07-03T13:35:53Z</time>
      </trkpt>
      <trkpt lat="42.66398" lon="1.73058">
        <ele>1882.3986816</ele>
        <time>2011-07-03T13:36:07Z</time>
      </trkpt>
      <trkpt lat="42.66408" lon="1.73056">
        <ele>1879.9953613</ele>
        <time>2011-07-03T13:36:24Z</time>
      </trkpt>
      <trkpt lat="42.66416" lon="1.73055">
        <ele>1878.5534668</ele>
        <time>2011-07-03T13:36:37Z</time>
      </trkpt>
      <trkpt lat="42.66432" lon="1.73056">
        <ele>1876.1501465</ele>
        <time>2011-07-03T13:36:51Z</time>
      </trkpt>
      <trkpt lat="42.66432" lon="1.73056">
        <ele>1875.6694336</ele>
        <time>2011-07-03T13:36:52Z</time>
      </trkpt>
      <trkpt lat="42.66434" lon="1.73054">
        <ele>1878.0727539</ele>
        <time>2011-07-03T13:36:54Z</time>
      </trkpt>
      <trkpt lat="42.66438" lon="1.73052">
        <ele>1875.1887207</ele>
        <time>2011-07-03T13:36:59Z</time>
      </trkpt>
      <trkpt lat="42.66441" lon="1.73046">
        <ele>1876.1501465</ele>
        <time>2011-07-03T13:37:05Z</time>
      </trkpt>
      <trkpt lat="42.66447" lon="1.73046">
        <ele>1873.7468262</ele>
        <time>2011-07-03T13:37:11Z</time>
      </trkpt>
      <trkpt lat="42.66448" lon="1.73046">
        <ele>1873.2663574</ele>
        <time>2011-07-03T13:37:13Z</time>
      </trkpt>
      <trkpt lat="42.66454" lon="1.73037">
        <ele>1872.3049316</ele>
        <time>2011-07-03T13:37:26Z</time>
      </trkpt>
      <trkpt lat="42.6646" lon="1.73038">
        <ele>1870.8630371</ele>
        <time>2011-07-03T13:37:30Z</time>
      </trkpt>
      <trkpt lat="42.66472" lon="1.73033">
        <ele>1870.8630371</ele>
        <time>2011-07-03T13:37:42Z</time>
      </trkpt>
      <trkpt lat="42.66475" lon="1.73031">
        <ele>1870.8630371</ele>
        <time>2011-07-03T13:37:45Z</time>
      </trkpt>
      <trkpt lat="42.66479" lon="1.73027">
        <ele>1868.4597168</ele>
        <time>2011-07-03T13:37:58Z</time>
      </trkpt>
      <trkpt lat="42.66483" lon="1.73026">
        <ele>1867.4980469</ele>
        <time>2011-07-03T13:38:03Z</time>
      </trkpt>
      <trkpt lat="42.66484" lon="1.73025">
        <ele>1867.4980469</ele>
        <time>2011-07-03T13:38:04Z</time>
      </trkpt>
      <trkpt lat="42.66504" lon="1.73019">
        <ele>1866.5368652</ele>
        <time>2011-07-03T13:38:17Z</time>
      </trkpt>
      <trkpt lat="42.66515" lon="1.73013">
        <ele>1864.1335449</ele>
        <time>2011-07-03T13:38:29Z</time>
      </trkpt>
      <trkpt lat="42.66515" lon="1.73012">
        <ele>1863.652832</ele>
        <time>2011-07-03T13:38:30Z</time>
      </trkpt>
      <trkpt lat="42.6653" lon="1.73001">
        <ele>1864.1335449</ele>
        <time>2011-07-03T13:38:43Z</time>
      </trkpt>
      <trkpt lat="42.66532" lon="1.72998">
        <ele>1862.6916504</ele>
        <time>2011-07-03T13:38:49Z</time>
      </trkpt>
      <trkpt lat="42.66544" lon="1.72995">
        <ele>1861.2497559</ele>
        <time>2011-07-03T13:39:03Z</time>
      </trkpt>
      <trkpt lat="42.66558" lon="1.72989">
        <ele>1858.8464355</ele>
        <time>2011-07-03T13:39:16Z</time>
      </trkpt>
      <trkpt lat="42.66561" lon="1.72985">
        <ele>1859.8076172</ele>
        <time>2011-07-03T13:39:21Z</time>
      </trkpt>
      <trkpt lat="42.66572" lon="1.72982">
        <ele>1857.404541</ele>
        <time>2011-07-03T13:39:30Z</time>
      </trkpt>
      <trkpt lat="42.66573" lon="1.72976">
        <ele>1857.8852539</ele>
        <time>2011-07-03T13:39:39Z</time>
      </trkpt>
      <trkpt lat="42.6658" lon="1.72966">
        <ele>1857.404541</ele>
        <time>2011-07-03T13:39:50Z</time>
      </trkpt>
      <trkpt lat="42.66584" lon="1.72963">
        <ele>1856.9238281</ele>
        <time>2011-07-03T13:39:55Z</time>
      </trkpt>
      <trkpt lat="42.66597" lon="1.72957">
        <ele>1855.9624023</ele>
        <time>2011-07-03T13:40:05Z</time>
      </trkpt>
      <trkpt lat="42.66603" lon="1.72951">
        <ele>1855.4819336</ele>
        <time>2011-07-03T13:40:17Z</time>
      </trkpt>
      <trkpt lat="42.66606" lon="1.72947">
        <ele>1855.0012207</ele>
        <time>2011-07-03T13:40:21Z</time>
      </trkpt>
      <trkpt lat="42.66615" lon="1.72941">
        <ele>1854.0400391</ele>
        <time>2011-07-03T13:40:33Z</time>
      </trkpt>
      <trkpt lat="42.66619" lon="1.72938">
        <ele>1852.5979004</ele>
        <time>2011-07-03T13:40:37Z</time>
      </trkpt>
      <trkpt lat="42.66621" lon="1.72938">
        <ele>1853.5593262</ele>
        <time>2011-07-03T13:40:39Z</time>
      </trkpt>
      <trkpt lat="42.66623" lon="1.7294">
        <ele>1853.0786133</ele>
        <time>2011-07-03T13:40:40Z</time>
      </trkpt>
      <trkpt lat="42.66626" lon="1.72938">
        <ele>1853.0786133</ele>
        <time>2011-07-03T13:40:42Z</time>
      </trkpt>
      <trkpt lat="42.66638" lon="1.72931">
        <ele>1852.5979004</ele>
        <time>2011-07-03T13:40:54Z</time>
      </trkpt>
      <trkpt lat="42.66641" lon="1.72928">
        <ele>1851.6364746</ele>
        <time>2011-07-03T13:41:00Z</time>
      </trkpt>
      <trkpt lat="42.66647" lon="1.72927">
        <ele>1851.6364746</ele>
        <time>2011-07-03T13:41:05Z</time>
      </trkpt>
      <trkpt lat="42.66656" lon="1.72922">
        <ele>1850.6750488</ele>
        <time>2011-07-03T13:41:11Z</time>
      </trkpt>
      <trkpt lat="42.66665" lon="1.72914">
        <ele>1850.6750488</ele>
        <time>2011-07-03T13:41:22Z</time>
      </trkpt>
      <trkpt lat="42.66668" lon="1.72909">
        <ele>1849.7138672</ele>
        <time>2011-07-03T13:41:26Z</time>
      </trkpt>
      <trkpt lat="42.66676" lon="1.72904">
        <ele>1850.1945801</ele>
        <time>2011-07-03T13:41:33Z</time>
      </trkpt>
      <trkpt lat="42.66681" lon="1.729">
        <ele>1850.1945801</ele>
        <time>2011-07-03T13:41:37Z</time>
      </trkpt>
      <trkpt lat="42.66685" lon="1.72902">
        <ele>1850.6750488</ele>
        <time>2011-07-03T13:41:40Z</time>
      </trkpt>
      <trkpt lat="42.66689" lon="1.729">
        <ele>1850.1945801</ele>
        <time>2011-07-03T13:41:44Z</time>
      </trkpt>
      <trkpt lat="42.66691" lon="1.72897">
        <ele>1850.1945801</ele>
        <time>2011-07-03T13:41:47Z</time>
      </trkpt>
      <trkpt lat="42.66691" lon="1.72896">
        <ele>1849.2331543</ele>
        <time>2011-07-03T13:41:50Z</time>
      </trkpt>
      <trkpt lat="42.66696" lon="1.72893">
        <ele>1850.1945801</ele>
        <time>2011-07-03T13:41:54Z</time>
      </trkpt>
      <trkpt lat="42.66697" lon="1.7289">
        <ele>1850.6750488</ele>
        <time>2011-07-03T13:41:56Z</time>
      </trkpt>
      <trkpt lat="42.66702" lon="1.72888">
        <ele>1849.2331543</ele>
        <time>2011-07-03T13:42:00Z</time>
      </trkpt>
      <trkpt lat="42.66703" lon="1.72883">
        <ele>1850.6750488</ele>
        <time>2011-07-03T13:42:04Z</time>
      </trkpt>
      <trkpt lat="42.66709" lon="1.72882">
        <ele>1849.7138672</ele>
        <time>2011-07-03T13:42:08Z</time>
      </trkpt>
      <trkpt lat="42.66711" lon="1.7288">
        <ele>1850.6750488</ele>
        <time>2011-07-03T13:42:10Z</time>
      </trkpt>
      <trkpt lat="42.66716" lon="1.72881">
        <ele>1849.2331543</ele>
        <time>2011-07-03T13:42:13Z</time>
      </trkpt>
      <trkpt lat="42.66719" lon="1.72879">
        <ele>1849.7138672</ele>
        <time>2011-07-03T13:42:15Z</time>
      </trkpt>
      <trkpt lat="42.66733" lon="1.72874">
        <ele>1849.7138672</ele>
        <time>2011-07-03T13:42:28Z</time>
      </trkpt>
      <trkpt lat="42.66743" lon="1.72863">
        <ele>1848.7524414</ele>
        <time>2011-07-03T13:42:41Z</time>
      </trkpt>
      <trkpt lat="42.66744" lon="1.72863">
        <ele>1849.2331543</ele>
        <time>2011-07-03T13:42:42Z</time>
      </trkpt>
      <trkpt lat="42.66744" lon="1.7286">
        <ele>1848.7524414</ele>
        <time>2011-07-03T13:42:44Z</time>
      </trkpt>
      <trkpt lat="42.66752" lon="1.72856">
        <ele>1847.7912598</ele>
        <time>2011-07-03T13:42:53Z</time>
      </trkpt>
      <trkpt lat="42.66756" lon="1.72856">
        <ele>1847.3105469</ele>
        <time>2011-07-03T13:42:57Z</time>
      </trkpt>
      <trkpt lat="42.66767" lon="1.72855">
        <ele>1847.7912598</ele>
        <time>2011-07-03T13:43:05Z</time>
      </trkpt>
      <trkpt lat="42.66776" lon="1.72854">
        <ele>1848.2717285</ele>
        <time>2011-07-03T13:43:17Z</time>
      </trkpt>
      <trkpt lat="42.66771" lon="1.72852">
        <ele>1848.2717285</ele>
        <time>2011-07-03T13:44:14Z</time>
      </trkpt>
      <trkpt lat="42.66788" lon="1.72847">
        <ele>1848.7524414</ele>
        <time>2011-07-03T13:44:34Z</time>
      </trkpt>
      <trkpt lat="42.668" lon="1.72842">
        <ele>1848.2717285</ele>
        <time>2011-07-03T13:44:45Z</time>
      </trkpt>
      <trkpt lat="42.66811" lon="1.72838">
        <ele>1848.7524414</ele>
        <time>2011-07-03T13:44:56Z</time>
      </trkpt>
      <trkpt lat="42.66813" lon="1.72837">
        <ele>1847.7912598</ele>
        <time>2011-07-03T13:44:58Z</time>
      </trkpt>
      <trkpt lat="42.66818" lon="1.72832">
        <ele>1847.3105469</ele>
        <time>2011-07-03T13:45:06Z</time>
      </trkpt>
      <trkpt lat="42.66824" lon="1.72827">
        <ele>1847.7912598</ele>
        <time>2011-07-03T13:45:12Z</time>
      </trkpt>
      <trkpt lat="42.66831" lon="1.72827">
        <ele>1847.7912598</ele>
        <time>2011-07-03T13:45:17Z</time>
      </trkpt>
      <trkpt lat="42.66835" lon="1.72828">
        <ele>1848.7524414</ele>
        <time>2011-07-03T13:45:19Z</time>
      </trkpt>
      <trkpt lat="42.6684" lon="1.72825">
        <ele>1849.2331543</ele>
        <time>2011-07-03T13:45:24Z</time>
      </trkpt>
      <trkpt lat="42.6684" lon="1.72822">
        <ele>1849.2331543</ele>
        <time>2011-07-03T13:45:29Z</time>
      </trkpt>
      <trkpt lat="42.66852" lon="1.72813">
        <ele>1850.1945801</ele>
        <time>2011-07-03T13:45:41Z</time>
      </trkpt>
      <trkpt lat="42.66861" lon="1.72807">
        <ele>1848.7524414</ele>
        <time>2011-07-03T13:45:54Z</time>
      </trkpt>
      <trkpt lat="42.66865" lon="1.72801">
        <ele>1848.2717285</ele>
        <time>2011-07-03T13:46:10Z</time>
      </trkpt>
      <trkpt lat="42.66871" lon="1.72797">
        <ele>1847.7912598</ele>
        <time>2011-07-03T13:46:38Z</time>
      </trkpt>
      <trkpt lat="42.66878" lon="1.72795">
        <ele>1846.829834</ele>
        <time>2011-07-03T13:46:43Z</time>
      </trkpt>
      <trkpt lat="42.66886" lon="1.72794">
        <ele>1847.3105469</ele>
        <time>2011-07-03T13:46:49Z</time>
      </trkpt>
      <trkpt lat="42.66889" lon="1.72786">
        <ele>1848.7524414</ele>
        <time>2011-07-03T13:47:03Z</time>
      </trkpt>
      <trkpt lat="42.66891" lon="1.72783">
        <ele>1846.829834</ele>
        <time>2011-07-03T13:47:06Z</time>
      </trkpt>
      <trkpt lat="42.66893" lon="1.72779">
        <ele>1845.8686523</ele>
        <time>2011-07-03T13:47:13Z</time>
      </trkpt>
      <trkpt lat="42.669" lon="1.72777">
        <ele>1845.3879395</ele>
        <time>2011-07-03T13:47:18Z</time>
      </trkpt>
      <trkpt lat="42.66901" lon="1.72773">
        <ele>1845.3879395</ele>
        <time>2011-07-03T13:47:25Z</time>
      </trkpt>
      <trkpt lat="42.66905" lon="1.72768">
        <ele>1847.3105469</ele>
        <time>2011-07-03T13:47:31Z</time>
      </trkpt>
      <trkpt lat="42.66904" lon="1.72768">
        <ele>1845.8686523</ele>
        <time>2011-07-03T13:47:34Z</time>
      </trkpt>
      <trkpt lat="42.66905" lon="1.72765">
        <ele>1849.2331543</ele>
        <time>2011-07-03T13:47:37Z</time>
      </trkpt>
      <trkpt lat="42.66916" lon="1.72746">
        <ele>1845.8686523</ele>
        <time>2011-07-03T13:47:52Z</time>
      </trkpt>
      <trkpt lat="42.66921" lon="1.72744">
        <ele>1845.8686523</ele>
        <time>2011-07-03T13:47:57Z</time>
      </trkpt>
      <trkpt lat="42.66926" lon="1.72735">
        <ele>1847.3105469</ele>
        <time>2011-07-03T13:48:04Z</time>
      </trkpt>
      <trkpt lat="42.66926" lon="1.72732">
        <ele>1847.7912598</ele>
        <time>2011-07-03T13:48:06Z</time>
      </trkpt>
      <trkpt lat="42.66926" lon="1.72727">
        <ele>1845.8686523</ele>
        <time>2011-07-03T13:48:09Z</time>
      </trkpt>
      <trkpt lat="42.66928" lon="1.72725">
        <ele>1845.3879395</ele>
        <time>2011-07-03T13:48:11Z</time>
      </trkpt>
      <trkpt lat="42.66928" lon="1.72718">
        <ele>1847.3105469</ele>
        <time>2011-07-03T13:48:16Z</time>
      </trkpt>
      <trkpt lat="42.66934" lon="1.72705">
        <ele>1845.8686523</ele>
        <time>2011-07-03T13:48:27Z</time>
      </trkpt>
      <trkpt lat="42.66944" lon="1.72702">
        <ele>1844.9072266</ele>
        <time>2011-07-03T13:48:34Z</time>
      </trkpt>
      <trkpt lat="42.66943" lon="1.72695">
        <ele>1844.4265137</ele>
        <time>2011-07-03T13:48:39Z</time>
      </trkpt>
      <trkpt lat="42.66952" lon="1.72692">
        <ele>1842.9846191</ele>
        <time>2011-07-03T13:48:52Z</time>
      </trkpt>
      <trkpt lat="42.66955" lon="1.72698">
        <ele>1842.9846191</ele>
        <time>2011-07-03T13:49:00Z</time>
      </trkpt>
      <trkpt lat="42.66957" lon="1.72712">
        <ele>1842.0234375</ele>
        <time>2011-07-03T13:49:13Z</time>
      </trkpt>
      <trkpt lat="42.6696" lon="1.72713">
        <ele>1839.1394043</ele>
        <time>2011-07-03T13:49:20Z</time>
      </trkpt>
      <trkpt lat="42.66961" lon="1.72712">
        <ele>1842.0234375</ele>
        <time>2011-07-03T13:49:22Z</time>
      </trkpt>
      <trkpt lat="42.66965" lon="1.72714">
        <ele>1842.0234375</ele>
        <time>2011-07-03T13:49:46Z</time>
      </trkpt>
      <trkpt lat="42.6697" lon="1.72709">
        <ele>1842.0234375</ele>
        <time>2011-07-03T13:49:51Z</time>
      </trkpt>
      <trkpt lat="42.66992" lon="1.72688">
        <ele>1841.5427246</ele>
        <time>2011-07-03T13:50:18Z</time>
      </trkpt>
      <trkpt lat="42.66994" lon="1.72688">
        <ele>1840.5812988</ele>
        <time>2011-07-03T13:50:20Z</time>
      </trkpt>
      <trkpt lat="42.67007" lon="1.72684">
        <ele>1839.1394043</ele>
        <time>2011-07-03T13:50:44Z</time>
      </trkpt>
      <trkpt lat="42.67026" lon="1.72689">
        <ele>1837.2167969</ele>
        <time>2011-07-03T13:51:08Z</time>
      </trkpt>
      <trkpt lat="42.67033" lon="1.72688">
        <ele>1834.3327637</ele>
        <time>2011-07-03T13:51:52Z</time>
      </trkpt>
      <trkpt lat="42.67044" lon="1.72683">
        <ele>1833.3713379</ele>
        <time>2011-07-03T13:52:16Z</time>
      </trkpt>
      <trkpt lat="42.67055" lon="1.72668">
        <ele>1832.4101563</ele>
        <time>2011-07-03T13:52:30Z</time>
      </trkpt>
      <trkpt lat="42.67057" lon="1.72665">
        <ele>1831.4487305</ele>
        <time>2011-07-03T13:52:34Z</time>
      </trkpt>
      <trkpt lat="42.67055" lon="1.72652">
        <ele>1831.4487305</ele>
        <time>2011-07-03T13:52:47Z</time>
      </trkpt>
      <trkpt lat="42.67059" lon="1.7265">
        <ele>1833.8520508</ele>
        <time>2011-07-03T13:52:50Z</time>
      </trkpt>
      <trkpt lat="42.6706" lon="1.72644">
        <ele>1831.4487305</ele>
        <time>2011-07-03T13:52:53Z</time>
      </trkpt>
      <trkpt lat="42.67066" lon="1.72619">
        <ele>1832.4101563</ele>
        <time>2011-07-03T13:53:10Z</time>
      </trkpt>
      <trkpt lat="42.67067" lon="1.7262">
        <ele>1832.890625</ele>
        <time>2011-07-03T13:53:11Z</time>
      </trkpt>
      <trkpt lat="42.67075" lon="1.72607">
        <ele>1829.0454102</ele>
        <time>2011-07-03T13:53:24Z</time>
      </trkpt>
      <trkpt lat="42.67076" lon="1.72589">
        <ele>1828.5649414</ele>
        <time>2011-07-03T13:53:39Z</time>
      </trkpt>
      <trkpt lat="42.67087" lon="1.72583">
        <ele>1827.6035156</ele>
        <time>2011-07-03T13:53:54Z</time>
      </trkpt>
      <trkpt lat="42.6709" lon="1.7258">
        <ele>1827.6035156</ele>
        <time>2011-07-03T13:53:58Z</time>
      </trkpt>
      <trkpt lat="42.67099" lon="1.7257">
        <ele>1825.2001953</ele>
        <time>2011-07-03T13:54:10Z</time>
      </trkpt>
      <trkpt lat="42.67113" lon="1.72567">
        <ele>1824.2390137</ele>
        <time>2011-07-03T13:54:27Z</time>
      </trkpt>
      <trkpt lat="42.67125" lon="1.72547">
        <ele>1822.3164063</ele>
        <time>2011-07-03T13:54:45Z</time>
      </trkpt>
      <trkpt lat="42.67125" lon="1.72526">
        <ele>1818.4709473</ele>
        <time>2011-07-03T13:55:00Z</time>
      </trkpt>
      <trkpt lat="42.67135" lon="1.72505">
        <ele>1817.5095215</ele>
        <time>2011-07-03T13:55:18Z</time>
      </trkpt>
      <trkpt lat="42.67139" lon="1.72505">
        <ele>1817.5095215</ele>
        <time>2011-07-03T13:55:22Z</time>
      </trkpt>
      <trkpt lat="42.67148" lon="1.72489">
        <ele>1816.5483398</ele>
        <time>2011-07-03T13:55:33Z</time>
      </trkpt>
      <trkpt lat="42.67153" lon="1.72484">
        <ele>1815.5871582</ele>
        <time>2011-07-03T13:55:45Z</time>
      </trkpt>
      <trkpt lat="42.67157" lon="1.72466">
        <ele>1813.6643066</ele>
        <time>2011-07-03T13:56:02Z</time>
      </trkpt>
      <trkpt lat="42.67161" lon="1.72461">
        <ele>1815.5871582</ele>
        <time>2011-07-03T13:56:07Z</time>
      </trkpt>
      <trkpt lat="42.67169" lon="1.7245">
        <ele>1814.6257324</ele>
        <time>2011-07-03T13:56:22Z</time>
      </trkpt>
      <trkpt lat="42.67171" lon="1.7245">
        <ele>1812.2224121</ele>
        <time>2011-07-03T13:56:24Z</time>
      </trkpt>
      <trkpt lat="42.67173" lon="1.72448">
        <ele>1812.2224121</ele>
        <time>2011-07-03T13:56:28Z</time>
      </trkpt>
      <trkpt lat="42.67172" lon="1.72445">
        <ele>1813.1838379</ele>
        <time>2011-07-03T13:56:30Z</time>
      </trkpt>
      <trkpt lat="42.67177" lon="1.72443">
        <ele>1812.2224121</ele>
        <time>2011-07-03T13:56:35Z</time>
      </trkpt>
      <trkpt lat="42.67182" lon="1.72437">
        <ele>1812.2224121</ele>
        <time>2011-07-03T13:56:41Z</time>
      </trkpt>
      <trkpt lat="42.67183" lon="1.72435">
        <ele>1816.067627</ele>
        <time>2011-07-03T13:56:44Z</time>
      </trkpt>
      <trkpt lat="42.67187" lon="1.7242">
        <ele>1815.1064453</ele>
        <time>2011-07-03T13:57:07Z</time>
      </trkpt>
      <trkpt lat="42.67186" lon="1.72408">
        <ele>1811.7419434</ele>
        <time>2011-07-03T13:57:19Z</time>
      </trkpt>
      <trkpt lat="42.67197" lon="1.72404">
        <ele>1812.703125</ele>
        <time>2011-07-03T13:57:35Z</time>
      </trkpt>
      <trkpt lat="42.67195" lon="1.72392">
        <ele>1810.2998047</ele>
        <time>2011-07-03T13:57:49Z</time>
      </trkpt>
      <trkpt lat="42.67192" lon="1.7238">
        <ele>1809.338623</ele>
        <time>2011-07-03T13:57:59Z</time>
      </trkpt>
      <trkpt lat="42.67184" lon="1.7236">
        <ele>1807.4160156</ele>
        <time>2011-07-03T13:58:12Z</time>
      </trkpt>
      <trkpt lat="42.67184" lon="1.72351">
        <ele>1805.4934082</ele>
        <time>2011-07-03T13:58:20Z</time>
      </trkpt>
      <trkpt lat="42.67182" lon="1.72331">
        <ele>1804.0515137</ele>
        <time>2011-07-03T13:58:37Z</time>
      </trkpt>
      <trkpt lat="42.67182" lon="1.72328">
        <ele>1802.6091309</ele>
        <time>2011-07-03T13:58:41Z</time>
      </trkpt>
      <trkpt lat="42.67185" lon="1.72316">
        <ele>1799.2446289</ele>
        <time>2011-07-03T13:58:56Z</time>
      </trkpt>
      <trkpt lat="42.6719" lon="1.72303">
        <ele>1798.2832031</ele>
        <time>2011-07-03T13:59:15Z</time>
      </trkpt>
      <trkpt lat="42.67186" lon="1.72285">
        <ele>1795.880127</ele>
        <time>2011-07-03T13:59:31Z</time>
      </trkpt>
      <trkpt lat="42.67187" lon="1.72276">
        <ele>1794.9187012</ele>
        <time>2011-07-03T13:59:39Z</time>
      </trkpt>
      <trkpt lat="42.67194" lon="1.72267">
        <ele>1793.4768066</ele>
        <time>2011-07-03T13:59:53Z</time>
      </trkpt>
      <trkpt lat="42.67192" lon="1.7226">
        <ele>1793.9575195</ele>
        <time>2011-07-03T14:00:00Z</time>
      </trkpt>
      <trkpt lat="42.67195" lon="1.72254">
        <ele>1790.5927734</ele>
        <time>2011-07-03T14:00:10Z</time>
      </trkpt>
      <trkpt lat="42.67193" lon="1.72243">
        <ele>1791.5541992</ele>
        <time>2011-07-03T14:00:19Z</time>
      </trkpt>
      <trkpt lat="42.672" lon="1.72237">
        <ele>1790.1123047</ele>
        <time>2011-07-03T14:00:28Z</time>
      </trkpt>
      <trkpt lat="42.67198" lon="1.72211">
        <ele>1789.1508789</ele>
        <time>2011-07-03T14:00:47Z</time>
      </trkpt>
      <trkpt lat="42.67209" lon="1.722">
        <ele>1788.1896973</ele>
        <time>2011-07-03T14:01:01Z</time>
      </trkpt>
      <trkpt lat="42.67212" lon="1.72181">
        <ele>1785.3054199</ele>
        <time>2011-07-03T14:01:16Z</time>
      </trkpt>
      <trkpt lat="42.6721" lon="1.72177">
        <ele>1788.6704102</ele>
        <time>2011-07-03T14:01:18Z</time>
      </trkpt>
      <trkpt lat="42.67199" lon="1.72157">
        <ele>1786.7473145</ele>
        <time>2011-07-03T14:01:24Z</time>
      </trkpt>
      <trkpt lat="42.67201" lon="1.72153">
        <ele>1785.7861328</ele>
        <time>2011-07-03T14:01:29Z</time>
      </trkpt>
      <trkpt lat="42.67203" lon="1.7215">
        <ele>1784.8249512</ele>
        <time>2011-07-03T14:01:42Z</time>
      </trkpt>
      <trkpt lat="42.67206" lon="1.72148">
        <ele>1783.3828125</ele>
        <time>2011-07-03T14:01:45Z</time>
      </trkpt>
      <trkpt lat="42.67208" lon="1.72139">
        <ele>1780.0183105</ele>
        <time>2011-07-03T14:01:58Z</time>
      </trkpt>
      <trkpt lat="42.67212" lon="1.72126">
        <ele>1779.0568848</ele>
        <time>2011-07-03T14:02:12Z</time>
      </trkpt>
      <trkpt lat="42.6721" lon="1.72119">
        <ele>1778.0957031</ele>
        <time>2011-07-03T14:02:25Z</time>
      </trkpt>
      <trkpt lat="42.67218" lon="1.72104">
        <ele>1777.6149902</ele>
        <time>2011-07-03T14:02:43Z</time>
      </trkpt>
      <trkpt lat="42.67215" lon="1.72098">
        <ele>1776.1730957</ele>
        <time>2011-07-03T14:02:46Z</time>
      </trkpt>
      <trkpt lat="42.67217" lon="1.72096">
        <ele>1777.6149902</ele>
        <time>2011-07-03T14:02:49Z</time>
      </trkpt>
      <trkpt lat="42.67216" lon="1.72092">
        <ele>1776.1730957</ele>
        <time>2011-07-03T14:03:06Z</time>
      </trkpt>
      <trkpt lat="42.67222" lon="1.72097">
        <ele>1777.1345215</ele>
        <time>2011-07-03T14:03:21Z</time>
      </trkpt>
      <trkpt lat="42.67226" lon="1.72081">
        <ele>1778.576416</ele>
        <time>2011-07-03T14:06:26Z</time>
      </trkpt>
      <trkpt lat="42.67228" lon="1.72071">
        <ele>1777.1345215</ele>
        <time>2011-07-03T14:06:33Z</time>
      </trkpt>
      <trkpt lat="42.67227" lon="1.72047">
        <ele>1775.6923828</ele>
        <time>2011-07-03T14:06:47Z</time>
      </trkpt>
      <trkpt lat="42.67226" lon="1.72018">
        <ele>1773.7697754</ele>
        <time>2011-07-03T14:07:12Z</time>
      </trkpt>
      <trkpt lat="42.67229" lon="1.72006">
        <ele>1772.8085938</ele>
        <time>2011-07-03T14:07:37Z</time>
      </trkpt>
      <trkpt lat="42.6723" lon="1.72005">
        <ele>1773.2893066</ele>
        <time>2011-07-03T14:07:38Z</time>
      </trkpt>
      <trkpt lat="42.67228" lon="1.72002">
        <ele>1774.2504883</ele>
        <time>2011-07-03T14:07:40Z</time>
      </trkpt>
      <trkpt lat="42.67232" lon="1.71974">
        <ele>1770.8857422</ele>
        <time>2011-07-03T14:08:14Z</time>
      </trkpt>
      <trkpt lat="42.67233" lon="1.71947">
        <ele>1768.001709</ele>
        <time>2011-07-03T14:08:41Z</time>
      </trkpt>
      <trkpt lat="42.6723" lon="1.71927">
        <ele>1766.0791016</ele>
        <time>2011-07-03T14:09:01Z</time>
      </trkpt>
      <trkpt lat="42.67229" lon="1.71912">
        <ele>1765.5986328</ele>
        <time>2011-07-03T14:09:14Z</time>
      </trkpt>
      <trkpt lat="42.67244" lon="1.71907">
        <ele>1764.637207</ele>
        <time>2011-07-03T14:09:29Z</time>
      </trkpt>
      <trkpt lat="42.67249" lon="1.71888">
        <ele>1765.1179199</ele>
        <time>2011-07-03T14:09:49Z</time>
      </trkpt>
      <trkpt lat="42.67256" lon="1.71867">
        <ele>1764.637207</ele>
        <time>2011-07-03T14:10:06Z</time>
      </trkpt>
      <trkpt lat="42.67262" lon="1.71843">
        <ele>1765.5986328</ele>
        <time>2011-07-03T14:10:27Z</time>
      </trkpt>
      <trkpt lat="42.67272" lon="1.71834">
        <ele>1764.637207</ele>
        <time>2011-07-03T14:10:40Z</time>
      </trkpt>
      <trkpt lat="42.67287" lon="1.71824">
        <ele>1764.637207</ele>
        <time>2011-07-03T14:10:51Z</time>
      </trkpt>
      <trkpt lat="42.67293" lon="1.71821">
        <ele>1765.1179199</ele>
        <time>2011-07-03T14:10:56Z</time>
      </trkpt>
      <trkpt lat="42.67281" lon="1.71782">
        <ele>1765.1179199</ele>
        <time>2011-07-03T14:11:16Z</time>
      </trkpt>
      <trkpt lat="42.67288" lon="1.71772">
        <ele>1764.637207</ele>
        <time>2011-07-03T14:11:22Z</time>
      </trkpt>
      <trkpt lat="42.67289" lon="1.71747">
        <ele>1764.1564941</ele>
        <time>2011-07-03T14:11:37Z</time>
      </trkpt>
      <trkpt lat="42.67285" lon="1.71728">
        <ele>1764.637207</ele>
        <time>2011-07-03T14:11:54Z</time>
      </trkpt>
      <trkpt lat="42.67289" lon="1.71722">
        <ele>1763.6757813</ele>
        <time>2011-07-03T14:12:01Z</time>
      </trkpt>
      <trkpt lat="42.67282" lon="1.71683">
        <ele>1764.637207</ele>
        <time>2011-07-03T14:12:23Z</time>
      </trkpt>
      <trkpt lat="42.67284" lon="1.7168">
        <ele>1764.637207</ele>
        <time>2011-07-03T14:12:26Z</time>
      </trkpt>
      <trkpt lat="42.67284" lon="1.71669">
        <ele>1764.637207</ele>
        <time>2011-07-03T14:12:33Z</time>
      </trkpt>
      <trkpt lat="42.67278" lon="1.71639">
        <ele>1764.1564941</ele>
        <time>2011-07-03T14:12:54Z</time>
      </trkpt>
      <trkpt lat="42.67269" lon="1.71621">
        <ele>1764.637207</ele>
        <time>2011-07-03T14:13:16Z</time>
      </trkpt>
      <trkpt lat="42.67277" lon="1.71606">
        <ele>1762.2338867</ele>
        <time>2011-07-03T14:13:44Z</time>
      </trkpt>
      <trkpt lat="42.67253" lon="1.71578">
        <ele>1759.8305664</ele>
        <time>2011-07-03T14:14:04Z</time>
      </trkpt>
      <trkpt lat="42.67259" lon="1.71563">
        <ele>1757.4274902</ele>
        <time>2011-07-03T14:14:20Z</time>
      </trkpt>
      <trkpt lat="42.67262" lon="1.71554">
        <ele>1758.3886719</ele>
        <time>2011-07-03T14:14:27Z</time>
      </trkpt>
      <trkpt lat="42.67259" lon="1.71531">
        <ele>1757.4274902</ele>
        <time>2011-07-03T14:14:41Z</time>
      </trkpt>
      <trkpt lat="42.67268" lon="1.71514">
        <ele>1755.9851074</ele>
        <time>2011-07-03T14:15:04Z</time>
      </trkpt>
      <trkpt lat="42.67272" lon="1.71495">
        <ele>1755.5046387</ele>
        <time>2011-07-03T14:15:17Z</time>
      </trkpt>
      <trkpt lat="42.67279" lon="1.71483">
        <ele>1757.4274902</ele>
        <time>2011-07-03T14:15:30Z</time>
      </trkpt>
      <trkpt lat="42.67291" lon="1.71473">
        <ele>1757.4274902</ele>
        <time>2011-07-03T14:15:40Z</time>
      </trkpt>
      <trkpt lat="42.67302" lon="1.71463">
        <ele>1756.9467773</ele>
        <time>2011-07-03T14:15:52Z</time>
      </trkpt>
      <trkpt lat="42.67297" lon="1.71455">
        <ele>1757.9082031</ele>
        <time>2011-07-03T14:15:58Z</time>
      </trkpt>
      <trkpt lat="42.67295" lon="1.7145">
        <ele>1755.5046387</ele>
        <time>2011-07-03T14:16:00Z</time>
      </trkpt>
      <trkpt lat="42.67296" lon="1.71431">
        <ele>1752.1398926</ele>
        <time>2011-07-03T14:16:16Z</time>
      </trkpt>
      <trkpt lat="42.67298" lon="1.714">
        <ele>1750.697998</ele>
        <time>2011-07-03T14:16:41Z</time>
      </trkpt>
      <trkpt lat="42.67301" lon="1.71386">
        <ele>1746.8527832</ele>
        <time>2011-07-03T14:16:57Z</time>
      </trkpt>
      <trkpt lat="42.67299" lon="1.71381">
        <ele>1745.8916016</ele>
        <time>2011-07-03T14:17:06Z</time>
      </trkpt>
      <trkpt lat="42.67297" lon="1.71366">
        <ele>1742.5270996</ele>
        <time>2011-07-03T14:17:25Z</time>
      </trkpt>
      <trkpt lat="42.67297" lon="1.71366">
        <ele>1742.0463867</ele>
        <time>2011-07-03T14:17:26Z</time>
      </trkpt>
      <trkpt lat="42.67293" lon="1.71364">
        <ele>1742.0463867</ele>
        <time>2011-07-03T14:17:31Z</time>
      </trkpt>
      <trkpt lat="42.67289" lon="1.71346">
        <ele>1738.2009277</ele>
        <time>2011-07-03T14:17:50Z</time>
      </trkpt>
      <trkpt lat="42.67291" lon="1.71328">
        <ele>1736.7587891</ele>
        <time>2011-07-03T14:18:08Z</time>
      </trkpt>
      <trkpt lat="42.67291" lon="1.71292">
        <ele>1733.3942871</ele>
        <time>2011-07-03T14:18:35Z</time>
      </trkpt>
      <trkpt lat="42.6729" lon="1.71274">
        <ele>1730.510498</ele>
        <time>2011-07-03T14:18:50Z</time>
      </trkpt>
      <trkpt lat="42.67298" lon="1.71258">
        <ele>1729.0683594</ele>
        <time>2011-07-03T14:19:06Z</time>
      </trkpt>
      <trkpt lat="42.67285" lon="1.71246">
        <ele>1725.7038574</ele>
        <time>2011-07-03T14:19:15Z</time>
      </trkpt>
      <trkpt lat="42.67291" lon="1.71231">
        <ele>1725.2231445</ele>
        <time>2011-07-03T14:19:31Z</time>
      </trkpt>
      <trkpt lat="42.67294" lon="1.71222">
        <ele>1721.8583984</ele>
        <time>2011-07-03T14:19:40Z</time>
      </trkpt>
      <trkpt lat="42.67293" lon="1.71215">
        <ele>1718.4938965</ele>
        <time>2011-07-03T14:19:50Z</time>
      </trkpt>
      <trkpt lat="42.67288" lon="1.71203">
        <ele>1717.5324707</ele>
        <time>2011-07-03T14:20:01Z</time>
      </trkpt>
      <trkpt lat="42.67293" lon="1.71196">
        <ele>1714.1679688</ele>
        <time>2011-07-03T14:20:12Z</time>
      </trkpt>
      <trkpt lat="42.67293" lon="1.71173">
        <ele>1710.8034668</ele>
        <time>2011-07-03T14:20:34Z</time>
      </trkpt>
      <trkpt lat="42.67288" lon="1.71168">
        <ele>1707.4387207</ele>
        <time>2011-07-03T14:20:52Z</time>
      </trkpt>
      <trkpt lat="42.67284" lon="1.71167">
        <ele>1704.5546875</ele>
        <time>2011-07-03T14:21:16Z</time>
      </trkpt>
      <trkpt lat="42.67284" lon="1.71162">
        <ele>1702.6320801</ele>
        <time>2011-07-03T14:21:25Z</time>
      </trkpt>
      <trkpt lat="42.67283" lon="1.71157">
        <ele>1701.1901855</ele>
        <time>2011-07-03T14:21:31Z</time>
      </trkpt>
      <trkpt lat="42.67295" lon="1.71147">
        <ele>1699.748291</ele>
        <time>2011-07-03T14:22:02Z</time>
      </trkpt>
      <trkpt lat="42.67295" lon="1.71136">
        <ele>1696.3837891</ele>
        <time>2011-07-03T14:22:13Z</time>
      </trkpt>
      <trkpt lat="42.67299" lon="1.71118">
        <ele>1693.019043</ele>
        <time>2011-07-03T14:22:28Z</time>
      </trkpt>
      <trkpt lat="42.67297" lon="1.71103">
        <ele>1690.1350098</ele>
        <time>2011-07-03T14:22:45Z</time>
      </trkpt>
      <trkpt lat="42.67293" lon="1.71098">
        <ele>1686.7702637</ele>
        <time>2011-07-03T14:22:57Z</time>
      </trkpt>
      <trkpt lat="42.67287" lon="1.71098">
        <ele>1684.8479004</ele>
        <time>2011-07-03T14:23:04Z</time>
      </trkpt>
      <trkpt lat="42.67283" lon="1.71107">
        <ele>1681.4831543</ele>
        <time>2011-07-03T14:23:22Z</time>
      </trkpt>
      <trkpt lat="42.67285" lon="1.711">
        <ele>1678.5993652</ele>
        <time>2011-07-03T14:23:38Z</time>
      </trkpt>
      <trkpt lat="42.67276" lon="1.71097">
        <ele>1675.234375</ele>
        <time>2011-07-03T14:23:50Z</time>
      </trkpt>
      <trkpt lat="42.67276" lon="1.7109">
        <ele>1672.3505859</ele>
        <time>2011-07-03T14:24:08Z</time>
      </trkpt>
      <trkpt lat="42.67278" lon="1.71072">
        <ele>1669.4667969</ele>
        <time>2011-07-03T14:24:31Z</time>
      </trkpt>
      <trkpt lat="42.67275" lon="1.71064">
        <ele>1666.1020508</ele>
        <time>2011-07-03T14:24:44Z</time>
      </trkpt>
      <trkpt lat="42.67274" lon="1.7106">
        <ele>1664.6601563</ele>
        <time>2011-07-03T14:24:55Z</time>
      </trkpt>
      <trkpt lat="42.67271" lon="1.71056">
        <ele>1661.2956543</ele>
        <time>2011-07-03T14:25:16Z</time>
      </trkpt>
      <trkpt lat="42.6726" lon="1.71057">
        <ele>1657.9309082</ele>
        <time>2011-07-03T14:25:33Z</time>
      </trkpt>
      <trkpt lat="42.67255" lon="1.71053">
        <ele>1654.5661621</ele>
        <time>2011-07-03T14:25:51Z</time>
      </trkpt>
      <trkpt lat="42.67256" lon="1.71046">
        <ele>1651.2016602</ele>
        <time>2011-07-03T14:26:07Z</time>
      </trkpt>
      <trkpt lat="42.67249" lon="1.71036">
        <ele>1647.8371582</ele>
        <time>2011-07-03T14:26:26Z</time>
      </trkpt>
      <trkpt lat="42.67243" lon="1.71035">
        <ele>1644.953125</ele>
        <time>2011-07-03T14:26:41Z</time>
      </trkpt>
      <trkpt lat="42.6724" lon="1.7102">
        <ele>1643.0302734</ele>
        <time>2011-07-03T14:26:55Z</time>
      </trkpt>
      <trkpt lat="42.67256" lon="1.71011">
        <ele>1639.1850586</ele>
        <time>2011-07-03T14:27:11Z</time>
      </trkpt>
      <trkpt lat="42.67265" lon="1.70995">
        <ele>1636.3012695</ele>
        <time>2011-07-03T14:27:34Z</time>
      </trkpt>
      <trkpt lat="42.67272" lon="1.70987">
        <ele>1632.9365234</ele>
        <time>2011-07-03T14:27:50Z</time>
      </trkpt>
      <trkpt lat="42.67273" lon="1.70982">
        <ele>1631.9753418</ele>
        <time>2011-07-03T14:27:54Z</time>
      </trkpt>
      <trkpt lat="42.67273" lon="1.70981">
        <ele>1635.3398438</ele>
        <time>2011-07-03T14:27:55Z</time>
      </trkpt>
      <trkpt lat="42.67274" lon="1.70977">
        <ele>1632.9365234</ele>
        <time>2011-07-03T14:27:56Z</time>
      </trkpt>
      <trkpt lat="42.67272" lon="1.70989">
        <ele>1631.9753418</ele>
        <time>2011-07-03T14:27:58Z</time>
      </trkpt>
      <trkpt lat="42.67283" lon="1.70976">
        <ele>1628.6108398</ele>
        <time>2011-07-03T14:28:15Z</time>
      </trkpt>
      <trkpt lat="42.67286" lon="1.70963">
        <ele>1625.2458496</ele>
        <time>2011-07-03T14:28:40Z</time>
      </trkpt>
      <trkpt lat="42.67286" lon="1.70963">
        <ele>1624.7653809</ele>
        <time>2011-07-03T14:28:42Z</time>
      </trkpt>
      <trkpt lat="42.67291" lon="1.7096">
        <ele>1621.8813477</ele>
        <time>2011-07-03T14:29:09Z</time>
      </trkpt>
      <trkpt lat="42.67292" lon="1.70958">
        <ele>1619.9587402</ele>
        <time>2011-07-03T14:29:23Z</time>
      </trkpt>
      <trkpt lat="42.67279" lon="1.70949">
        <ele>1618.9975586</ele>
        <time>2011-07-03T14:29:45Z</time>
      </trkpt>
      <trkpt lat="42.67276" lon="1.70933">
        <ele>1615.6330566</ele>
        <time>2011-07-03T14:30:07Z</time>
      </trkpt>
      <trkpt lat="42.67283" lon="1.7092">
        <ele>1612.7490234</ele>
        <time>2011-07-03T14:30:27Z</time>
      </trkpt>
      <trkpt lat="42.67284" lon="1.70903">
        <ele>1610.8261719</ele>
        <time>2011-07-03T14:30:44Z</time>
      </trkpt>
      <trkpt lat="42.67288" lon="1.70896">
        <ele>1607.4616699</ele>
        <time>2011-07-03T14:31:01Z</time>
      </trkpt>
      <trkpt lat="42.67299" lon="1.7089">
        <ele>1604.5776367</ele>
        <time>2011-07-03T14:31:20Z</time>
      </trkpt>
      <trkpt lat="42.67294" lon="1.709">
        <ele>1601.6938477</ele>
        <time>2011-07-03T14:31:40Z</time>
      </trkpt>
      <trkpt lat="42.67285" lon="1.70892">
        <ele>1598.3291016</ele>
        <time>2011-07-03T14:32:01Z</time>
      </trkpt>
      <trkpt lat="42.67284" lon="1.70883">
        <ele>1594.9643555</ele>
        <time>2011-07-03T14:32:17Z</time>
      </trkpt>
      <trkpt lat="42.67286" lon="1.70866">
        <ele>1591.5998535</ele>
        <time>2011-07-03T14:32:39Z</time>
      </trkpt>
      <trkpt lat="42.67286" lon="1.70844">
        <ele>1588.2353516</ele>
        <time>2011-07-03T14:32:50Z</time>
      </trkpt>
      <trkpt lat="42.67283" lon="1.70845">
        <ele>1587.2739258</ele>
        <time>2011-07-03T14:33:16Z</time>
      </trkpt>
      <trkpt lat="42.67269" lon="1.70848">
        <ele>1583.9094238</ele>
        <time>2011-07-03T14:33:31Z</time>
      </trkpt>
      <trkpt lat="42.67274" lon="1.70857">
        <ele>1585.3513184</ele>
        <time>2011-07-03T14:33:55Z</time>
      </trkpt>
      <trkpt lat="42.67291" lon="1.70863">
        <ele>1586.7932129</ele>
        <time>2011-07-03T14:34:22Z</time>
      </trkpt>
      <trkpt lat="42.6729" lon="1.70863">
        <ele>1587.2739258</ele>
        <time>2011-07-03T14:34:49Z</time>
      </trkpt>
      <trkpt lat="42.6729" lon="1.70863">
        <ele>1587.2739258</ele>
        <time>2011-07-03T14:34:50Z</time>
      </trkpt>
      <trkpt lat="42.67288" lon="1.70861">
        <ele>1587.2739258</ele>
        <time>2011-07-03T14:34:57Z</time>
      </trkpt>
      <trkpt lat="42.67285" lon="1.70861">
        <ele>1587.2739258</ele>
        <time>2011-07-03T14:35:00Z</time>
      </trkpt>
    </trkseg>
  </trk>
</gpx>